[[{"header":{"parameterUnit":"m.s-1","parameterCategory":1,"la1":31.0,"la2":29.5877,"lo1":-88.7671,"lo2":-86.6584,"dy":0.0162,"dx":0.0185,"nx":115,"ny":88,"refTime":"2023-03-06T18:00:00:Z","depth":0,"parameterNumber":2,"parameterNumberName":"U-component_of_WINDS"},"data":[0.0,0.0,0.0,0.0,0.0,0.0,0.0,0.0,0.0,0.0,0.0,0.0,0.0,0.0,0.0,0.0,0.0,0.0,0.0,0.0,0.0,0.0,0.0,0.0,0.0,0.0,0.0,0.0,0.0,0.0,0.0,0.0,0.0,0.0,0.0,0.0,0.0,0.0,0.0,0.0,0.0,0.0,0.0,0.0,0.0,0.0,0.0,0.0,0.0,0.0,0.0,0.0,0.0,0.0,0.0,0.0,0.0,0.0,0.0,0.0,0.0,0.0,0.0,0.0,0.0,0.0,0.0,0.0,0.0,0.0,0.0,0.0,0.0,0.0,0.0,0.0,0.0,0.0,0.0,0.0,0.0,0.0,0.0,0.0,0.0,0.0,0.0,0.0,0.0,0.0,0.0,0.0,0.0,0.0,0.0,0.0,0.0,0.0,0.0,0.0,0.0,0.0,0.0,0.0,0.0,0.0,0.0,0.0,0.0,0.0,0.0,0.0,0.0,0.0,0.0,0.0,0.0,0.0,0.0,0.0,0.0,0.0,0.0,0.0,0.0,0.0,0.0,0.0,0.0,0.0,0.0,0.0,0.0,0.0,0.0,0.0,0.0,0.0,0.0,0.0,0.0,0.0,0.0,0.0,0.0,0.0,0.0,0.0,0.0,0.0,0.0,0.0,0.0,0.0,0.0,0.0,0.0,0.0,0.0,0.0,0.0,0.0,0.0,0.0,0.0,0.0,0.0,0.0,0.0,0.0,0.0,0.0,0.0,0.0,0.0,0.0,0.0,0.0,0.0,0.0,0.0,0.0,0.0,0.0,0.0,0.0,0.0,0.0,0.0,0.0,0.0,0.0,0.0,0.0,0.0,0.0,0.0,0.0,0.0,0.0,0.0,0.0,0.0,0.0,0.0,0.0,0.0,0.0,0.0,0.0,0.0,0.0,0.0,0.0,0.0,0.0,0.0,0.0,0.0,0.0,0.0,0.0,0.0,0.0,0.0,0.0,0.0,0.0,0.0,0.0,0.0,0.0,0.0,0.0,0.0,0.0,0.0,0.0,0.0,0.0,0.0,0.0,0.0,0.0,0.0,0.0,0.0,0.0,0.0,0.0,0.0,0.0,0.0,0.0,0.0,0.0,0.0,0.0,0.0,0.0,0.0,0.0,0.0,0.0,0.0,0.0,0.0,0.0,0.0,0.0,0.0,0.0,0.0,0.0,0.0,0.0,0.0,0.0,0.0,0.0,0.0,0.0,0.0,0.0,0.0,0.0,0.0,0.0,0.0,0.0,0.0,0.0,0.0,0.0,0.0,0.0,0.0,0.0,0.0,0.0,0.0,0.0,0.0,0.0,0.0,0.0,0.0,0.0,0.0,0.0,0.0,0.0,0.0,0.0,0.0,0.0,0.0,0.0,0.0,0.0,0.0,0.0,0.0,0.0,0.0,0.0,0.0,0.0,0.0,0.0,0.0,0.0,0.0,0.0,0.0,0.0,0.0,0.0,0.0,0.0,0.0,0.0,0.0,0.0,0.0,0.0,0.0,0.0,0.0,0.0,0.0,0.0,0.0,0.0,0.0,0.0,0.0,0.0,0.0,0.0,0.0,0.0,0.0,0.0,0.0,0.0,0.0,0.0,0.0,0.0,0.0,0.0,0.0,0.0,0.0,0.0,0.0,0.0,0.0,0.0,0.0,0.0,0.0,0.0,0.0,0.0,0.0,0.0,0.0,0.0,0.0,0.0,0.0,0.0,0.0,0.0,0.0,0.0,0.0,0.0,0.0,0.0,0.0,0.0,0.0,0.0,0.0,0.0,0.0,0.0,0.0,0.0,0.0,0.0,0.0,0.0,0.0,0.0,0.0,0.0,0.0,0.0,0.0,0.0,0.0,0.0,0.0,0.0,0.0,0.0,0.0,0.0,0.0,0.0,0.0,0.0,0.0,0.0,0.0,0.0,0.0,0.0,0.0,0.0,0.0,0.0,0.0,0.0,0.0,0.0,0.0,0.0,0.0,0.0,0.0,0.0,0.0,0.0,0.0,0.0,0.0,0.0,0.0,0.0,0.0,0.0,0.0,0.0,0.0,0.0,0.0,0.0,0.0,0.0,0.0,0.0,0.0,0.0,0.0,0.0,0.0,0.0,0.0,0.0,0.0,0.0,0.0,0.0,0.0,0.0,0.0,0.0,0.0,0.0,0.0,0.0,0.0,0.0,0.0,0.0,0.0,0.0,0.0,0.0,0.0,0.0,0.0,0.0,0.0,0.0,0.0,0.0,0.0,0.0,0.0,0.0,0.0,0.0,0.0,0.0,0.0,0.0,0.0,0.0,0.0,0.0,0.0,0.0,0.0,0.0,0.0,0.0,0.0,0.0,0.0,0.0,0.0,0.0,0.0,0.0,0.0,0.0,0.0,0.0,0.0,0.0,0.0,0.0,0.0,0.0,0.0,0.0,0.0,0.0,0.0,0.0,0.0,0.0,0.0,0.0,0.0,0.0,0.0,0.0,0.0,0.0,0.0,0.0,0.0,0.0,0.0,0.0,0.0,0.0,0.0,0.0,0.0,0.0,0.0,0.0,0.0,0.0,0.0,0.0,0.0,0.0,0.0,0.0,0.0,0.0,0.0,0.0,0.0,0.0,0.0,0.0,0.0,0.0,0.0,0.0,0.0,0.0,0.0,0.0,0.0,0.0,0.0,0.0,0.0,0.0,0.0,0.0,0.0,0.0,0.0,0.0,0.0,0.0,0.0,0.0,0.0,0.0,0.0,0.0,0.0,0.0,0.0,0.0,0.0,0.0,0.0,0.0,0.0,0.0,0.0,0.0,0.0,0.0,0.0,0.0,0.0,0.0,0.0,0.0,0.0,0.0,0.0,0.0,0.0,0.0,0.0,0.0,0.0,0.0,0.0,0.0,0.0,0.0,0.0,0.0,0.0,0.0,0.0,0.0,0.0,0.0,0.0,0.0,0.0,0.0,0.0,0.0,0.0,0.0,0.0,0.0,0.0,0.0,0.0,0.0,0.0,0.0,0.0,0.0,0.0,0.0,0.0,0.0,0.0,0.0,0.0,0.0,0.0,0.0,0.0,0.0,0.0,0.0,0.0,0.0,0.0,0.0,0.0,0.0,0.0,0.0,0.0,0.0,0.0,0.0,0.0,0.0,0.0,0.0,0.0,0.0,0.0,0.0,0.0,0.0,0.0,0.0,0.0,0.0,0.0,0.0,0.0,0.0,0.0,0.0,0.0,0.0,0.0,0.0,0.0,0.0,0.0,0.0,0.0,0.0,0.0,0.0,0.0,0.0,0.0,0.0,0.0,0.0,0.0,0.0,0.0,0.0,0.0,0.0,0.0,0.0,0.0,0.0,0.0,0.0,0.0,0.0,0.0,0.0,0.0,0.0,0.0,0.0,0.0,0.0,0.0,0.0,0.0,0.0,0.0,0.0,0.0,0.0,0.0,0.0,0.0,0.0,0.0,0.0,0.0,0.0,0.0,0.0,0.0,0.0,0.0,0.0,0.0,0.0,0.0,0.0,0.0,0.0,0.0,0.0,0.0,0.0,0.0,0.0,0.0,0.0,0.0,0.0,0.0,0.0,0.0,0.0,0.0,0.0,0.0,0.0,0.0,0.0,0.0,0.0,0.0,0.0,0.0,0.0,0.0,0.0,0.0,0.0,0.0,0.0,0.0,0.0,0.0,0.0,0.0,0.0,0.0,0.0,0.0,0.0,0.0,0.0,0.0,0.0,0.0,0.0,0.0,0.0,0.0,0.0,0.0,0.0,0.0,0.0,0.0,0.0,0.0,0.0,0.0,0.0,0.0,0.0,0.0,0.0,0.0,0.0,0.0,0.0,0.0,0.0,0.0,0.0,0.0,0.0,0.0,0.0,0.0,0.0,0.0,0.0,0.0,0.0,0.0,0.0,0.0,0.0,0.0,0.0,0.0,0.0,0.0,0.0,0.0,0.0,0.0,0.0,0.0,0.0,0.0,0.0,0.0,0.0,0.0,0.0,0.0,0.0,0.0,0.0,0.0,0.0,0.0,0.0,0.0,0.0,0.0,0.0,0.0,0.0,0.0,0.0,0.0,0.0,0.0,0.0,0.0,0.0,0.0,0.0,0.0,0.0,0.0,0.0,0.0,0.0,0.0,0.0,0.0,0.0,0.0,0.0,0.0,0.0,0.0,0.0,0.0,0.0,0.0,0.0,0.0,0.0,0.0,0.0,0.0,0.0,0.0,0.0,0.0,0.0,0.0,0.0,0.0,0.0,0.0,0.0,0.0,0.0,-3.2256,0.0,0.0,0.0,0.0,0.0,0.0,0.0,0.0,0.0,0.0,0.0,0.0,0.0,0.0,0.0,0.0,0.0,0.0,0.0,0.0,0.0,0.0,0.0,0.0,0.0,0.0,0.0,0.0,0.0,0.0,0.0,0.0,0.0,0.0,0.0,0.0,0.0,0.0,0.0,0.0,0.0,0.0,0.0,0.0,0.0,0.0,0.0,0.0,0.0,0.0,0.0,0.0,0.0,0.0,0.0,0.0,0.0,0.0,0.0,0.0,0.0,0.0,0.0,0.0,0.0,0.0,0.0,0.0,0.0,0.0,0.0,0.0,0.0,0.0,0.0,0.0,0.0,0.0,0.0,0.0,0.0,0.0,0.0,0.0,0.0,0.0,0.0,0.0,0.0,0.0,0.0,0.0,0.0,0.0,0.0,0.0,0.0,0.0,0.0,0.0,0.0,0.0,0.0,0.0,0.0,0.0,0.0,0.0,0.0,0.0,-3.3712,-3.3698,-3.3712,-3.3515,-3.3127,0.0,0.0,0.0,0.0,0.0,0.0,0.0,0.0,0.0,0.0,0.0,0.0,0.0,0.0,0.0,0.0,0.0,0.0,0.0,0.0,0.0,0.0,0.0,0.0,0.0,0.0,0.0,0.0,0.0,0.0,0.0,0.0,0.0,0.0,0.0,0.0,0.0,0.0,0.0,0.0,0.0,0.0,0.0,0.0,0.0,0.0,0.0,0.0,0.0,0.0,0.0,0.0,0.0,0.0,0.0,0.0,0.0,0.0,0.0,0.0,0.0,0.0,0.0,0.0,0.0,0.0,0.0,0.0,0.0,0.0,0.0,0.0,0.0,0.0,0.0,0.0,0.0,0.0,0.0,0.0,0.0,0.0,0.0,0.0,0.0,0.0,0.0,0.0,0.0,0.0,0.0,0.0,0.0,0.0,0.0,0.0,0.0,0.0,0.0,0.0,0.0,0.0,0.0,0.0,0.0,0.0,0.0,0.0,0.0,0.0,0.0,0.0,-3.3807,-3.3766,-3.3652,0.0,0.0,0.0,0.0,0.0,0.0,0.0,0.0,0.0,0.0,0.0,0.0,0.0,0.0,0.0,0.0,0.0,0.0,0.0,0.0,0.0,0.0,0.0,0.0,0.0,0.0,0.0,0.0,0.0,0.0,0.0,0.0,0.0,0.0,0.0,0.0,0.0,0.0,0.0,0.0,0.0,0.0,0.0,0.0,0.0,0.0,0.0,0.0,0.0,0.0,0.0,0.0,0.0,0.0,0.0,0.0,0.0,0.0,0.0,0.0,0.0,0.0,0.0,0.0,0.0,0.0,0.0,0.0,0.0,0.0,0.0,0.0,0.0,0.0,0.0,0.0,0.0,0.0,0.0,0.0,0.0,0.0,0.0,0.0,0.0,0.0,0.0,0.0,0.0,0.0,0.0,0.0,0.0,0.0,0.0,0.0,0.0,0.0,0.0,0.0,0.0,0.0,0.0,0.0,0.0,0.0,0.0,0.0,0.0,0.0,-3.3807,-3.3807,-3.3825,0.0,-3.3601,0.0,0.0,0.0,0.0,0.0,0.0,0.0,0.0,0.0,0.0,0.0,0.0,0.0,0.0,0.0,0.0,0.0,0.0,0.0,0.0,0.0,0.0,0.0,0.0,0.0,0.0,0.0,0.0,0.0,0.0,0.0,0.0,0.0,0.0,0.0,0.0,0.0,0.0,0.0,0.0,0.0,0.0,0.0,0.0,0.0,0.0,0.0,0.0,0.0,0.0,0.0,0.0,0.0,0.0,0.0,0.0,0.0,0.0,0.0,0.0,0.0,0.0,0.0,0.0,0.0,0.0,0.0,0.0,0.0,0.0,0.0,0.0,0.0,0.0,0.0,0.0,0.0,0.0,0.0,0.0,0.0,0.0,0.0,0.0,0.0,0.0,0.0,0.0,0.0,0.0,0.0,0.0,0.0,0.0,0.0,0.0,0.0,0.0,0.0,0.0,0.0,0.0,0.0,0.0,0.0,0.0,0.0,0.0,0.0,0.0,-3.4027,-3.4509,-3.4463,-3.416,0.0,0.0,0.0,0.0,0.0,0.0,0.0,0.0,0.0,0.0,0.0,0.0,0.0,0.0,0.0,0.0,0.0,0.0,0.0,0.0,0.0,0.0,0.0,0.0,0.0,0.0,0.0,0.0,0.0,0.0,0.0,0.0,0.0,0.0,0.0,0.0,0.0,0.0,0.0,0.0,0.0,0.0,0.0,0.0,0.0,0.0,0.0,0.0,0.0,0.0,0.0,0.0,0.0,0.0,0.0,0.0,0.0,0.0,0.0,0.0,0.0,0.0,0.0,0.0,0.0,0.0,0.0,0.0,0.0,0.0,0.0,0.0,0.0,0.0,0.0,0.0,0.0,0.0,0.0,0.0,0.0,0.0,0.0,0.0,0.0,0.0,0.0,0.0,0.0,0.0,0.0,0.0,0.0,0.0,0.0,0.0,0.0,0.0,0.0,0.0,0.0,0.0,0.0,0.0,0.0,0.0,0.0,0.0,0.0,0.0,-3.4,-3.4358,-3.4897,-3.4877,-3.4426,-3.3528,0.0,0.0,0.0,0.0,0.0,0.0,0.0,0.0,0.0,0.0,0.0,0.0,0.0,0.0,0.0,0.0,0.0,0.0,0.0,0.0,0.0,0.0,0.0,0.0,0.0,0.0,0.0,0.0,0.0,0.0,0.0,0.0,0.0,0.0,0.0,0.0,0.0,0.0,0.0,0.0,0.0,0.0,0.0,0.0,0.0,0.0,0.0,0.0,0.0,0.0,0.0,0.0,0.0,0.0,0.0,0.0,0.0,0.0,0.0,0.0,0.0,0.0,0.0,0.0,0.0,0.0,0.0,0.0,0.0,0.0,0.0,0.0,0.0,0.0,0.0,0.0,0.0,0.0,0.0,0.0,0.0,0.0,0.0,0.0,0.0,0.0,0.0,0.0,0.0,0.0,0.0,0.0,0.0,0.0,0.0,0.0,0.0,0.0,0.0,0.0,0.0,0.0,0.0,0.0,0.0,0.0,0.0,0.0,-3.3748,-3.4452,-3.4844,-3.4845,-3.4735,-3.4327,0.0,0.0,0.0,0.0,0.0,0.0,0.0,0.0,0.0,0.0,0.0,0.0,0.0,0.0,0.0,0.0,0.0,0.0,0.0,0.0,0.0,0.0,0.0,0.0,0.0,0.0,0.0,0.0,0.0,0.0,0.0,0.0,0.0,0.0,0.0,0.0,0.0,0.0,0.0,0.0,0.0,0.0,0.0,0.0,0.0,0.0,0.0,0.0,0.0,0.0,0.0,0.0,0.0,0.0,0.0,0.0,0.0,0.0,0.0,0.0,0.0,0.0,0.0,0.0,0.0,0.0,0.0,0.0,0.0,0.0,0.0,0.0,0.0,0.0,0.0,0.0,0.0,0.0,0.0,0.0,0.0,0.0,0.0,0.0,0.0,0.0,0.0,0.0,0.0,0.0,0.0,0.0,0.0,0.0,0.0,0.0,0.0,0.0,0.0,0.0,0.0,0.0,0.0,0.0,0.0,0.0,0.0,0.0,0.0,-3.4436,-3.5695,-3.6088,-3.5539,-3.5487,-3.5075,0.0,0.0,0.0,0.0,0.0,0.0,0.0,0.0,0.0,0.0,0.0,0.0,0.0,0.0,0.0,0.0,0.0,0.0,0.0,0.0,0.0,0.0,0.0,0.0,0.0,0.0,0.0,0.0,0.0,0.0,0.0,0.0,0.0,0.0,0.0,0.0,0.0,0.0,0.0,0.0,0.0,0.0,0.0,0.0,0.0,0.0,0.0,0.0,0.0,0.0,0.0,0.0,0.0,0.0,0.0,0.0,0.0,0.0,0.0,0.0,0.0,0.0,0.0,0.0,0.0,0.0,0.0,0.0,0.0,0.0,0.0,0.0,0.0,0.0,0.0,0.0,0.0,0.0,0.0,0.0,0.0,0.0,0.0,0.0,0.0,0.0,0.0,0.0,0.0,0.0,0.0,0.0,0.0,0.0,0.0,0.0,0.0,0.0,0.0,0.0,0.0,0.0,0.0,0.0,0.0,0.0,0.0,0.0,0.0,-3.553,0.0,-3.6869,-3.6297,-3.6004,-3.5483,0.0,0.0,0.0,0.0,0.0,0.0,0.0,0.0,0.0,0.0,0.0,0.0,0.0,0.0,0.0,0.0,0.0,0.0,0.0,0.0,0.0,0.0,0.0,0.0,0.0,0.0,0.0,0.0,0.0,0.0,0.0,0.0,0.0,0.0,0.0,0.0,0.0,0.0,0.0,0.0,0.0,0.0,0.0,0.0,0.0,0.0,0.0,0.0,0.0,0.0,0.0,0.0,0.0,0.0,0.0,0.0,0.0,0.0,0.0,0.0,0.0,0.0,0.0,0.0,0.0,0.0,0.0,0.0,0.0,0.0,0.0,0.0,0.0,0.0,0.0,0.0,0.0,0.0,0.0,0.0,0.0,0.0,0.0,0.0,0.0,0.0,0.0,0.0,0.0,0.0,0.0,0.0,0.0,0.0,0.0,0.0,0.0,0.0,0.0,0.0,0.0,0.0,0.0,0.0,0.0,0.0,0.0,0.0,-3.5566,-3.6999,-3.708,-3.7104,-3.7013,-3.6309,-3.5476,0.0,0.0,0.0,0.0,0.0,0.0,0.0,0.0,0.0,0.0,0.0,0.0,0.0,0.0,0.0,0.0,0.0,0.0,0.0,0.0,0.0,0.0,0.0,0.0,0.0,0.0,0.0,0.0,0.0,0.0,0.0,0.0,0.0,0.0,0.0,0.0,0.0,0.0,0.0,0.0,0.0,0.0,0.0,0.0,0.0,0.0,0.0,0.0,0.0,0.0,0.0,0.0,0.0,0.0,0.0,0.0,0.0,0.0,0.0,0.0,0.0,0.0,0.0,0.0,0.0,0.0,0.0,0.0,0.0,0.0,0.0,0.0,0.0,0.0,0.0,0.0,0.0,0.0,0.0,0.0,0.0,0.0,0.0,0.0,0.0,0.0,0.0,0.0,0.0,0.0,0.0,0.0,0.0,0.0,0.0,0.0,0.0,0.0,0.0,0.0,0.0,0.0,0.0,0.0,0.0,0.0,0.0,0.0,0.0,-3.7843,-3.8372,-3.8662,-3.8625,-3.7883,-3.6816,0.0,0.0,0.0,0.0,0.0,0.0,0.0,0.0,0.0,0.0,0.0,0.0,0.0,0.0,0.0,0.0,0.0,0.0,0.0,0.0,0.0,0.0,0.0,0.0,0.0,0.0,0.0,0.0,0.0,0.0,0.0,0.0,0.0,0.0,0.0,0.0,0.0,0.0,0.0,0.0,0.0,0.0,0.0,0.0,0.0,0.0,0.0,0.0,0.0,0.0,0.0,0.0,0.0,0.0,0.0,0.0,0.0,0.0,0.0,0.0,0.0,0.0,0.0,0.0,0.0,0.0,0.0,0.0,0.0,0.0,0.0,0.0,0.0,0.0,0.0,0.0,0.0,0.0,0.0,0.0,0.0,0.0,0.0,0.0,0.0,0.0,0.0,0.0,0.0,0.0,0.0,0.0,0.0,0.0,0.0,0.0,0.0,0.0,0.0,0.0,0.0,0.0,0.0,0.0,0.0,0.0,0.0,0.0,0.0,-3.9912,-4.0148,-4.0256,-4.0256,-3.9206,-3.8046,-3.6725,0.0,0.0,0.0,0.0,0.0,0.0,0.0,0.0,0.0,0.0,0.0,0.0,0.0,0.0,0.0,0.0,0.0,0.0,0.0,0.0,0.0,0.0,0.0,0.0,0.0,0.0,0.0,0.0,0.0,0.0,0.0,0.0,0.0,0.0,0.0,0.0,0.0,0.0,0.0,0.0,0.0,0.0,0.0,0.0,0.0,0.0,0.0,0.0,0.0,0.0,0.0,0.0,0.0,0.0,0.0,0.0,0.0,0.0,0.0,0.0,0.0,0.0,0.0,0.0,0.0,0.0,0.0,0.0,0.0,0.0,0.0,0.0,0.0,0.0,0.0,0.0,0.0,0.0,0.0,0.0,0.0,0.0,0.0,0.0,0.0,0.0,0.0,0.0,0.0,0.0,0.0,0.0,0.0,0.0,0.0,0.0,0.0,0.0,0.0,0.0,0.0,0.0,0.0,0.0,0.0,0.0,0.0,0.0,-4.301,-4.2393,-4.1976,-4.1813,-4.0401,-3.917,0.0,0.0,0.0,0.0,0.0,0.0,0.0,0.0,0.0,0.0,0.0,0.0,0.0,0.0,0.0,0.0,0.0,0.0,0.0,0.0,0.0,0.0,0.0,0.0,0.0,0.0,0.0,0.0,0.0,0.0,0.0,0.0,0.0,0.0,0.0,0.0,0.0,0.0,0.0,0.0,0.0,0.0,0.0,0.0,0.0,0.0,0.0,0.0,0.0,0.0,0.0,0.0,0.0,0.0,0.0,0.0,0.0,0.0,0.0,0.0,0.0,0.0,0.0,0.0,0.0,0.0,0.0,0.0,0.0,0.0,0.0,0.0,0.0,0.0,0.0,0.0,0.0,0.0,0.0,0.0,0.0,0.0,0.0,0.0,0.0,0.0,0.0,0.0,0.0,0.0,0.0,0.0,0.0,0.0,0.0,0.0,0.0,0.0,0.0,0.0,0.0,0.0,0.0,0.0,0.0,0.0,0.0,0.0,0.0,-4.4566,-4.5596,-4.5291,-4.3534,-4.2502,-4.1053,0.0,0.0,0.0,0.0,0.0,0.0,0.0,0.0,0.0,0.0,0.0,0.0,0.0,0.0,0.0,0.0,0.0,0.0,0.0,0.0,0.0,0.0,0.0,0.0,0.0,0.0,0.0,0.0,0.0,0.0,0.0,0.0,0.0,0.0,0.0,0.0,0.0,0.0,0.0,0.0,0.0,0.0,0.0,0.0,0.0,0.0,0.0,0.0,0.0,0.0,0.0,0.0,0.0,0.0,0.0,0.0,0.0,0.0,0.0,0.0,0.0,0.0,0.0,0.0,0.0,0.0,0.0,0.0,0.0,0.0,0.0,0.0,0.0,0.0,0.0,0.0,0.0,0.0,0.0,0.0,0.0,0.0,0.0,0.0,0.0,0.0,0.0,0.0,0.0,0.0,0.0,0.0,0.0,0.0,0.0,0.0,0.0,0.0,0.0,0.0,0.0,0.0,0.0,0.0,0.0,0.0,0.0,0.0,-4.3371,-4.5761,-4.7065,-4.7192,-4.616,-4.4675,-4.2774,0.0,0.0,0.0,0.0,0.0,0.0,0.0,0.0,0.0,0.0,0.0,0.0,0.0,0.0,0.0,0.0,0.0,0.0,0.0,0.0,0.0,0.0,0.0,0.0,0.0,0.0,0.0,0.0,0.0,0.0,0.0,0.0,0.0,0.0,0.0,0.0,0.0,0.0,0.0,0.0,0.0,0.0,0.0,0.0,0.0,0.0,0.0,0.0,0.0,0.0,0.0,0.0,0.0,0.0,0.0,0.0,0.0,0.0,0.0,0.0,0.0,0.0,0.0,0.0,0.0,0.0,0.0,0.0,0.0,0.0,0.0,0.0,0.0,0.0,0.0,0.0,0.0,0.0,0.0,0.0,0.0,0.0,0.0,0.0,0.0,0.0,0.0,0.0,0.0,0.0,0.0,0.0,0.0,0.0,0.0,0.0,0.0,0.0,0.0,0.0,0.0,0.0,0.0,0.0,0.0,0.0,0.0,0.0,-4.424,-4.6685,-4.7536,-4.8297,-4.8931,-4.6703,-4.4349,0.0,0.0,0.0,0.0,0.0,0.0,0.0,0.0,0.0,0.0,0.0,0.0,0.0,0.0,0.0,0.0,0.0,0.0,0.0,0.0,0.0,0.0,0.0,0.0,0.0,0.0,0.0,0.0,0.0,0.0,0.0,0.0,0.0,0.0,0.0,0.0,0.0,0.0,0.0,0.0,0.0,0.0,0.0,0.0,0.0,0.0,0.0,0.0,0.0,0.0,0.0,0.0,0.0,0.0,0.0,0.0,0.0,0.0,0.0,0.0,0.0,0.0,0.0,0.0,0.0,0.0,0.0,0.0,0.0,0.0,0.0,0.0,0.0,0.0,0.0,0.0,0.0,0.0,0.0,0.0,0.0,0.0,0.0,0.0,0.0,0.0,0.0,0.0,0.0,0.0,0.0,0.0,0.0,0.0,0.0,0.0,0.0,0.0,0.0,0.0,0.0,0.0,0.0,0.0,0.0,0.0,0.0,0.0,-4.5283,-4.8294,-4.9166,-4.9655,-4.9818,-4.75,-4.5395,0.0,0.0,0.0,0.0,0.0,0.0,0.0,0.0,0.0,0.0,0.0,0.0,0.0,0.0,0.0,0.0,0.0,0.0,0.0,0.0,0.0,0.0,0.0,0.0,0.0,0.0,0.0,0.0,0.0,0.0,0.0,0.0,0.0,0.0,0.0,0.0,0.0,0.0,0.0,0.0,0.0,0.0,0.0,0.0,0.0,0.0,0.0,0.0,-2.9879,0.0,0.0,0.0,0.0,0.0,0.0,0.0,0.0,0.0,0.0,0.0,0.0,0.0,0.0,0.0,0.0,0.0,0.0,0.0,0.0,0.0,0.0,0.0,0.0,0.0,0.0,0.0,0.0,0.0,0.0,0.0,0.0,0.0,0.0,0.0,0.0,0.0,0.0,0.0,0.0,0.0,0.0,0.0,0.0,0.0,0.0,0.0,0.0,0.0,0.0,0.0,0.0,0.0,0.0,0.0,0.0,0.0,0.0,0.0,-4.5864,-4.8612,-4.9478,-4.9934,-4.9843,-4.7926,-4.5959,0.0,0.0,0.0,0.0,0.0,0.0,0.0,0.0,0.0,0.0,0.0,0.0,0.0,0.0,0.0,0.0,0.0,0.0,0.0,0.0,0.0,0.0,0.0,0.0,0.0,0.0,0.0,0.0,0.0,0.0,0.0,0.0,0.0,0.0,0.0,0.0,0.0,0.0,0.0,0.0,0.0,0.0,0.0,0.0,0.0,0.0,0.0,0.0,0.0,0.0,0.0,0.0,0.0,0.0,0.0,0.0,0.0,0.0,0.0,0.0,0.0,0.0,0.0,0.0,0.0,0.0,0.0,0.0,0.0,0.0,0.0,0.0,0.0,0.0,0.0,0.0,0.0,0.0,0.0,0.0,0.0,0.0,0.0,0.0,0.0,0.0,0.0,0.0,0.0,0.0,0.0,0.0,0.0,0.0,0.0,0.0,0.0,0.0,0.0,0.0,0.0,0.0,0.0,0.0,0.0,0.0,0.0,-4.3748,-4.614,-4.851,-4.9175,-4.9539,-4.9606,-4.7972,-4.6108,-4.4106,0.0,0.0,0.0,0.0,0.0,0.0,0.0,0.0,0.0,0.0,0.0,0.0,0.0,0.0,0.0,0.0,0.0,0.0,0.0,0.0,0.0,0.0,0.0,0.0,0.0,0.0,0.0,0.0,0.0,0.0,0.0,0.0,0.0,0.0,0.0,0.0,0.0,0.0,-3.0859,-3.0755,0.0,0.0,0.0,0.0,0.0,0.0,0.0,0.0,-3.0694,0.0,0.0,0.0,0.0,0.0,0.0,0.0,0.0,0.0,0.0,0.0,0.0,0.0,0.0,0.0,0.0,0.0,0.0,0.0,0.0,0.0,0.0,0.0,0.0,0.0,0.0,0.0,0.0,0.0,0.0,0.0,0.0,0.0,0.0,0.0,0.0,0.0,0.0,0.0,0.0,0.0,0.0,0.0,0.0,0.0,0.0,0.0,0.0,0.0,0.0,0.0,0.0,0.0,0.0,0.0,0.0,-4.197,-4.3683,-4.6065,-4.9061,-4.8692,-4.8745,-4.9276,-4.7153,-4.5428,-4.4218,0.0,0.0,0.0,0.0,0.0,0.0,0.0,0.0,0.0,0.0,0.0,0.0,0.0,0.0,0.0,0.0,0.0,0.0,0.0,0.0,0.0,0.0,0.0,0.0,0.0,0.0,0.0,0.0,0.0,0.0,0.0,0.0,0.0,0.0,0.0,0.0,0.0,0.0,0.0,-3.2428,-3.2275,0.0,0.0,0.0,0.0,0.0,0.0,0.0,0.0,-3.2074,0.0,0.0,0.0,0.0,0.0,0.0,0.0,0.0,0.0,0.0,0.0,0.0,0.0,0.0,0.0,0.0,0.0,0.0,0.0,0.0,0.0,0.0,0.0,0.0,0.0,0.0,0.0,0.0,0.0,0.0,0.0,0.0,0.0,0.0,0.0,0.0,0.0,0.0,0.0,0.0,0.0,0.0,0.0,0.0,0.0,0.0,0.0,0.0,0.0,0.0,0.0,0.0,0.0,0.0,0.0,-4.1679,-4.3341,-4.5529,-4.8176,-4.797,-4.797,-4.8265,-4.6347,-4.4665,0.0,0.0,0.0,0.0,0.0,0.0,0.0,0.0,0.0,0.0,0.0,0.0,0.0,0.0,0.0,0.0,0.0,0.0,0.0,0.0,0.0,0.0,0.0,0.0,0.0,0.0,0.0,0.0,0.0,0.0,0.0,0.0,0.0,0.0,0.0,0.0,0.0,0.0,0.0,0.0,-3.3444,-3.3611,-3.3921,0.0,0.0,0.0,0.0,0.0,0.0,-3.318,-3.2921,0.0,0.0,0.0,0.0,0.0,0.0,0.0,0.0,0.0,0.0,0.0,0.0,0.0,0.0,0.0,0.0,0.0,0.0,0.0,0.0,0.0,0.0,0.0,0.0,0.0,0.0,0.0,0.0,0.0,0.0,0.0,0.0,0.0,0.0,0.0,0.0,0.0,0.0,0.0,0.0,0.0,0.0,0.0,0.0,0.0,0.0,0.0,0.0,0.0,0.0,0.0,0.0,0.0,0.0,0.0,-4.0972,-4.2795,-4.4795,-4.6895,-4.7,-4.7,-4.6982,-4.5371,-4.3722,0.0,0.0,0.0,0.0,0.0,0.0,0.0,0.0,0.0,0.0,0.0,0.0,0.0,0.0,0.0,0.0,0.0,0.0,0.0,0.0,0.0,0.0,0.0,0.0,0.0,0.0,0.0,0.0,0.0,0.0,0.0,0.0,0.0,0.0,0.0,0.0,0.0,0.0,0.0,0.0,0.0,-3.4551,-3.469,-3.4705,0.0,0.0,0.0,0.0,-3.452,-3.3983,0.0,0.0,0.0,0.0,0.0,0.0,0.0,0.0,0.0,0.0,0.0,0.0,0.0,0.0,0.0,0.0,0.0,0.0,0.0,0.0,0.0,0.0,0.0,0.0,0.0,0.0,0.0,0.0,0.0,0.0,0.0,0.0,0.0,0.0,0.0,0.0,0.0,0.0,0.0,0.0,0.0,0.0,0.0,0.0,0.0,0.0,0.0,0.0,0.0,0.0,0.0,0.0,0.0,0.0,0.0,0.0,-3.9835,-4.204,-4.3973,-4.5528,-4.5632,-4.5615,-4.5598,-4.4018,-4.236,0.0,0.0,0.0,0.0,0.0,0.0,0.0,0.0,0.0,0.0,0.0,0.0,0.0,0.0,0.0,0.0,0.0,0.0,0.0,0.0,0.0,0.0,0.0,0.0,0.0,0.0,0.0,0.0,0.0,0.0,0.0,0.0,0.0,0.0,0.0,0.0,0.0,0.0,0.0,0.0,0.0,-3.472,-3.5321,-3.5383,-3.5183,0.0,0.0,-3.5198,-3.4597,-3.4428,0.0,0.0,0.0,0.0,0.0,0.0,0.0,0.0,0.0,0.0,0.0,0.0,0.0,0.0,0.0,0.0,0.0,0.0,0.0,0.0,0.0,0.0,0.0,0.0,0.0,0.0,0.0,0.0,0.0,0.0,0.0,0.0,0.0,0.0,0.0,0.0,0.0,0.0,0.0,0.0,0.0,0.0,0.0,0.0,0.0,0.0,0.0,0.0,0.0,0.0,0.0,0.0,0.0,0.0,0.0,-3.8472,-3.9217,-4.1461,-4.3166,-4.4234,-4.4667,-4.4685,-4.4285,-4.3085,-4.1494,0.0,0.0,0.0,0.0,0.0,0.0,0.0,0.0,0.0,0.0,0.0,0.0,0.0,0.0,0.0,0.0,0.0,0.0,0.0,0.0,0.0,0.0,0.0,0.0,0.0,0.0,0.0,0.0,0.0,0.0,0.0,0.0,0.0,0.0,0.0,0.0,0.0,0.0,0.0,0.0,0.0,0.0,-3.6351,-3.6458,0.0,0.0,0.0,-3.6522,-3.6245,0.0,0.0,0.0,0.0,0.0,0.0,0.0,0.0,0.0,0.0,0.0,0.0,0.0,0.0,0.0,0.0,0.0,0.0,0.0,0.0,0.0,0.0,0.0,0.0,0.0,0.0,0.0,0.0,0.0,0.0,0.0,0.0,0.0,0.0,0.0,0.0,0.0,0.0,0.0,0.0,0.0,0.0,0.0,0.0,0.0,0.0,0.0,0.0,0.0,0.0,0.0,0.0,0.0,0.0,0.0,0.0,0.0,-3.8446,-4.0718,-4.2237,-4.2945,-4.3446,-4.3479,-4.2896,-4.2036,0.0,0.0,0.0,0.0,0.0,0.0,0.0,0.0,0.0,0.0,0.0,0.0,0.0,0.0,0.0,0.0,0.0,0.0,0.0,0.0,0.0,0.0,0.0,0.0,0.0,0.0,0.0,-2.7273,0.0,0.0,0.0,0.0,0.0,0.0,0.0,0.0,0.0,0.0,0.0,0.0,0.0,0.0,-3.6137,-3.6966,-3.7227,-3.7582,0.0,0.0,-3.7579,-3.741,-3.6398,-3.5354,0.0,0.0,0.0,0.0,0.0,0.0,0.0,0.0,0.0,0.0,0.0,0.0,0.0,0.0,0.0,0.0,0.0,0.0,0.0,0.0,0.0,0.0,0.0,0.0,0.0,0.0,0.0,0.0,0.0,0.0,0.0,0.0,0.0,0.0,0.0,0.0,0.0,0.0,0.0,0.0,0.0,0.0,0.0,0.0,0.0,0.0,0.0,0.0,0.0,0.0,0.0,0.0,0.0,0.0,0.0,-3.7469,-3.9597,-4.1038,-4.1705,-4.1693,-4.1626,-4.1531,-4.0707,-3.9253,0.0,0.0,0.0,0.0,0.0,0.0,0.0,0.0,0.0,0.0,0.0,0.0,0.0,0.0,0.0,0.0,0.0,0.0,0.0,0.0,0.0,0.0,0.0,0.0,0.0,0.0,0.0,0.0,0.0,0.0,0.0,0.0,0.0,0.0,0.0,0.0,0.0,0.0,0.0,0.0,0.0,-3.5752,-3.6622,-3.7288,-3.7714,0.0,0.0,-3.7767,-3.7144,-3.643,-3.5535,-3.4258,0.0,0.0,0.0,0.0,0.0,0.0,0.0,0.0,0.0,0.0,0.0,0.0,0.0,0.0,0.0,0.0,0.0,0.0,0.0,0.0,0.0,0.0,0.0,0.0,0.0,0.0,0.0,0.0,0.0,0.0,0.0,0.0,0.0,0.0,0.0,0.0,0.0,0.0,0.0,0.0,0.0,0.0,0.0,0.0,0.0,0.0,0.0,0.0,0.0,0.0,0.0,0.0,0.0,-3.706,-3.6966,-3.9077,-4.0298,-4.055,-4.0881,-4.0857,-4.0369,-3.9964,-3.8676,0.0,0.0,0.0,0.0,0.0,0.0,0.0,0.0,0.0,0.0,0.0,0.0,0.0,0.0,0.0,0.0,0.0,0.0,0.0,0.0,0.0,0.0,0.0,0.0,0.0,0.0,0.0,0.0,-2.6192,-2.6089,-2.6344,0.0,0.0,0.0,0.0,0.0,0.0,0.0,0.0,0.0,0.0,-3.5074,-3.5974,-3.6728,0.0,0.0,-3.7556,-3.7413,-3.6785,-3.6107,-3.5187,-3.3878,-3.3668,0.0,0.0,0.0,0.0,0.0,0.0,0.0,0.0,0.0,0.0,0.0,0.0,0.0,0.0,0.0,0.0,0.0,0.0,0.0,0.0,0.0,0.0,0.0,0.0,0.0,0.0,0.0,0.0,0.0,0.0,0.0,0.0,0.0,0.0,0.0,0.0,0.0,0.0,0.0,0.0,0.0,0.0,0.0,0.0,0.0,0.0,0.0,0.0,0.0,0.0,0.0,0.0,-3.677,-3.6623,-3.8466,-3.9532,-3.9687,-3.9852,-3.9748,-3.9399,-3.9089,-3.8071,0.0,0.0,0.0,0.0,0.0,0.0,0.0,0.0,0.0,0.0,0.0,0.0,0.0,0.0,0.0,0.0,0.0,0.0,0.0,0.0,0.0,0.0,0.0,0.0,0.0,0.0,0.0,0.0,-2.6133,-2.6085,-2.6409,0.0,0.0,0.0,0.0,0.0,0.0,0.0,0.0,0.0,0.0,-3.4393,-3.5241,-3.5895,-3.6421,-3.6807,-3.6828,-3.6649,-3.6238,-3.5566,-3.4703,-3.3636,0.0,0.0,0.0,0.0,0.0,0.0,0.0,0.0,0.0,0.0,0.0,0.0,0.0,0.0,0.0,0.0,0.0,0.0,0.0,0.0,0.0,0.0,0.0,0.0,0.0,0.0,0.0,0.0,0.0,0.0,0.0,0.0,0.0,0.0,0.0,0.0,0.0,0.0,0.0,0.0,0.0,0.0,0.0,0.0,0.0,0.0,0.0,0.0,0.0,0.0,0.0,0.0,0.0,-3.6607,-3.6434,-3.7734,-3.8691,-3.9143,-3.8405,-3.8198,-3.8669,-3.8066,-3.7324,-3.6361,0.0,0.0,0.0,0.0,0.0,0.0,0.0,0.0,0.0,0.0,0.0,0.0,0.0,0.0,0.0,0.0,0.0,0.0,0.0,0.0,0.0,0.0,0.0,0.0,0.0,0.0,-2.7166,-2.6758,-2.6485,0.0,0.0,0.0,0.0,0.0,0.0,0.0,0.0,0.0,0.0,-3.2531,-3.3586,-3.442,-3.4711,-3.5153,-3.5956,-3.5729,-3.5441,-3.5412,-3.4854,-3.4182,0.0,0.0,0.0,0.0,0.0,0.0,0.0,0.0,0.0,0.0,0.0,0.0,0.0,0.0,0.0,0.0,0.0,0.0,0.0,0.0,0.0,0.0,0.0,0.0,0.0,0.0,0.0,-3.7659,-3.7636,0.0,0.0,0.0,0.0,0.0,0.0,0.0,0.0,0.0,0.0,0.0,-3.8175,-3.8084,0.0,0.0,0.0,0.0,0.0,0.0,0.0,0.0,0.0,0.0,0.0,0.0,-3.6104,-3.5952,-3.7226,-3.7942,-3.7987,-3.7648,-3.7514,-3.7705,-3.7259,-3.6362,-3.4976,0.0,0.0,0.0,0.0,0.0,0.0,0.0,0.0,0.0,0.0,0.0,0.0,0.0,0.0,0.0,0.0,0.0,0.0,0.0,0.0,0.0,0.0,0.0,0.0,0.0,-2.7069,0.0,0.0,0.0,0.0,0.0,0.0,0.0,0.0,0.0,0.0,0.0,-3.0725,-3.0725,-3.1874,-3.2822,-3.3074,-3.3764,-3.4212,0.0,0.0,0.0,0.0,0.0,0.0,0.0,0.0,0.0,0.0,0.0,0.0,0.0,0.0,-3.1493,-3.1711,-3.1085,-3.0485,-3.0496,0.0,0.0,0.0,0.0,0.0,0.0,0.0,0.0,0.0,0.0,0.0,0.0,0.0,0.0,0.0,0.0,-3.7646,0.0,0.0,0.0,0.0,0.0,0.0,0.0,0.0,-3.7878,-3.8171,-3.8539,-3.8427,-3.8331,0.0,-3.7552,-3.6749,0.0,0.0,0.0,0.0,0.0,0.0,0.0,0.0,-3.5796,-3.5814,-3.6848,-3.7344,-3.7148,-3.7013,-3.6922,-3.6846,-3.6507,-3.5691,-3.4319,-3.3472,-3.2675,0.0,0.0,0.0,0.0,0.0,0.0,0.0,0.0,0.0,0.0,0.0,0.0,0.0,0.0,0.0,0.0,0.0,0.0,0.0,0.0,0.0,0.0,0.0,-2.7144,0.0,0.0,0.0,0.0,0.0,0.0,0.0,0.0,0.0,-2.8629,-2.9585,-3.0273,-3.0475,-3.146,-3.2105,-3.2105,0.0,0.0,0.0,0.0,0.0,0.0,0.0,-3.2743,-3.2284,-3.2215,-3.209,-3.1688,-3.1633,-3.1619,-3.1633,0.0,0.0,-3.1993,-3.1378,-3.0912,-3.119,-3.0409,-2.9798,-3.0129,-3.0164,-3.0167,0.0,0.0,0.0,0.0,0.0,0.0,0.0,0.0,-3.7986,-3.7569,0.0,-3.7285,0.0,0.0,0.0,0.0,0.0,0.0,0.0,0.0,-3.8044,-3.831,-3.8119,-3.8024,-3.7878,-3.7703,-3.7494,-3.7042,-3.6361,-3.5284,0.0,0.0,0.0,0.0,0.0,0.0,-3.5628,-3.6068,-3.6592,-3.683,-3.6693,-3.6554,-3.6383,-3.6179,-3.5847,-3.529,-3.4409,-3.3687,-3.2893,-3.2016,-3.1247,0.0,0.0,0.0,0.0,0.0,0.0,0.0,0.0,0.0,0.0,0.0,0.0,0.0,0.0,0.0,0.0,0.0,0.0,0.0,0.0,-2.8085,0.0,0.0,0.0,0.0,0.0,0.0,0.0,0.0,0.0,0.0,-2.8811,-2.9417,-3.0002,-3.061,0.0,0.0,0.0,0.0,-3.189,-3.189,-3.2023,-3.2105,-3.2105,-3.2092,-3.2105,-3.2078,0.0,0.0,-3.2078,-3.2078,-3.2051,-3.2078,-3.2037,-3.194,-3.1503,-3.1399,-3.1476,-3.1758,-3.1343,-3.1085,-3.1329,-3.1068,-3.0984,-4.3339,0.0,0.0,0.0,0.0,-4.0919,-4.0782,-4.0646,-4.0128,-3.9638,-3.9161,-3.8853,0.0,0.0,0.0,0.0,0.0,0.0,-3.763,-3.7604,-3.8157,-3.837,-3.834,-3.8649,-3.8496,-3.7917,-3.7701,-3.7219,-3.646,-3.5604,-3.5138,-3.4967,0.0,0.0,0.0,0.0,-3.5618,-3.5625,-3.6122,-3.6352,-3.6195,-3.6163,-3.602,-3.5716,-3.5329,-3.4741,-3.3912,-3.3463,-3.2704,-3.1567,-3.1149,0.0,0.0,0.0,0.0,0.0,0.0,0.0,0.0,0.0,0.0,0.0,0.0,0.0,0.0,0.0,0.0,0.0,0.0,0.0,-2.8085,-2.7875,-2.7756,0.0,0.0,0.0,0.0,0.0,0.0,0.0,0.0,0.0,-2.9075,-2.9333,-2.9662,0.0,0.0,-3.1397,-3.1397,-3.1559,-3.1683,-3.1669,0.0,0.0,0.0,-3.173,-3.173,-3.1743,-3.173,-3.173,-3.173,-3.1743,-3.1743,-3.173,-3.1743,-3.1683,-3.1555,-3.1393,-3.1398,-3.1667,-3.1324,-3.0872,-3.0807,-3.09,-3.0921,-4.4506,-4.328,-4.2344,-4.1707,-4.1357,-4.1283,-4.1198,-4.1099,-4.0704,-4.0313,-3.9907,-3.9277,-3.852,-3.7719,-3.7361,0.0,0.0,0.0,-3.7464,-3.7421,-3.7916,-3.8122,-3.8153,-3.8324,-3.815,-3.7699,-3.7231,-3.6782,-3.6289,-3.586,-3.5569,-3.5424,0.0,0.0,-3.5008,-3.529,-3.5492,-3.5615,-3.5872,-3.5943,-3.5878,-3.575,-3.5507,-3.5096,-3.485,-3.4393,-3.37,-3.3221,-3.2454,-3.1293,-3.0881,-3.0298,0.0,0.0,0.0,0.0,0.0,0.0,0.0,0.0,0.0,0.0,0.0,-2.9162,0.0,0.0,0.0,0.0,-2.8476,-2.8151,-2.7855,-2.7723,0.0,0.0,0.0,0.0,0.0,0.0,0.0,-2.7503,-2.7803,-2.836,-2.9157,-2.931,-2.9575,-3.0359,-3.0876,-3.1198,-3.1161,0.0,-3.1373,-3.1386,-3.1373,-3.136,-3.1373,-3.1373,-3.1373,-3.1373,-3.1336,-3.1386,-3.1373,-3.1373,-3.1373,-3.1373,-3.1373,-3.1307,-3.1032,-3.0857,-3.0998,-3.1665,-3.1122,-3.0562,-3.051,-3.0387,-3.0196,-4.5424,-4.3894,-4.2602,-4.173,-4.1125,-4.0883,-4.0807,-4.0748,-4.0328,-4.0081,-3.9939,-3.8916,-3.8384,-3.8226,-3.7612,0.0,-3.7134,-3.7134,-3.7059,-3.6969,-3.7436,-3.7636,-3.7604,-3.7394,-3.7218,-3.7157,-3.6402,-3.6019,-3.5973,-3.5941,-3.5957,-3.5911,-3.482,-3.4622,-3.5232,-3.514,-3.5366,-3.5958,-3.5767,-3.5655,-3.5623,-3.5297,-3.4883,-3.438,-3.4346,-3.4074,-3.3528,-3.2922,-3.2151,-3.1205,-3.0535,-2.9794,-2.8844,0.0,0.0,0.0,0.0,0.0,0.0,0.0,0.0,0.0,0.0,0.0,0.0,0.0,0.0,0.0,-2.7941,0.0,-2.7756,-2.7556,0.0,0.0,0.0,-2.7403,-2.7268,-2.739,-2.7469,-2.7456,0.0,0.0,-2.9065,0.0,-2.9732,-3.0777,-3.0947,-3.1024,-3.1024,-3.1024,-3.1024,-3.1024,-3.1024,-3.1024,-3.1061,-3.1024,-3.1024,-3.1061,-3.1024,-3.1024,-3.1011,-3.0945,-3.0959,-3.0919,-3.0919,-3.071,-3.0127,-3.0032,-3.0375,-3.1422,-3.0793,-3.0144,-3.031,-2.9805,-2.9364,-4.5445,-4.4857,-4.3311,-4.2446,-4.2055,-4.1851,-4.1725,-4.1582,-4.1164,-4.0701,-4.0165,-3.9282,-3.8216,-3.7094,-3.6816,-3.6693,-3.6662,-3.6492,-3.6414,-3.6413,-3.6914,-3.7155,-3.7185,-3.7623,-3.7479,-3.6847,-3.663,-3.62,-3.5634,-3.5619,-3.5619,-3.5619,-3.5175,-3.523,-3.5793,-3.562,-3.5601,-3.5752,-3.5459,-3.5213,-3.4949,-3.4716,-3.4366,-3.3957,-3.3695,-3.3368,-3.2917,-3.2601,-3.1859,-3.0658,-3.0433,-2.9759,-2.8503,-2.8417,0.0,0.0,0.0,0.0,0.0,0.0,0.0,0.0,0.0,-2.7756,-2.7756,0.0,-2.761,0.0,-2.7523,-2.7369,-2.7214,-2.7146,0.0,0.0,-2.7079,-2.7113,-2.7092,-2.7113,-2.7113,-2.7113,-2.761,-2.8053,-2.836,-2.9272,-2.9996,-3.0283,-3.0712,-3.1024,-3.1024,-3.1024,-3.1024,-3.1024,-3.1024,-3.1024,-3.1024,-3.1024,-3.1024,-3.1024,-3.1011,-3.1024,-3.1024,-3.062,-3.0309,-3.027,-2.9967,-2.9702,-2.951,-2.9483,-2.9558,-2.9868,-2.9799,-2.9643,-2.9456,-2.9375,-2.9313,-4.5148,-4.4354,-4.349,-4.2588,-4.1671,-4.172,-4.167,-4.1521,-4.1122,-4.0668,-4.0166,-3.9056,-3.7923,-3.6812,-3.6458,-3.6258,-3.6273,-3.6163,-3.6116,-3.6115,-3.6624,-3.6877,-3.6892,-3.7189,-3.7074,-3.6598,-3.6313,-3.5932,-3.5519,-3.5392,-3.5374,-3.5374,-3.5148,-3.518,-3.5394,-3.5347,-3.5332,-3.5332,-3.5115,-3.4865,-3.4597,-3.4264,-3.3908,-3.3444,-3.3178,-3.2664,-3.1949,-3.1842,-3.1121,-2.9745,-2.963,-2.91,-2.7928,-2.7842,-2.7709,0.0,0.0,0.0,0.0,0.0,0.0,0.0,0.0,0.0,0.0,0.0,-2.6905,0.0,-2.6918,-2.6952,-2.7069,-2.7094,-2.7059,-2.7015,-2.7072,-2.6958,-2.6696,-2.6692,-2.676,-2.6841,-2.7246,-2.7618,-2.7958,-2.8679,-2.9256,-2.9548,-2.9897,-3.0325,-3.0882,-3.1024,-3.1024,-3.1024,-3.1024,-3.1024,-3.1024,-3.1024,-3.0895,-3.066,-3.0607,-3.0542,-3.0281,-2.9967,-2.9745,-2.9732,-2.9497,-2.9218,-2.8948,-2.8869,-2.8852,-2.859,-2.8607,-2.8718,-2.8836,-2.8799,-2.8677,-4.4708,-4.3416,-4.3192,-4.2252,-4.0873,-4.1068,-4.1088,-4.0953,-4.0593,-4.0289,-3.9947,-3.8664,-3.7667,-3.691,-3.6351,-3.6001,-3.5941,-3.5957,-3.5941,-3.5955,-3.6353,-3.6541,-3.6526,-3.6424,-3.6357,-3.6327,-3.5741,-3.5472,-3.5472,-3.5246,-3.5148,-3.5115,-3.4935,-3.4769,-3.4631,-3.4716,-3.4769,-3.4802,-3.465,-3.4496,-3.4278,-3.3874,-3.3423,-3.2917,-3.2704,-3.2072,-3.1003,-3.0891,-3.0179,-2.8731,-2.8597,-2.8171,-2.7273,-2.7201,-2.71,0.0,-2.6726,0.0,0.0,0.0,0.0,0.0,0.0,0.0,0.0,-2.6325,-2.6293,-2.6258,-2.6397,-2.6642,-2.7128,-2.713,-2.7119,-2.7012,-2.7083,-2.6907,-2.6355,-2.6397,-2.6571,-2.6757,-2.6791,-2.7145,-2.7803,-2.7975,-2.8338,-2.8866,-2.9096,-2.9544,-3.0479,-3.0699,-3.0686,-3.0764,-3.0764,-3.0671,-3.066,-3.0712,-3.0542,-3.0087,-2.9983,-2.9813,-2.9454,-2.9284,-2.9157,-2.9157,-2.9087,-2.883,-2.836,-2.8268,-2.8111,-2.7706,-2.7594,-2.7805,-2.8302,-2.8218,-2.798,-4.3971,-4.3463,-4.2222,-4.1495,-4.1148,-4.0506,-4.0281,-4.037,-4.0207,-3.9762,-3.9211,-3.8765,-3.7892,-3.6776,-3.6508,-3.6097,-3.5602,-3.5587,-3.5587,-3.5602,-3.5689,-3.5716,-3.5716,-3.5684,-3.5699,-3.5684,-3.5386,-3.5246,-3.5261,-3.5049,-3.4916,-3.4798,-3.4582,-3.4414,-3.4196,0.0,0.0,0.0,-3.4059,-3.3819,-3.3536,-3.3108,-3.2704,-3.2386,-3.2132,0.0,-3.0599,-3.0365,-2.9633,-2.8304,-2.8135,0.0,0.0,0.0,0.0,0.0,0.0,0.0,0.0,0.0,0.0,0.0,-2.5329,-2.5476,-2.6106,-2.6468,-2.6673,-2.671,-2.671,-2.6746,-2.6843,-2.688,-2.6855,-2.6867,-2.6867,-2.6806,-2.671,-2.6895,-2.7079,-2.7079,-2.7384,-2.7628,-2.7788,-2.8482,-2.878,-2.8586,-2.9014,-2.9338,-2.9372,-2.9568,-2.9627,-2.9637,-2.9693,-2.9627,-2.9588,-2.9689,-2.9666,-2.9444,-2.9444,-2.9379,-2.9222,-2.8865,-2.859,-2.8577,-2.8164,-2.7842,-2.7719,-2.7693,-2.7659,-2.7516,-2.7503,-2.7529,-2.77,-2.7768,-2.7809,-4.2987,0.0,-4.1488,-4.0908,0.0,-4.0061,-3.9839,-3.9824,-3.9839,-3.9602,-3.9169,-3.8387,-3.7691,-3.6982,-3.6315,-3.5818,-3.5504,-3.5489,-3.5489,-3.5489,-3.5489,-3.5489,-3.5489,-3.5489,-3.5424,-3.5359,-3.5261,-3.5129,-3.4964,-3.4735,-3.4501,-3.423,-3.4074,-3.3868,-3.3563,-3.3283,-3.3318,-3.3701,-3.3514,-3.3269,-3.3002,-3.2646,-3.23,-3.19,0.0,0.0,0.0,0.0,0.0,0.0,0.0,0.0,0.0,0.0,0.0,-2.5921,-2.5523,-2.5276,-2.5123,-2.4623,-2.4378,-2.4545,-2.4438,-2.4801,-2.5782,-2.6066,-2.6218,-2.6206,-2.6206,-2.6323,-2.6558,-2.6581,-2.6632,-2.6593,-2.667,-2.6665,-2.6429,-2.6598,-2.6786,-2.6911,-2.7073,-2.7223,-2.7297,-2.7829,-2.8126,-2.7951,-2.8097,-2.8314,-2.8321,-2.8773,-2.9155,-2.9274,-2.931,-2.9287,-2.931,-2.9274,-2.9131,-2.8935,-2.883,-2.8699,-2.8464,-2.8177,-2.7954,-2.7941,-2.7673,-2.7503,-2.7503,-2.7503,-2.7503,-2.7503,-2.7503,-2.7503,-2.7503,-2.759,-2.7689,-4.191,-4.0873,-4.0767,-4.0317,-3.9661,-3.9661,-3.9478,-3.923,0.0,0.0,0.0,-3.7958,-3.7345,-3.718,-3.6148,-3.5609,-3.5504,-3.5489,-3.5489,-3.5489,-3.5489,-3.5489,-3.5504,-3.5472,-3.5359,-3.518,-3.5115,-3.4916,-3.4597,-3.438,-3.4074,-3.3667,-3.3507,-3.3227,-3.281,-3.2632,-3.2704,-3.2952,-3.2895,-3.2753,-3.2561,-3.2228,-3.1863,-3.1482,-3.0545,-2.9715,-2.8977,-2.8222,-2.7436,-2.6683,-2.638,-2.6198,-2.6062,-2.5641,-2.543,-2.5394,-2.4874,-2.4576,-2.454,-2.4057,-2.3674,-2.3494,-2.3694,-2.4244,-2.5224,-2.5392,-2.5483,-2.5563,-2.5625,-2.5869,-2.64,-2.6445,-2.6445,-2.6445,-2.6577,-2.6484,-2.6115,-2.6229,-2.6507,-2.6653,-2.6789,-2.6818,-2.7045,-2.7286,-2.7366,-2.7383,-2.7397,-2.7206,-2.7485,-2.81,-2.8598,-2.8786,-2.8734,-2.8873,-2.8948,-2.8908,-2.8765,-2.8307,-2.8229,-2.8059,-2.7646,-2.7503,-2.7503,-2.7555,-2.7503,-2.7503,-2.7503,-2.7503,-2.7503,-2.7503,-2.7503,-2.7503,-2.7503,-2.7503,-2.7556,-4.0835,-4.0426,-3.9871,-3.9535,-3.946,-3.9445,-3.9116,-3.8542,-3.8562,-3.8562,-3.8482,-3.7734,-3.712,-3.6645,-3.6417,-3.6043,-3.5504,-3.5489,-3.5489,0.0,-3.5489,-3.5489,-3.5504,-3.5326,-3.5228,-3.518,-3.475,-3.4399,-3.4162,-3.3868,-3.3507,-3.3129,-3.2917,-3.2574,-3.2109,-3.2036,-3.1963,-3.1853,-3.2169,-3.2205,-3.2023,-3.1606,-3.1323,-3.1073,-3.0251,-2.951,-2.8774,-2.7855,-2.7087,-2.6452,-2.5978,-2.5641,-2.5418,-2.5052,-2.4767,-2.4634,-2.425,-2.4043,-2.3995,-2.3446,-2.3149,-2.318,-2.3552,-2.3906,-2.4057,-2.4592,-2.5093,-2.5443,-2.5625,-2.6004,-2.6494,-2.6539,-2.6517,-2.6562,-2.6603,-2.658,-2.6467,-2.666,-2.6852,-2.7031,-2.7261,-2.7399,-2.7552,-2.7814,-2.777,-2.7463,-2.7545,-2.7692,-2.7338,-2.7278,-2.737,-2.7514,-2.7582,-2.765,-2.7834,-2.7764,-2.779,-2.7646,-2.7659,-2.7659,-2.7529,-2.7503,-2.7503,-2.7503,-2.7503,-2.7503,-2.7503,-2.7503,-2.7503,-2.7503,-2.7503,-2.7503,-2.749,-2.7477,-2.7497,-4.0261,-3.9858,-3.9508,-3.9388,-3.9394,-3.902,-3.8676,-3.8317,-3.7644,-3.7569,-3.7778,-3.7195,-3.6746,-3.6462,-3.6118,-3.5804,-3.5489,-3.5489,-3.5489,-3.5504,-3.5407,-3.5326,-3.5294,-3.5063,-3.4865,-3.475,-3.4298,-3.3937,-3.366,-3.3403,-3.3037,-3.2574,-3.2264,-3.1986,-3.1743,-3.1757,-3.1619,-3.1434,-3.173,-3.1767,-3.1582,-3.1286,-3.1061,-3.0836,-2.9585,-2.8727,-2.8364,-2.7174,-2.6355,-2.6002,-2.5523,-2.5194,-2.4969,-2.4515,-2.4202,-2.4007,-2.3641,-2.3361,-2.3261,-2.2777,-2.2525,-2.2569,-2.2643,-2.2724,-2.2694,-2.3655,-2.44,-2.4749,-2.4901,-2.518,-2.5776,-2.5831,-2.5931,-2.6207,-2.6313,-2.6365,-2.6396,-2.6603,-2.6768,-2.688,-2.6951,-2.7044,-2.7179,-2.7452,-2.7574,-2.7322,-2.7584,-2.7633,-2.714,-2.6935,-2.6895,-2.7088,-2.7146,-2.7214,-2.7369,-2.7403,-2.7436,-2.7469,-2.7503,-2.7503,-2.7503,-2.7503,-2.7503,-2.7503,-2.7503,-2.7503,-2.7503,-2.7503,-2.7503,-2.7503,-2.7503,-2.7503,-2.7477,-2.7301,-2.7079,-3.9852,-3.9388,-3.9388,-3.9313,-3.9125,-3.8467,-3.8093,-3.7853,-3.6746,-3.6537,-3.6881,-3.6477,-3.6267,-3.6207,-3.5729,-3.5504,-3.5504,-3.5472,-3.5439,-3.5439,-3.5213,-3.5115,-3.5063,-3.475,-3.4515,-3.4216,-3.3731,-3.3295,-3.2912,-3.2583,-3.214,-3.1645,-3.1439,-3.1285,-3.1262,-3.1381,-3.136,-3.1235,-3.1336,-3.1336,-3.1161,-3.1024,-3.0811,-3.0406,-2.8947,-2.8024,-2.7864,-2.6511,-2.5653,-2.5382,-2.5028,-2.4731,-2.4504,-2.3995,-2.3629,-2.3446,-2.3075,-2.2777,-2.259,-2.2289,-2.2063,-2.2035,-2.1883,-2.1807,-2.1869,-2.2741,-2.3491,-2.3824,-2.4003,-2.4277,-2.4872,-2.5062,-2.5218,-2.5708,-2.5867,-2.6025,-2.6124,-2.6313,-2.6479,-2.6479,-2.652,-2.652,-2.6633,-2.691,-2.7174,-2.7319,-2.7505,-2.746,-2.7062,-2.6905,-2.6905,-2.6967,-2.6951,-2.6943,-2.7134,-2.7201,-2.7268,-2.7403,-2.7436,-2.7469,-2.7503,-2.7503,-2.7503,-2.7503,-2.7503,-2.7503,-2.7503,-2.7503,-2.7503,-2.7503,-2.7503,-2.7503,-2.7477,-2.7092,-2.6667,-3.9448,-3.9388,-3.9388,-3.905,-3.8452,-3.7793,-3.7195,-3.6656,-3.5908,-3.5609,-3.5729,-3.5624,-3.5609,-3.5594,-3.5534,-3.5504,-3.5472,-3.5294,-3.5213,-3.5195,-3.5001,-3.4868,-3.4716,-3.4515,-3.4196,-3.3754,-3.2948,-3.2235,-3.1757,-3.1068,-3.0381,-2.9945,-3.0266,-3.0434,-3.0304,-3.0786,-3.1035,-3.1011,-3.0887,-3.0773,-3.0773,-3.0736,-3.047,-2.9895,-2.8737,-2.784,-2.7261,-2.6021,-2.5158,-2.4791,-2.4467,-2.4177,-2.3934,-2.3398,-2.3075,-2.3038,-2.2665,-2.2365,-2.2187,-2.2111,-2.2025,-2.1845,-2.1807,-2.1807,-2.1807,-2.1928,-2.2272,-2.2829,-2.3246,-2.3694,-2.4194,-2.4451,-2.4738,-2.5164,-2.5281,-2.5445,-2.5817,-2.5948,-2.6032,-2.624,-2.624,-2.6313,-2.652,-2.6727,-2.7056,-2.7319,-2.74,-2.742,-2.7211,-2.7118,-2.7071,-2.7054,-2.6788,-2.6587,-2.679,-2.6909,-2.7045,-2.7235,-2.7335,-2.7369,-2.7436,-2.7503,-2.7503,-2.7503,-2.7503,-2.7503,-2.7503,-2.7503,-2.7503,-2.7503,-2.749,-2.749,-2.7438,-2.7066,-2.6569,-3.9388,-3.9388,-3.9388,-3.902,-3.8302,-3.7315,-3.6716,-3.6465,-3.5804,-3.5489,-3.5489,-3.5489,-3.5489,-3.5489,-3.5489,-3.5439,-3.5326,-3.5261,-3.5096,-3.4883,-3.4683,-3.4433,-3.4133,-3.3522,-3.3078,-3.2714,-3.1729,-3.1096,-3.0814,-3.0244,-2.9824,-2.9641,-2.9737,-2.9712,-2.9653,-2.9862,-2.9944,-2.9835,-3.0036,-2.9901,-2.9497,-3.001,-3.0037,-2.9315,-2.8226,-2.7287,-2.6565,-2.5469,-2.4683,-2.4383,-2.3922,-2.3567,-2.3372,-2.2889,-2.259,-2.2478,-2.2176,-2.2035,-2.1911,-2.1911,-2.1883,-2.1807,-2.1807,-2.1807,-2.1807,-2.1807,-2.1928,-2.2189,-2.2461,-2.2881,-2.3474,-2.3716,-2.4028,-2.4509,-2.4719,-2.4956,-2.5445,-2.5522,-2.5609,-2.5966,-2.6032,-2.6063,-2.6188,-2.6354,-2.6603,-2.6921,-2.7074,-2.7134,-2.7059,-2.6913,-2.6831,-2.6845,-2.652,-2.6493,-2.677,-2.6697,-2.6777,-2.693,-2.7134,-2.7335,-2.7369,-2.7469,-2.7503,-2.7503,-2.7503,-2.7503,-2.7503,-2.7503,-2.7503,-2.7503,-2.7464,-2.7411,-2.7105,-2.6844,-2.6452,-3.9388,-3.9394,-3.923,-3.8646,-3.7793,-3.6896,-3.6372,-3.6178,-3.5714,-3.5489,-3.5504,-3.5439,-3.5407,-3.5439,-3.5392,-3.5294,-3.5115,-3.5016,-3.4762,-3.4397,-3.4071,-3.3681,-3.3112,-3.2444,-3.1934,-3.1515,-3.0644,-3.0005,-2.9699,-2.9262,-2.9021,-2.9026,-2.9053,-2.9061,-2.9087,-2.9205,-2.9203,-2.9051,-2.9305,-2.9038,-2.8516,-2.8975,-2.9076,-2.8462,-2.7545,-2.6637,-2.5885,-2.4928,-2.4236,-2.3861,-2.3457,-2.3113,-2.2852,-2.2515,-2.2225,-2.2035,-2.1883,-2.1807,-2.1807,-2.1807,-2.1807,-2.1807,-2.1807,-2.1807,-2.1807,-2.1807,-2.1807,-2.1818,-2.1911,-2.2289,-2.2723,-2.3001,-2.3358,-2.3895,-2.4122,-2.4418,-2.5076,-2.5215,-2.5371,-2.5797,-2.5948,-2.5948,-2.599,-2.6157,-2.6365,-2.6603,-2.6715,-2.6809,-2.6787,-2.6655,-2.6537,-2.6714,-2.6495,-2.6444,-2.6773,-2.6828,-2.6681,-2.6747,-2.7062,-2.725,-2.7232,-2.7302,-2.7403,-2.7369,-2.7436,-2.7469,-2.7503,-2.7503,-2.7503,-2.7503,-2.7477,-2.7385,-2.7144,-2.6935,-2.6674,-3.9388,-3.9305,-3.8706,-3.7734,-3.6615,-3.6492,-3.6118,-3.5609,-3.5519,-3.5504,-3.5472,-3.5294,-3.5213,-3.518,-3.5195,-3.5082,-3.4868,-3.4568,-3.4143,-3.3535,-3.3064,-3.2373,-3.1608,-3.1352,-3.0983,-3.0487,-2.9828,-2.8986,-2.806,-2.7754,-2.7568,-2.7667,-2.8211,-2.8425,-2.849,-2.8922,-2.9164,-2.8847,-2.8615,-2.8303,-2.8035,-2.7669,-2.742,-2.7199,-2.6626,-2.5884,-2.5101,-2.4501,-2.3861,-2.3075,-2.3001,-2.2804,-2.2478,-2.2214,-2.2025,-2.1845,-2.1807,-2.1807,-2.1807,-2.1807,-2.1807,-2.1807,-2.1807,-2.1807,-2.1807,-2.1807,-2.1807,-2.1807,-2.1807,-2.1953,-2.2174,-2.2416,-2.2745,-2.3294,-2.3419,-2.3935,-2.5043,-2.5098,-2.5393,-2.5775,-2.5895,-2.5937,-2.6157,-2.6199,-2.6271,-2.6479,-2.6603,-2.6603,-2.655,-2.6547,-2.6595,-2.671,-2.6582,-2.6429,-2.664,-2.6758,-2.6932,-2.6989,-2.7051,-2.7211,-2.7109,-2.7058,-2.7198,-2.7299,-2.7385,-2.7452,-2.7475,-2.7503,-2.7469,-2.7469,-2.7503,-2.7372,-2.7268,-2.7398,-2.719,-3.8632,-3.8078,-3.7434,-3.6896,-3.6462,-3.6058,-3.5714,-3.5504,-3.5489,-3.5439,-3.5326,-3.5228,-3.5016,-3.4668,-3.4683,-3.465,-3.4534,-3.4196,-3.3579,-3.2819,-3.2458,-3.1796,-3.0807,-3.0355,-2.9895,-2.943,-2.8766,-2.812,-2.7696,-2.7536,-2.7503,-2.7516,-2.7686,-2.7837,-2.7842,-2.7931,-2.7924,-2.7721,-2.77,-2.7371,-2.6753,-2.6493,-2.6115,-2.5512,-2.5607,-2.5218,-2.4328,-2.373,-2.3298,-2.3038,-2.2628,-2.2365,-2.2214,-2.2035,-2.1883,-2.1807,-2.1807,-2.1807,-2.1807,-2.1807,-2.1807,-2.1807,-2.1807,-2.1807,-2.1807,-2.1807,-2.1807,-2.1807,-2.1807,-2.1845,-2.1911,-2.2101,-2.2326,-2.2501,-2.2717,-2.3178,-2.4046,-2.4446,-2.4849,-2.5521,-2.5822,-2.5937,-2.5979,-2.6032,-2.6074,-2.6104,-2.6146,-2.6199,-2.6146,-2.6146,-2.6229,-2.6373,-2.6363,-2.6348,-2.6565,-2.6685,-2.6827,-2.6979,-2.7115,-2.7383,-2.7399,-2.7523,-2.7703,-2.7418,-2.7467,-2.7404,-2.7408,-2.7398,-2.7406,-2.7335,-2.7369,-2.7436,-2.749,-2.7469,-2.7411,-3.7891,-3.7105,-3.6671,-3.6357,-3.6118,-3.5699,-3.5472,-3.5407,-3.5407,-3.5279,-3.5115,-3.4983,-3.4633,-3.4138,-3.3859,-3.3628,-3.3465,-3.3357,-3.2744,-3.1646,-3.1382,-3.0705,-2.9794,-2.9274,-2.8899,-2.8578,-2.8,-2.7623,-2.7536,-2.7503,-2.7503,-2.7503,-2.7503,-2.7503,-2.7436,-2.7335,-2.7167,-2.6918,-2.6829,-2.6431,-2.5691,-2.5457,-2.5009,-2.4376,-2.4436,-2.4263,-2.3615,-2.3187,-2.2889,-2.2665,-2.2327,-2.2063,-2.1987,-2.1883,-2.1807,-2.1807,-2.1807,-2.1807,-2.1807,-2.1807,-2.1807,-2.1807,-2.1807,-2.1807,-2.1807,-2.1807,-2.1807,-2.1807,-2.1807,-2.1807,-2.1807,-2.1911,-2.2035,-2.2132,-2.2351,-2.2868,-2.3671,-2.4116,-2.4658,-2.5282,-2.5549,-2.5675,-2.577,-2.578,-2.5822,-2.5906,-2.5895,-2.5895,-2.5895,-2.5895,-2.5948,-2.6074,-2.6188,-2.6268,-2.6416,-2.656,-2.6671,-2.6801,-2.7012,-2.7341,-2.7531,-2.778,-2.7864,-2.761,-2.7429,-2.7357,-2.7329,-2.7297,-2.7212,-2.7164,-2.7167,-2.7248,-2.7335,-2.7403,-2.7371,-3.7229,-3.654,-3.651,-3.6103,-3.5609,-3.5412,-3.5314,-3.5172,-3.5062,-3.486,-3.4589,-3.4451,-3.392,-3.3378,-3.2743,-3.2115,-3.1715,-3.2033,-3.1514,-3.0237,-2.9838,-2.9246,-2.8462,-2.8331,-2.8093,-2.7868,-2.7603,-2.749,-2.7503,-2.7503,-2.7503,-2.7503,-2.749,-2.7436,-2.7315,-2.7248,-2.6952,-2.6487,-2.6134,-2.5642,-2.5028,-2.4513,-2.4052,-2.3641,-2.3305,-2.3119,-2.3001,-2.2964,-2.2703,-2.2214,-2.2111,-2.1997,-2.1845,-2.1807,-2.1807,-2.1807,-2.1807,-2.1807,-2.1807,-2.1807,-2.1807,-2.1807,-2.1807,-2.1807,-2.1807,-2.1807,-2.1807,-2.1807,-2.1807,-2.1807,-2.1807,-2.1859,-2.1994,-2.2126,-2.2499,-2.3019,-2.3687,-2.4234,-2.4711,-2.5147,-2.5285,-2.5327,-2.5506,-2.5559,-2.5644,-2.577,-2.5812,-2.5812,-2.577,-2.577,-2.5853,-2.5906,-2.5948,-2.5979,-2.6188,-2.6381,-2.6529,-2.6668,-2.6892,-2.7125,-2.721,-2.7358,-2.7525,-2.7346,-2.7275,-2.7199,-2.7131,-2.7097,-2.7009,-2.6974,-2.7032,-2.7037,-2.7113,-2.7201,-2.7302,-3.6604,-3.5952,-3.5869,-3.5699,-3.5412,-3.4852,-3.4562,-3.4456,-3.3959,-3.353,-3.3226,-3.3028,-3.2651,-3.2146,-3.1724,-3.1054,-3.0196,-3.03,-3.0096,-2.9662,-2.9402,-2.8812,-2.8066,-2.7921,-2.7789,-2.7623,-2.7536,-2.7503,-2.7503,-2.7503,-2.7503,-2.7503,-2.7403,-2.7335,-2.7268,-2.6905,-2.6517,-2.622,-2.5616,-2.5064,-2.4611,-2.3959,-2.3446,-2.3187,-2.2777,-2.2515,-2.2402,-2.2375,-2.2289,-2.2101,-2.1959,-2.1845,-2.1807,-2.1807,-2.1807,-2.1807,-2.1807,-2.1807,-2.1807,-2.1807,-2.1807,-2.1807,-2.1807,-2.1807,-2.1807,-2.1807,-2.1807,-2.1807,-2.1807,-2.1807,-2.1859,-2.2108,-2.2291,-2.2361,-2.2496,-2.2972,-2.3803,-2.4367,-2.484,-2.5158,-2.52,-2.5242,-2.5295,-2.5338,-2.538,-2.5422,-2.5454,-2.5464,-2.5454,-2.5454,-2.5411,-2.5422,-2.5506,-2.5591,-2.5717,-2.5832,-2.5898,-2.6196,-2.6477,-2.6795,-2.6867,-2.7015,-2.714,-2.7192,-2.7086,-2.6998,-2.6967,-2.6907,-2.6867,-2.6698,-2.6639,-2.6732,-2.6845,-2.6897,-2.693,-3.6192,-3.5688,-3.5636,-3.5389,-3.5068,-3.4431,-3.4023,-3.3691,-3.3088,-3.2613,-3.2338,-3.2112,-3.163,-3.1068,-3.0729,-3.0066,-2.9217,-2.9058,-2.8945,-2.8879,-2.8765,-2.8319,-2.7749,-2.7676,-2.761,-2.7523,-2.7503,-2.7503,-2.7503,-2.7503,-2.7503,-2.7403,-2.7335,-2.7167,-2.6952,-2.653,-2.6173,-2.5721,-2.5123,-2.4611,-2.4105,-2.353,-2.3113,-2.2852,-2.2515,-2.2262,-2.2101,-2.2025,-2.1987,-2.1959,-2.1845,-2.1807,-2.1807,-2.1807,-2.1807,-2.1807,-2.1807,-2.1807,-2.1807,-2.1807,-2.1807,-2.1807,-2.1807,-2.1807,-2.1807,-2.1807,-2.1807,-2.1807,-2.1807,-2.1807,-2.1869,-2.2211,-2.2542,-2.276,-2.2946,-2.3329,-2.4054,-2.4481,-2.4754,-2.4871,-2.4914,-2.4988,-2.5073,-2.5073,-2.5115,-2.52,-2.52,-2.52,-2.52,-2.5242,-2.52,-2.52,-2.5285,-2.5327,-2.5242,-2.5285,-2.5285,-2.5663,-2.6016,-2.6345,-2.6601,-2.6811,-2.7007,-2.7064,-2.7041,-2.689,-2.6798,-2.6866,-2.684,-2.6603,-2.6296,-2.6323,-2.641,-2.6386,-2.6465,-3.5961,-3.5691,-3.5614,-3.508,-3.4459,-3.412,-3.3528,-3.2926,-3.2436,-3.2046,-3.1736,-3.1326,-3.0839,-3.0188,-2.966,-2.911,-2.8584,-2.831,-2.8093,-2.7967,-2.7855,-2.7716,-2.757,-2.7536,-2.7536,-2.7503,-2.7503,-2.7503,-2.7503,-2.7469,-2.7436,-2.7335,-2.7188,-2.6952,-2.6496,-2.6233,-2.5699,-2.5052,-2.4658,-2.4152,-2.3604,-2.315,-2.2852,-2.2665,-2.2289,-2.2063,-2.2035,-2.1921,-2.1807,-2.1807,-2.1807,-2.1807,-2.1807,-2.1807,-2.1807,-2.1807,-2.1807,-2.1807,-2.1807,-2.1807,-2.1807,-2.1807,-2.1807,-2.1807,-2.1807,-2.1807,-2.1807,-2.1807,-2.1807,-2.1828,-2.1942,-2.2315,-2.277,-2.3236,-2.3619,-2.4043,-2.4404,-2.4487,-2.4583,-2.454,-2.454,-2.4583,-2.4861,-2.4861,-2.4946,-2.5031,-2.5073,-2.5073,-2.5073,-2.5031,-2.5115,-2.5115,-2.5031,-2.4988,-2.4956,-2.4956,-2.4999,-2.5126,-2.5506,-2.5832,-2.6155,-2.6404,-2.661,-2.6707,-2.6821,-2.6685,-2.6639,-2.6639,-2.6484,-2.6141,-2.5978,-2.5985,-2.5935,-2.5918,-2.5947,-3.54,-3.5247,-3.4529,-3.4105,-3.3787,-3.2986,-3.2444,-3.2022,-3.1139,-3.0651,-3.0217,-2.9702,-2.943,-2.9039,-2.8681,-2.8311,-2.806,-2.7921,-2.7756,-2.759,-2.7577,-2.7556,-2.7503,-2.7503,-2.7503,-2.7503,-2.7503,-2.7503,-2.7503,-2.7403,-2.7335,-2.7281,-2.685,-2.6543,-2.6233,-2.5664,-2.5099,-2.4622,-2.4116,-2.3641,-2.3187,-2.2777,-2.2478,-2.2252,-2.2025,-2.1883,-2.1873,-2.1845,-2.1807,-2.1807,-2.1807,-2.1807,-2.1807,-2.1807,-2.1807,-2.1807,-2.1807,-2.1807,-2.1807,-2.1807,-2.1807,-2.1807,-2.1807,-2.1807,-2.1807,-2.1807,-2.1807,-2.1807,-2.1807,-2.1963,-2.2294,-2.2718,-2.3308,-2.4033,-2.4208,-2.4342,-2.4456,-2.4507,-2.4507,-2.4507,-2.4507,-2.455,-2.4583,-2.4625,-2.4658,-2.47,-2.47,-2.4711,-2.4786,-2.4743,-2.4796,-2.4711,-2.4668,-2.4668,-2.4668,-2.4668,-2.4668,-2.4711,-2.4956,-2.52,-2.5496,-2.5737,-2.5915,-2.6071,-2.6265,-2.6222,-2.6244,-2.6266,-2.6001,-2.5716,-2.5589,-2.5522,-2.5464,-2.5432,-2.5421,-3.511,-3.4713,-3.4091,-3.3608,-3.3216,-3.2361,-3.1778,-3.1257,-3.0391,-2.9758,-2.9352,-2.8926,-2.8605,-2.8373,-2.8099,-2.7934,-2.7822,-2.7723,-2.7623,-2.7523,-2.7503,-2.7503,-2.7503,-2.7503,-2.7503,-2.7503,-2.7503,-2.7469,-2.7403,-2.7335,-2.7188,-2.6884,-2.653,-2.6117,-2.5652,-2.5135,-2.4503,-2.4007,-2.3556,-2.315,-2.274,-2.244,-2.2252,-2.2063,-2.1921,-2.1807,-2.1807,-2.1807,-2.1807,-2.1807,-2.1807,-2.1807,-2.1807,-2.1807,-2.1807,-2.1807,-2.1807,-2.1807,-2.1807,-2.1807,-2.1807,-2.1807,-2.1807,-2.1807,-2.1807,-2.1807,-2.1807,-2.1807,-2.1973,-2.2221,-2.2522,-2.307,-2.3753,-2.4301,-2.4507,-2.4507,-2.4507,-2.4507,-2.4507,-2.4507,-2.4507,-2.4507,-2.4507,-2.4507,-2.4507,-2.4507,-2.454,-2.454,-2.454,-2.4507,-2.4507,-2.4507,-2.4507,-2.454,-2.4583,-2.4583,-2.4583,-2.4583,-2.4625,-2.4871,-2.5073,-2.5242,-2.5369,-2.5591,-2.5695,-2.5788,-2.5793,-2.5807,-2.5628,-2.5403,-2.5184,-2.514,-2.5146,-2.5073,-2.5038,-3.4817,-3.4086,-3.3922,-3.3364,-3.2629,-3.2109,-3.1469,-3.0745,-3.0083,-2.9512,-2.9053,-2.8683,-2.836,-2.8079,-2.7855,-2.7743,-2.7756,-2.759,-2.7536,-2.7503,-2.7503,-2.7503,-2.7503,-2.7503,-2.7503,-2.7503,-2.7503,-2.739,-2.7302,-2.7235,-2.6918,-2.6496,-2.6186,-2.5664,-2.5064,-2.4575,-2.4007,-2.3409,-2.3075,-2.2777,-2.244,-2.2214,-2.2111,-2.2035,-2.1883,-2.1807,-2.1807,-2.1807,-2.1807,-2.1807,-2.1807,-2.1807,-2.1807,-2.1807,-2.1807,-2.1807,-2.1807,-2.1807,-2.1807,-2.1807,-2.1807,-2.1807,-2.1807,-2.1807,-2.1807,-2.1807,-2.1807,-2.1807,-2.2221,-2.2501,-2.2853,-2.3474,-2.4043,-2.4425,-2.4507,-2.4507,-2.4507,-2.4507,-2.4507,-2.4507,-2.4507,-2.4507,-2.4507,-2.4507,-2.4507,-2.4507,-2.4507,-2.4507,-2.4507,-2.4507,-2.4507,-2.4507,-2.4507,-2.4507,-2.4507,-2.4507,-2.4507,-2.455,-2.455,-2.4668,-2.4871,-2.5031,-2.5073,-2.5158,-2.5285,-2.5316,-2.5295,-2.5261,-2.5227,-2.5198,-2.504,-2.5072,-2.5031,-2.4853,-2.4788,-3.3767,-3.3525,-3.2861,-3.2416,-3.2095,-3.1661,-3.1161,-3.0612,-2.9929,-2.9355,-2.8849,-2.8425,-2.8099,-2.7855,-2.7643,-2.7556,-2.759,-2.7536,-2.7503,-2.7503,-2.7503,-2.7503,-2.7503,-2.7503,-2.7503,-2.7469,-2.7403,-2.7335,-2.7235,-2.685,-2.6496,-2.6186,-2.5581,-2.5064,-2.4586,-2.3959,-2.3446,-2.3038,-2.2703,-2.244,-2.2225,-2.2101,-2.2035,-2.1883,-2.1807,-2.1807,-2.1807,-2.1807,-2.1807,-2.1807,-2.1807,-2.1807,-2.1807,-2.1807,-2.1807,-2.1807,-2.1807,-2.1807,-2.1807,-2.1807,-2.1807,-2.1807,-2.1807,-2.1807,-2.1807,-2.1807,-2.1807,-2.189,-2.2232,-2.2801,-2.3474,-2.4053,-2.4321,-2.4476,-2.4507,-2.4507,-2.4507,-2.4507,-2.4507,-2.4507,-2.4507,-2.4507,-2.4507,-2.4507,-2.4507,-2.4507,-2.4507,-2.4507,-2.4507,-2.4507,-2.4507,-2.4507,-2.4507,-2.4507,-2.4507,-2.4507,-2.4507,-2.4507,-2.4507,-2.4507,-2.4711,-2.4786,-2.4786,-2.4828,-2.4871,-2.4871,-2.4946,-2.5073,-2.5125,-2.5018,-2.4921,-2.4913,-2.4889,-2.4658,-2.4679,-3.3213,-3.2906,-3.2384,-3.2107,-3.194,-3.1481,-3.1043,-3.0522,-2.9882,-2.9243,-2.8702,-2.8276,-2.7934,-2.7656,-2.7556,-2.7503,-2.7503,-2.7503,-2.7503,-2.7503,-2.7503,-2.7503,-2.7503,-2.7503,-2.7503,-2.7456,-2.7369,-2.7235,-2.6918,-2.653,-2.607,-2.5629,-2.5064,-2.4539,-2.408,-2.3446,-2.3038,-2.2703,-2.2402,-2.2187,-2.1997,-2.1959,-2.1911,-2.1807,-2.1807,-2.1807,-2.1807,-2.1807,-2.1807,-2.1807,-2.1807,-2.1807,-2.1807,-2.1807,-2.1807,-2.1807,-2.1807,-2.1807,-2.1807,-2.1807,-2.1807,-2.1807,-2.1807,-2.1807,-2.1807,-2.1807,-2.1942,-2.2159,-2.2594,-2.3194,-2.4064,-2.4301,-2.4487,-2.4507,-2.4507,-2.4507,-2.4507,-2.4507,-2.4507,-2.4507,-2.4507,-2.4507,-2.4507,-2.4507,-2.4507,-2.4507,-2.4507,-2.4507,-2.4507,-2.4507,-2.4507,-2.4507,-2.4507,-2.4507,-2.4507,-2.4507,-2.4507,-2.4507,-2.4507,-2.4507,-2.4583,-2.4583,-2.454,-2.4583,-2.4658,-2.4658,-2.47,-2.4871,-2.4914,-2.4819,-2.4735,-2.4766,-2.4796,-2.4812,-2.4852,-3.2906,-3.2398,-3.2274,-3.215,-3.191,-3.1405,-3.0866,-3.0364,-2.9626,-2.8782,-2.8334,-2.7975,-2.7498,-2.7419,-2.7353,-2.7385,-2.749,-2.7503,-2.7503,-2.7503,-2.7503,-2.7503,-2.7503,-2.7503,-2.7469,-2.7469,-2.7235,-2.6998,-2.6611,-2.6198,-2.5616,-2.4993,-2.4586,-2.4116,-2.3556,-2.3113,-2.274,-2.2402,-2.2176,-2.1987,-2.1845,-2.1807,-2.1807,-2.1807,-2.1807,-2.1807,-2.1807,-2.1807,-2.1807,-2.1807,-2.1807,-2.1807,-2.1807,-2.1807,-2.1807,-2.1807,-2.1807,-2.1807,-2.1807,-2.1807,-2.1807,-2.1807,-2.1807,-2.1807,-2.1807,-2.1838,-2.2035,-2.248,-2.2956,-2.3608,-2.4373,-2.4487,-2.4497,-2.4507,-2.4507,-2.4507,-2.4507,-2.4507,-2.4507,-2.4507,-2.4507,-2.4507,-2.4507,-2.4507,-2.4507,-2.4507,-2.4507,-2.4507,-2.4507,-2.4507,-2.4507,-2.4507,-2.4507,-2.4507,-2.4507,-2.4507,-2.4507,-2.4507,-2.4507,-2.4507,-2.4507,-2.4507,-2.4507,-2.4507,-2.454,-2.454,-2.454,-2.4625,-2.4668,-2.4583,-2.4584,-2.465,-2.4808,-2.4978,-2.4957,-3.249,-3.2398,-3.237,-3.2219,-3.1862,-3.1097,-3.0347,-2.9624,-2.8577,-2.7686,-2.7166,-2.6783,-2.677,-2.6778,-2.6817,-2.7053,-2.7268,-2.7307,-2.7372,-2.7425,-2.7425,-2.7425,-2.749,-2.7469,-2.7436,-2.7268,-2.6998,-2.6611,-2.622,-2.5721,-2.517,-2.4622,-2.4189,-2.3703,-2.3187,-2.2703,-2.244,-2.2214,-2.1987,-2.1835,-2.1807,-2.1807,-2.1807,-2.1807,-2.1807,-2.1807,-2.1807,-2.1807,-2.1807,-2.1807,-2.1807,-2.1807,-2.1807,-2.1807,-2.1807,-2.1807,-2.1807,-2.1807,-2.1807,-2.1807,-2.1807,-2.1807,-2.1807,-2.1807,-2.1807,-2.1869,-2.2159,-2.2666,-2.3318,-2.3991,-2.4435,-2.4507,-2.4507,-2.4507,-2.4507,-2.4507,-2.4507,-2.4507,-2.4507,-2.4507,-2.4507,-2.4507,-2.4507,-2.4507,-2.4507,-2.4507,-2.4507,-2.4507,-2.4507,-2.4507,-2.4507,-2.4507,-2.4507,-2.4507,-2.4507,-2.4507,-2.4507,-2.4507,-2.4507,-2.4507,-2.4507,-2.4507,-2.4507,-2.4507,-2.4507,-2.4497,-2.4507,-2.4507,-2.4507,-2.454,-2.454,-2.4583,-2.4668,-2.4743,-2.4711,-3.1382,-3.1382,-3.1382,-3.1221,-3.0861,-3.0316,-2.9681,-2.9029,-2.8109,-2.7367,-2.6843,-2.6461,-2.6255,-2.624,-2.6229,-2.6412,-2.6563,-2.6615,-2.6772,-2.7,-2.7092,-2.7275,-2.7411,-2.7397,-2.7222,-2.6952,-2.6611,-2.6277,-2.599,-2.5335,-2.4743,-2.4225,-2.3787,-2.3335,-2.2889,-2.2553,-2.2289,-2.2101,-2.1921,-2.1807,-2.1807,-2.1807,-2.1807,-2.1807,-2.1807,-2.1807,-2.1807,-2.1807,-2.1807,-2.1807,-2.1807,-2.1807,-2.1807,-2.1807,-2.1807,-2.1807,-2.1807,-2.1807,-2.1807,-2.1807,-2.1807,-2.1807,-2.1769,-2.1807,-2.188,-2.2056,-2.241,-2.3143,-2.3722,-2.4302,-2.4487,-2.4497,-2.4507,-2.4507,-2.4507,-2.4507,-2.4507,-2.4507,-2.4507,-2.4507,-2.4507,-2.4507,-2.4507,-2.4507,-2.4507,-2.4507,-2.4507,-2.4507,-2.4507,-2.4507,-2.4507,-2.4507,-2.4507,-2.4507,-2.4507,-2.4507,-2.4507,-2.4507,-2.4507,-2.4507,-2.4507,-2.4507,-2.4507,-2.4507,-2.4507,-2.4507,-2.4507,-2.4507,-2.4507,-2.4507,-2.455,-2.455,-2.4507,-2.4507,-2.4507,-3.0402,-3.0402,-3.0402,-3.023,-2.9951,-2.9492,-2.9015,-2.8406,-2.7641,-2.6937,-2.6446,-2.6072,-2.5792,-2.5716,-2.5741,-2.5819,-2.578,-2.5832,-2.6151,-2.6425,-2.6517,-2.6765,-2.6954,-2.6985,-2.665,-2.6135,-2.5849,-2.5815,-2.5594,-2.5028,-2.4419,-2.3886,-2.3446,-2.3038,-2.2665,-2.2402,-2.2262,-2.2073,-2.1883,-2.1807,-2.1807,-2.1807,-2.1807,-2.1807,-2.1807,-2.1807,-2.1807,-2.1807,-2.1807,-2.1807,-2.1807,-2.1807,-2.1807,-2.1807,-2.1807,-2.1807,-2.1807,-2.1807,-2.1769,-2.1731,-2.1693,-2.1703,-2.1693,-2.1655,-2.1819,-2.214,-2.2796,-2.3618,-2.408,-2.4327,-2.4368,-2.4401,-2.4454,-2.4507,-2.4507,-2.4507,-2.4507,-2.4507,-2.4507,-2.4507,-2.4507,-2.4507,-2.4507,-2.4507,-2.4507,-2.4507,-2.4507,-2.4507,-2.4507,-2.4507,-2.4507,-2.4507,-2.4507,-2.4507,-2.4507,-2.4507,-2.4507,-2.4507,-2.4507,-2.4507,-2.4507,-2.4507,-2.4507,-2.4507,-2.4507,-2.4507,-2.4507,-2.4507,-2.4507,-2.4507,-2.4507,-2.4507,-2.4507,-2.4507,-2.4507,-3.0402,-3.0386,-3.0371,-3.023,-2.983,-2.9038,-2.8361,-2.771,-2.669,-2.5772,-2.5343,-2.5016,-2.4988,-2.5114,-2.555,-2.5702,-2.5702,-2.5636,-2.5733,-2.5903,-2.5897,-2.5913,-2.5908,-2.5799,-2.5627,-2.5242,-2.4793,-2.4789,-2.4788,-2.4554,-2.4213,-2.3666,-2.3272,-2.2852,-2.2478,-2.2289,-2.2025,-2.1883,-2.1807,-2.1807,-2.1807,-2.1807,-2.1807,-2.1807,-2.1807,-2.1807,-2.1807,-2.1807,-2.1807,-2.1807,-2.1807,-2.1807,-2.1807,-2.1807,-2.1807,-2.1807,-2.1807,-2.1769,-2.1769,-2.1655,-2.155,-2.1512,-2.1387,-2.1282,-2.1575,-2.2059,-2.2685,-2.32,-2.3685,-2.396,-2.4153,-2.4249,-2.4325,-2.4368,-2.4411,-2.4411,-2.4454,-2.4411,-2.4411,-2.4507,-2.4507,-2.4507,-2.4507,-2.4507,-2.4507,-2.4507,-2.4507,-2.4507,-2.4507,-2.4507,-2.4507,-2.4507,-2.4507,-2.4507,-2.4507,-2.4507,-2.4507,-2.4507,-2.4507,-2.4507,-2.4507,-2.4507,-2.4507,-2.4507,-2.4507,-2.4507,-2.4507,-2.4507,-2.4507,-2.4507,-2.4507,-2.4507,-2.4507,-2.4507,-2.4507,-2.9248,-2.9264,-2.9289,-2.9098,-2.8814,-2.8267,-2.7695,-2.7031,-2.6278,-2.5564,-2.5005,-2.4706,-2.4577,-2.4616,-2.4762,-2.4844,-2.4857,-2.4909,-2.5066,-2.5258,-2.5261,-2.5299,-2.5516,-2.5275,-2.4898,-2.4469,-2.4157,-2.3841,-2.3815,-2.3744,-2.3568,-2.357,-2.3102,-2.2703,-2.2402,-2.2176,-2.1987,-2.1883,-2.1807,-2.1807,-2.1807,-2.1807,-2.1807,-2.1807,-2.1807,-2.1807,-2.1807,-2.1807,-2.1807,-2.1807,-2.1807,-2.1807,-2.1807,-2.1769,-2.1769,-2.1617,-2.1617,-2.1617,-2.1617,-2.154,-2.1425,-2.1282,-2.1168,-2.1212,-2.1561,-2.1896,-2.246,-2.3123,-2.3461,-2.3667,-2.3807,-2.3904,-2.4024,-2.411,-2.41,-2.4239,-2.4282,-2.4325,-2.4325,-2.4411,-2.4507,-2.4507,-2.4507,-2.4507,-2.4507,-2.4507,-2.4507,-2.4507,-2.4507,-2.4507,-2.4507,-2.4507,-2.4507,-2.4507,-2.4507,-2.4507,-2.4507,-2.4507,-2.4507,-2.4507,-2.4507,-2.4507,-2.4507,-2.4507,-2.4507,-2.4507,-2.4507,-2.4507,-2.4507,-2.4507,-2.4507,-2.4507,-2.4507,-2.4507,-2.4507,-2.7904,-2.7919,-2.8088,-2.8005,-2.7707,-2.7295,-2.6751,-2.6191,-2.5613,-2.5162,-2.4815,-2.454,-2.4316,-2.4154,-2.4178,-2.4256,-2.4164,-2.4125,-2.436,-2.4575,-2.4641,-2.4701,-2.4684,-2.4494,-2.4103,-2.3786,-2.3325,-2.3039,-2.2751,-2.2639,-2.287,-2.3307,-2.2676,-2.2462,-2.2344,-2.2149,-2.1921,-2.1807,-2.1807,-2.1807,-2.1807,-2.1807,-2.1807,-2.1807,-2.1807,-2.1807,-2.1807,-2.1807,-2.1807,-2.1807,-2.1807,-2.1769,-2.1693,-2.1693,-2.153,-2.1425,-2.131,-2.1233,-2.1195,-2.1156,-2.1156,-2.1041,-2.0888,-2.0839,-2.1549,-2.1741,-2.2029,-2.2834,-2.3028,-2.3188,-2.3329,-2.346,-2.3537,-2.3624,-2.3711,-2.3841,-2.398,-2.4067,-2.4196,-2.4335,-2.4421,-2.4507,-2.4507,-2.4507,-2.4507,-2.4507,-2.4507,-2.4507,-2.4507,-2.4507,-2.4507,-2.4507,-2.4507,-2.4507,-2.4507,-2.4507,-2.4507,-2.4507,-2.4507,-2.4507,-2.4507,-2.4507,-2.4507,-2.4507,-2.4507,-2.4507,-2.4507,-2.4507,-2.4507,-2.4507,-2.4507,-2.4507,-2.4507,-2.4507,-2.4507,-2.6541,-2.6603,-2.7196,-2.7309,-2.7003,-2.6122,-2.547,-2.5065,-2.4464,-2.422,-2.4136,-2.4087,-2.4013,-2.4008,-2.3916,-2.3942,-2.4047,-2.4112,-2.4083,-2.408,-2.4014,-2.3906,-2.3793,-2.3459,-2.3004,-2.252,-2.2313,-2.213,-2.1893,-2.1677,-2.2067,-2.2479,-2.2027,-2.212,-2.2046,-2.1822,-2.1655,-2.159,-2.159,-2.1683,-2.1714,-2.1745,-2.1728,-2.1769,-2.1807,-2.1807,-2.1807,-2.1807,-2.1769,-2.1769,-2.1731,-2.1655,-2.154,-2.1464,-2.13,-2.1069,-2.0915,-2.076,-2.0566,-2.0644,-2.0634,-2.0518,-2.0361,-2.0349,-2.0985,-2.1191,-2.166,-2.2246,-2.2422,-2.2583,-2.2715,-2.2891,-2.2969,-2.3057,-2.3188,-2.3406,-2.359,-2.3894,-2.4024,-2.4206,-2.4335,-2.4411,-2.4464,-2.4464,-2.4507,-2.4507,-2.4507,-2.4507,-2.4507,-2.4507,-2.4507,-2.4507,-2.4507,-2.4507,-2.4507,-2.4507,-2.4507,-2.4507,-2.4507,-2.4507,-2.4507,-2.4507,-2.4507,-2.4507,-2.4507,-2.4507,-2.4507,-2.4507,-2.4507,-2.4507,-2.4507,-2.4507,-2.4507,-2.4507,-2.4507,-2.6402,-2.6402,-2.6211,-2.6214,-2.6335,-2.5837,-2.5292,-2.4785,-2.4251,-2.3701,-2.3312,-2.3211,-2.3137,-2.3095,-2.3068,-2.3054,-2.3119,-2.343,-2.3467,-2.3489,-2.3469,-2.3424,-2.315,-2.2732,-2.2309,-2.1925,-2.1624,-2.1247,-2.0948,-2.0907,-2.0996,-2.1218,-2.1282,-2.1364,-2.1375,-2.1235,-2.1057,-2.0963,-2.0984,-2.1036,-2.1362,-2.1404,-2.1518,-2.1797,-2.1807,-2.1807,-2.1807,-2.1807,-2.1731,-2.1655,-2.1617,-2.1464,-2.132,-2.1185,-2.0954,-2.0673,-2.044,-2.0167,-1.9981,-2.0098,-2.0245,-1.9841,-1.9749,-1.9916,-2.0433,-2.0586,-2.0934,-2.1397,-2.1741,-2.1919,-2.1928,-2.2185,-2.2407,-2.253,-2.2662,-2.2838,-2.3101,-2.3363,-2.3677,-2.3807,-2.4067,-2.4282,-2.4368,-2.4421,-2.4464,-2.4507,-2.4507,-2.4507,-2.4507,-2.4507,-2.4507,-2.4507,-2.4507,-2.4507,-2.4507,-2.4507,-2.4507,-2.4507,-2.4507,-2.4507,-2.4507,-2.4507,-2.4507,-2.4507,-2.4507,-2.4507,-2.4507,-2.4507,-2.4507,-2.4507,-2.4507,-2.4507,-2.4507,-2.4507,-2.4507,-2.5764,-2.5703,-2.5182,-2.5258,-2.5621,-2.5205,-2.4701,-2.4206,-2.3656,-2.3126,-2.2565,-2.2538,-2.2522,-2.2415,-2.2414,-2.2453,-2.2583,-2.2778,-2.2812,-2.2889,-2.2968,-2.2938,-2.268,-2.2354,-2.2018,-2.16,-2.1316,-2.0969,-2.052,-2.041,-2.0446,-2.0495,-2.0503,-2.0634,-2.0874,-2.0609,-2.0374,-2.0374,-2.0416,-2.0509,-2.0897,-2.0928,-2.1135,-2.1487,-2.1559,-2.1607,-2.1631,-2.1655,-2.1589,-2.1464,-2.1349,-2.1185,-2.1031,-2.0838,-2.0566,-2.0245,-1.9932,-1.9627,-1.9518,-1.9597,-1.9666,-1.9277,-1.9385,-1.9567,-1.9827,-2.0165,-2.0686,-2.1007,-2.1239,-2.1302,-2.1293,-2.1597,-2.1731,-2.1811,-2.2008,-2.2185,-2.2441,-2.275,-2.3101,-2.3363,-2.3667,-2.398,-2.4153,-2.4249,-2.4378,-2.4464,-2.4507,-2.4507,-2.4507,-2.4507,-2.4507,-2.4507,-2.4507,-2.4507,-2.4507,-2.4507,-2.4507,-2.4507,-2.4507,-2.4507,-2.4507,-2.4518,-2.4518,-2.4507,-2.4507,-2.4507,-2.4507,-2.4518,-2.4518,-2.4507,-2.4507,-2.4507,-2.4507,-2.4507,-2.4507,-2.4404,-2.4327,-2.429,-2.4551,-2.4908,-2.4048,-2.3467,-2.3091,-2.2569,-2.219,-2.1991,-2.2273,-2.2391,-2.2258,-2.2113,-2.21,-2.2152,-2.2283,-2.2306,-2.2229,-2.2344,-2.2226,-2.2088,-2.1898,-2.1694,-2.1305,-2.1106,-2.085,-2.0378,-2.0335,-2.0227,-1.9943,-1.9925,-2.0012,-2.06,-2.0461,-2.0354,-2.0343,-2.0281,-2.0327,-2.042,-2.0452,-2.07,-2.0974,-2.1098,-2.1168,-2.1363,-2.1321,-2.1237,-2.1146,-2.0954,-2.076,-2.0566,-2.0342,-1.9981,-1.9508,-1.9341,-1.9112,-1.882,-1.8962,-1.8922,-1.8843,-1.9091,-1.9382,-1.9759,-2.0139,-2.0474,-2.0799,-2.0961,-2.0997,-2.0997,-2.1042,-2.1087,-2.1186,-2.1428,-2.1607,-2.1865,-2.2176,-2.2574,-2.2838,-2.3232,-2.359,-2.3807,-2.4034,-2.4239,-2.4368,-2.4464,-2.4507,-2.4497,-2.4507,-2.4507,-2.4507,-2.4507,-2.4507,-2.4507,-2.4507,-2.4507,-2.4507,-2.4507,-2.4507,-2.4559,-2.4621,-2.46,-2.4559,-2.4735,-2.4931,-2.4745,-2.4549,-2.4631,-2.4671,-2.4538,-2.4507,-2.4507,-2.4507,-2.4507,-2.4281,-2.4297,-2.4213,-2.4246,-2.4249,-2.3773,-2.3297,-2.2822,-2.2231,-2.1701,-2.1376,-2.1504,-2.1416,-2.1314,-2.1315,-2.1367,-2.1354,-2.1615,-2.1587,-2.1383,-2.1577,-2.1638,-2.1552,-2.1397,-2.1253,-2.1057,-2.0882,-2.0658,-2.0216,-2.0216,-2.0009,-1.9747,-1.9494,-1.9398,-1.9539,-1.9554,-1.952,-1.951,-1.9541,-1.9644,-1.9969,-2.0006,-2.0193,-2.0591,-2.0524,-2.0641,-2.0927,-2.078,-2.0663,-2.0652,-2.042,-2.0138,-1.9932,-1.9715,-1.9359,-1.9042,-1.8913,-1.8554,-1.8322,-1.8313,-1.8402,-1.8577,-1.892,-1.9236,-1.9419,-1.9999,-2.0319,-2.0512,-2.0591,-2.06,-2.051,-2.0736,-2.0826,-2.0871,-2.1015,-2.1141,-2.1365,-2.1731,-2.2052,-2.222,-2.2574,-2.3144,-2.3503,-2.3634,-2.3851,-2.4067,-2.4196,-2.4368,-2.4411,-2.4454,-2.4507,-2.4507,-2.4507,-2.4507,-2.4507,-2.4507,-2.4507,-2.4507,-2.4507,-2.4507,-2.458,-2.4745,-2.49,-2.4972,-2.5233,-2.543,-2.5166,-2.4967,-2.4895,-2.481,-2.4664,-2.4481,-2.4411,-2.4454,-2.4507,-2.4281,-2.4297,-2.4172,-2.4046,-2.3882,-2.3618,-2.3209,-2.2632,-2.203,-2.1482,-2.1095,-2.101,-2.0913,-2.0788,-2.0699,-2.0699,-2.0726,-2.0887,-2.0849,-2.0663,-2.0859,-2.0827,-2.0725,-2.0854,-2.08,-2.0674,-2.0655,-2.0508,-2.0151,-2.0118,-1.9911,-1.9605,-1.9274,-1.9206,-1.917,-1.9181,-1.9181,-1.9202,-1.9253,-1.9305,-1.9458,-1.9548,-1.9679,-1.9893,-1.9936,-1.9929,-2.0086,-2.0054,-1.9883,-1.9889,-1.9743,-1.9466,-1.9256,-1.9091,-1.8843,-1.8723,-1.8482,-1.8201,-1.8072,-1.8031,-1.8152,-1.8267,-1.8843,-1.9162,-1.9307,-1.9882,-2.0183,-2.0329,-2.0292,-2.0292,-2.0337,-2.0564,-2.0564,-2.0654,-2.0645,-2.0781,-2.0961,-2.1329,-2.1517,-2.1731,-2.2008,-2.2618,-2.3101,-2.3276,-2.3416,-2.3624,-2.3884,-2.4057,-2.4229,-2.4325,-2.4378,-2.4411,-2.4454,-2.4454,-2.4454,-2.4507,-2.4507,-2.4507,-2.4538,-2.4537,-2.4786,-2.5026,-2.5233,-2.543,-2.5551,-2.563,-2.5571,-2.5443,-2.5076,-2.482,-2.4684,-2.449,-2.4341,-2.4344,-2.4362,-2.4281,-2.4276,-2.4103,-2.3925,-2.3775,-2.3516,-2.2963,-2.2208,-2.1888,-2.1496,-2.1008,-2.0997,-2.0898,-2.0724,-2.0699,-2.0674,-2.0624,-2.0576,-2.031,-2.0128,-2.0225,-2.0013,-2.002,-2.0264,-2.0197,-2.0172,-2.0158,-2.0122,-2.0074,-2.002,-1.9813,-1.9583,-1.9285,-1.9142,-1.9098,-1.9098,-1.9098,-1.9098,-1.9108,-1.9127,-1.9197,-1.9011,-1.9158,-1.9266,-1.9188,-1.9126,-1.9157,-1.9058,-1.9022,-1.8966,-1.8828,-1.8873,-1.8827,-1.8772,-1.8571,-1.8362,-1.8112,-1.8031,-1.7991,-1.7991,-1.7991,-1.8158,-1.8793,-1.9059,-1.9376,-1.9821,-2.0189,-2.0292,-2.0292,-2.0292,-2.0337,-2.0337,-2.0337,-2.0382,-2.0382,-2.0473,-2.0654,-2.0835,-2.1015,-2.1284,-2.1562,-2.2008,-2.2485,-2.2715,-2.2838,-2.3013,-2.3188,-2.3363,-2.3624,-2.4067,-2.4153,-2.4196,-2.4239,-2.4368,-2.4411,-2.4325,-2.4325,-2.4239,-2.4586,-2.4669,-2.4949,-2.5292,-2.5613,-2.5774,-2.5836,-2.5858,-2.5778,-2.5476,-2.5025,-2.4824,-2.4487,-2.4401,-2.4187,-2.4135,-2.4115,-2.4281,-2.4261,-2.4088,-2.3903,-2.3696,-2.3105,-2.2555,-2.2067,-2.1783,-2.1385,-2.0997,-2.0997,-2.0898,-2.0712,-2.0699,-2.0637,-2.0486,-2.0246,-1.999,-1.9807,-1.9603,-1.9429,-1.9419,-1.9511,-1.9456,-1.9479,-1.9482,-1.9636,-1.9616,-1.9652,-1.9672,-1.9539,-1.9191,-1.9079,-1.9056,-1.9098,-1.9065,-1.9065,-1.9065,-1.9008,-1.8908,-1.8764,-1.8772,-1.8614,-1.8424,-1.8372,-1.8321,-1.8093,-1.8119,-1.8437,-1.8208,-1.8214,-1.8519,-1.8362,-1.8161,-1.8121,-1.804,-1.7991,-1.7991,-1.7991,-1.7991,-1.8136,-1.8742,-1.9076,-1.9419,-1.9769,-2.024,-2.0246,-2.0246,-2.0201,-2.0201,-2.0155,-2.0155,-2.0155,-2.0155,-2.0246,-2.0391,-2.0482,-2.0663,-2.0835,-2.1114,-2.1428,-2.1874,-2.2043,-2.2167,-2.2309,-2.2485,-2.2662,-2.2969,-2.346,-2.3764,-2.3807,-2.3884,-2.397,-2.4013,-2.397,-2.397,-2.4034,-2.4377,-2.4774,-2.5102,-2.5474,-2.591,-2.6064,-2.5888,-2.5903,-2.5992,-2.5518,-2.4779,-2.4418,-2.4152,-2.4125,-2.4066,-2.3919,-2.3867,-2.4297,-2.4234,-2.4003,-2.3717,-2.3304,-2.27,-2.2231,-2.1912,-2.1712,-2.1361,-2.1021,-2.0997,-2.0885,-2.0712,-2.0637,-2.0562,-2.0499,-2.0105,-1.9798,-1.9512,-1.9119,-1.8937,-1.8845,-1.8872,-1.8902,-1.8895,-1.8951,-1.913,-1.9106,-1.9028,-1.902,-1.8977,-1.8846,-1.8785,-1.8761,-1.8808,-1.8898,-1.8908,-1.8875,-1.8808,-1.8674,-1.8539,-1.8269,-1.7964,-1.7725,-1.7622,-1.7502,-1.7204,-1.7352,-1.7696,-1.7497,-1.7704,-1.8021,-1.8,-1.8031,-1.804,-1.7991,-1.7991,-1.7991,-1.7991,-1.7991,-1.8179,-1.8633,-1.8939,-1.934,-1.9724,-1.9985,-2.0155,-2.011,-2.011,-2.0065,-2.0027,-2.0027,-1.9982,-1.9982,-1.9982,-2.0073,-2.0164,-2.03,-2.0428,-2.0654,-2.0934,-2.1159,-2.1329,-2.1454,-2.1633,-2.1776,-2.1963,-2.2318,-2.2847,-2.3154,-2.3319,-2.3406,-2.3537,-2.3537,-2.3567,-2.369,-2.3877,-2.4361,-2.4733,-2.5153,-2.5549,-2.5878,-2.5899,-2.5777,-2.5682,-2.545,-2.5024,-2.4418,-2.3998,-2.3595,-2.3494,-2.3445,-2.3411,-2.3439,-2.4271,-2.4166,-2.3882,-2.3355,-2.2709,-2.2356,-2.2067,-2.1807,-2.164,-2.1375,-2.1046,-2.0997,-2.0898,-2.0712,-2.0587,-2.0461,-2.0284,-1.9926,-1.9591,-1.9368,-1.8987,-1.8669,-1.8471,-1.8503,-1.8414,-1.8431,-1.8456,-1.8552,-1.8559,-1.8543,-1.8435,-1.8222,-1.827,-1.8234,-1.8189,-1.8405,-1.8448,-1.8335,-1.8435,-1.8438,-1.8269,-1.8066,-1.7769,-1.7382,-1.7097,-1.6857,-1.6639,-1.6492,-1.6395,-1.6673,-1.6902,-1.7237,-1.7562,-1.7852,-1.7948,-1.7991,-1.7991,-1.7991,-1.7991,-1.7991,-1.7991,-1.8189,-1.8465,-1.8751,-1.9149,-1.9622,-1.9898,-1.9928,-1.9891,-1.9845,-1.9808,-1.9808,-1.9808,-1.9808,-1.9808,-1.9808,-1.9808,-1.9899,-1.9936,-2.0027,-2.0164,-2.0391,-2.0482,-2.0654,-2.0744,-2.0916,-2.1006,-2.1159,-2.1517,-2.2043,-2.2353,-2.2618,-2.275,-2.2794,-2.2828,-2.2984,-2.3389,-2.3723,-2.4138,-2.467,-2.5063,-2.5411,-2.5729,-2.5459,-2.5091,-2.4875,-2.4581,-2.4104,-2.3682,-2.3228,-2.2904,-2.28,-2.2749,-2.2664,-2.2892,-2.4255,-2.4145,-2.364,-2.315,-2.2672,-2.224,-2.1949,-2.1783,-2.1544,-2.1277,-2.1046,-2.0972,-2.0873,-2.0674,-2.0524,-2.0385,-2.0067,-1.972,-1.9368,-1.9052,-1.8759,-1.8437,-1.8073,-1.8063,-1.7935,-1.7734,-1.7776,-1.7976,-1.8082,-1.8104,-1.8148,-1.8108,-1.7947,-1.7655,-1.7592,-1.7805,-1.7807,-1.7707,-1.7702,-1.7906,-1.793,-1.7657,-1.7382,-1.7072,-1.676,-1.6508,-1.6333,-1.6184,-1.627,-1.6473,-1.6515,-1.6908,-1.7471,-1.7777,-1.7965,-1.7991,-1.7991,-1.7951,-1.7951,-1.7951,-1.7919,-1.8091,-1.8389,-1.8641,-1.9018,-1.9474,-1.9729,-1.9654,-1.9671,-1.9633,-1.9587,-1.9541,-1.9533,-1.9533,-1.9533,-1.9533,-1.9533,-1.9579,-1.9579,-1.9625,-1.9716,-1.9808,-1.9891,-1.9982,-2.0027,-2.0065,-2.0155,-2.0292,-2.0527,-2.0925,-2.1374,-2.1642,-2.1909,-2.1998,-2.2033,-2.2316,-2.2657,-2.314,-2.3534,-2.4196,-2.4858,-2.4909,-2.4947,-2.4604,-2.4313,-2.3976,-2.3628,-2.3161,-2.2752,-2.2375,-2.2072,-2.1971,-2.1666,-2.1495,-2.197,-2.4172,-2.3961,-2.337,-2.2889,-2.2526,-2.217,-2.1902,-2.1688,-2.1423,-2.1204,-2.1021,-2.0972,-2.0835,-2.0599,-2.0448,-2.022,-1.9875,-1.9486,-1.9172,-1.8866,-1.8518,-1.8232,-1.7986,-1.7755,-1.7634,-1.7445,-1.7373,-1.7468,-1.7622,-1.7506,-1.7501,-1.745,-1.7153,-1.7032,-1.6959,-1.6985,-1.7071,-1.7063,-1.6947,-1.7092,-1.7394,-1.7166,-1.6855,-1.6586,-1.6412,-1.6193,-1.6105,-1.5973,-1.6015,-1.6253,-1.6458,-1.6913,-1.7424,-1.7826,-1.7965,-1.7991,-1.791,-1.787,-1.7829,-1.7789,-1.7757,-1.7927,-1.8029,-1.8184,-1.8452,-1.8901,-1.9216,-1.9219,-1.9363,-1.9387,-1.9204,-1.9158,-1.9158,-1.9158,-1.9158,-1.9158,-1.9158,-1.9158,-1.9158,-1.9204,-1.9296,-1.9471,-1.9563,-1.9716,-1.9762,-1.9808,-1.9754,-1.9754,-1.9891,-1.9936,-2.0292,-2.0564,-2.0835,-2.1024,-2.1105,-2.1454,-2.1879,-2.2418,-2.2934,-2.3575,-2.4137,-2.4147,-2.4075,-2.3678,-2.3329,-2.2979,-2.2577,-2.2224,-2.192,-2.1573,-2.1275,-2.107,-2.0763,-2.055,-2.0912,-2.3755,-2.3511,-2.3061,-2.2678,-2.2347,-2.2067,-2.1793,-2.1568,-2.1288,-2.1106,-2.101,-2.0985,-2.0787,-2.0537,-2.0271,-2.0029,-1.9708,-1.9303,-1.8999,-1.8706,-1.8422,-1.8068,-1.7822,-1.7645,-1.749,-1.7351,-1.725,-1.7145,-1.7136,-1.6977,-1.6762,-1.6459,-1.6313,-1.6277,-1.6113,-1.6158,-1.629,-1.6263,-1.6239,-1.6301,-1.6414,-1.6524,-1.6368,-1.6202,-1.6061,-1.5964,-1.5876,-1.5805,-1.5805,-1.6016,-1.6363,-1.6775,-1.7208,-1.755,-1.7802,-1.7829,-1.7708,-1.7659,-1.7619,-1.7554,-1.7473,-1.7491,-1.7513,-1.7722,-1.8027,-1.8346,-1.8656,-1.8849,-1.9037,-1.9096,-1.892,-1.8827,-1.8827,-1.8827,-1.8827,-1.8827,-1.8827,-1.8827,-1.8874,-1.8874,-1.8966,-1.9142,-1.9242,-1.9396,-1.9442,-1.9487,-1.9487,-1.9487,-1.9442,-1.935,-1.9479,-1.9563,-1.9646,-1.9837,-2.0164,-2.0637,-2.1171,-2.1763,-2.2336,-2.2921,-2.3295,-2.3176,-2.2979,-2.2686,-2.2333,-2.1979,-2.1717,-2.1412,-2.1062,-2.0814,-2.0609,-2.0403,-2.0145,-1.999,-1.999,-2.2358,-2.2438,-2.256,-2.2509,-2.2194,-2.1817,-2.1592,-2.1423,-2.1264,-2.1095,-2.0949,-2.0913,-2.0763,-2.0499,-2.0182,-1.9875,-1.9552,-1.9158,-1.8771,-1.8449,-1.8193,-1.7865,-1.7617,-1.7534,-1.7434,-1.7295,-1.7172,-1.7039,-1.6899,-1.6637,-1.6363,-1.6144,-1.5711,-1.5527,-1.5298,-1.5329,-1.5398,-1.541,-1.5569,-1.5647,-1.5832,-1.5982,-1.6149,-1.6026,-1.5929,-1.5867,-1.5805,-1.5805,-1.5699,-1.5804,-1.607,-1.6434,-1.6802,-1.7194,-1.7461,-1.7595,-1.7505,-1.7465,-1.7424,-1.7351,-1.727,-1.7294,-1.7382,-1.7518,-1.7795,-1.8093,-1.8337,-1.8446,-1.8627,-1.8834,-1.8781,-1.8735,-1.8735,-1.8735,-1.8743,-1.8781,-1.8781,-1.8781,-1.8827,-1.8827,-1.8827,-1.892,-1.892,-1.8974,-1.8928,-1.8974,-1.8974,-1.8928,-1.8843,-1.8759,-1.8713,-1.8697,-1.8689,-1.9066,-1.9541,-1.9997,-2.0501,-2.1092,-2.1601,-2.2059,-2.2273,-2.2089,-2.1928,-2.1725,-2.1369,-2.0968,-2.0712,-2.0755,-2.0447,-2.0189,-1.9983,-1.9783,-1.9576,-1.9532,-1.9628]},{"header":{"parameterUnit":"m.s-1","parameterCategory":1,"la1":31.0,"la2":29.5877,"lo1":-88.7671,"lo2":-86.6584,"dy":0.0162,"dx":0.0185,"nx":115,"ny":88,"refTime":"2023-03-06T18:00:00:Z","depth":0,"parameterNumber":3,"parameterNumberName":"V-component_of_WINDS"},"data":[0.0,0.0,0.0,0.0,0.0,0.0,0.0,0.0,0.0,0.0,0.0,0.0,0.0,0.0,0.0,0.0,0.0,0.0,0.0,0.0,0.0,0.0,0.0,0.0,0.0,0.0,0.0,0.0,0.0,0.0,0.0,0.0,0.0,0.0,0.0,0.0,0.0,0.0,0.0,0.0,0.0,0.0,0.0,0.0,0.0,0.0,0.0,0.0,0.0,0.0,0.0,0.0,0.0,0.0,0.0,0.0,0.0,0.0,0.0,0.0,0.0,0.0,0.0,0.0,0.0,0.0,0.0,0.0,0.0,0.0,0.0,0.0,0.0,0.0,0.0,0.0,0.0,0.0,0.0,0.0,0.0,0.0,0.0,0.0,0.0,0.0,0.0,0.0,0.0,0.0,0.0,0.0,0.0,0.0,0.0,0.0,0.0,0.0,0.0,0.0,0.0,0.0,0.0,0.0,0.0,0.0,0.0,0.0,0.0,0.0,0.0,0.0,0.0,0.0,0.0,0.0,0.0,0.0,0.0,0.0,0.0,0.0,0.0,0.0,0.0,0.0,0.0,0.0,0.0,0.0,0.0,0.0,0.0,0.0,0.0,0.0,0.0,0.0,0.0,0.0,0.0,0.0,0.0,0.0,0.0,0.0,0.0,0.0,0.0,0.0,0.0,0.0,0.0,0.0,0.0,0.0,0.0,0.0,0.0,0.0,0.0,0.0,0.0,0.0,0.0,0.0,0.0,0.0,0.0,0.0,0.0,0.0,0.0,0.0,0.0,0.0,0.0,0.0,0.0,0.0,0.0,0.0,0.0,0.0,0.0,0.0,0.0,0.0,0.0,0.0,0.0,0.0,0.0,0.0,0.0,0.0,0.0,0.0,0.0,0.0,0.0,0.0,0.0,0.0,0.0,0.0,0.0,0.0,0.0,0.0,0.0,0.0,0.0,0.0,0.0,0.0,0.0,0.0,0.0,0.0,0.0,0.0,0.0,0.0,0.0,0.0,0.0,0.0,0.0,0.0,0.0,0.0,0.0,0.0,0.0,0.0,0.0,0.0,0.0,0.0,0.0,0.0,0.0,0.0,0.0,0.0,0.0,0.0,0.0,0.0,0.0,0.0,0.0,0.0,0.0,0.0,0.0,0.0,0.0,0.0,0.0,0.0,0.0,0.0,0.0,0.0,0.0,0.0,0.0,0.0,0.0,0.0,0.0,0.0,0.0,0.0,0.0,0.0,0.0,0.0,0.0,0.0,0.0,0.0,0.0,0.0,0.0,0.0,0.0,0.0,0.0,0.0,0.0,0.0,0.0,0.0,0.0,0.0,0.0,0.0,0.0,0.0,0.0,0.0,0.0,0.0,0.0,0.0,0.0,0.0,0.0,0.0,0.0,0.0,0.0,0.0,0.0,0.0,0.0,0.0,0.0,0.0,0.0,0.0,0.0,0.0,0.0,0.0,0.0,0.0,0.0,0.0,0.0,0.0,0.0,0.0,0.0,0.0,0.0,0.0,0.0,0.0,0.0,0.0,0.0,0.0,0.0,0.0,0.0,0.0,0.0,0.0,0.0,0.0,0.0,0.0,0.0,0.0,0.0,0.0,0.0,0.0,0.0,0.0,0.0,0.0,0.0,0.0,0.0,0.0,0.0,0.0,0.0,0.0,0.0,0.0,0.0,0.0,0.0,0.0,0.0,0.0,0.0,0.0,0.0,0.0,0.0,0.0,0.0,0.0,0.0,0.0,0.0,0.0,0.0,0.0,0.0,0.0,0.0,0.0,0.0,0.0,0.0,0.0,0.0,0.0,0.0,0.0,0.0,0.0,0.0,0.0,0.0,0.0,0.0,0.0,0.0,0.0,0.0,0.0,0.0,0.0,0.0,0.0,0.0,0.0,0.0,0.0,0.0,0.0,0.0,0.0,0.0,0.0,0.0,0.0,0.0,0.0,0.0,0.0,0.0,0.0,0.0,0.0,0.0,0.0,0.0,0.0,0.0,0.0,0.0,0.0,0.0,0.0,0.0,0.0,0.0,0.0,0.0,0.0,0.0,0.0,0.0,0.0,0.0,0.0,0.0,0.0,0.0,0.0,0.0,0.0,0.0,0.0,0.0,0.0,0.0,0.0,0.0,0.0,0.0,0.0,0.0,0.0,0.0,0.0,0.0,0.0,0.0,0.0,0.0,0.0,0.0,0.0,0.0,0.0,0.0,0.0,0.0,0.0,0.0,0.0,0.0,0.0,0.0,0.0,0.0,0.0,0.0,0.0,0.0,0.0,0.0,0.0,0.0,0.0,0.0,0.0,0.0,0.0,0.0,0.0,0.0,0.0,0.0,0.0,0.0,0.0,0.0,0.0,0.0,0.0,0.0,0.0,0.0,0.0,0.0,0.0,0.0,0.0,0.0,0.0,0.0,0.0,0.0,0.0,0.0,0.0,0.0,0.0,0.0,0.0,0.0,0.0,0.0,0.0,0.0,0.0,0.0,0.0,0.0,0.0,0.0,0.0,0.0,0.0,0.0,0.0,0.0,0.0,0.0,0.0,0.0,0.0,0.0,0.0,0.0,0.0,0.0,0.0,0.0,0.0,0.0,0.0,0.0,0.0,0.0,0.0,0.0,0.0,0.0,0.0,0.0,0.0,0.0,0.0,0.0,0.0,0.0,0.0,0.0,0.0,0.0,0.0,0.0,0.0,0.0,0.0,0.0,0.0,0.0,0.0,0.0,0.0,0.0,0.0,0.0,0.0,0.0,0.0,0.0,0.0,0.0,0.0,0.0,0.0,0.0,0.0,0.0,0.0,0.0,0.0,0.0,0.0,0.0,0.0,0.0,0.0,0.0,0.0,0.0,0.0,0.0,0.0,0.0,0.0,0.0,0.0,0.0,0.0,0.0,0.0,0.0,0.0,0.0,0.0,0.0,0.0,0.0,0.0,0.0,0.0,0.0,0.0,0.0,0.0,0.0,0.0,0.0,0.0,0.0,0.0,0.0,0.0,0.0,0.0,0.0,0.0,0.0,0.0,0.0,0.0,0.0,0.0,0.0,0.0,0.0,0.0,0.0,0.0,0.0,0.0,0.0,0.0,0.0,0.0,0.0,0.0,0.0,0.0,0.0,0.0,0.0,0.0,0.0,0.0,0.0,0.0,0.0,0.0,0.0,0.0,0.0,0.0,0.0,0.0,0.0,0.0,0.0,0.0,0.0,0.0,0.0,0.0,0.0,0.0,0.0,0.0,0.0,0.0,0.0,0.0,0.0,0.0,0.0,0.0,0.0,0.0,0.0,0.0,0.0,0.0,0.0,0.0,0.0,0.0,0.0,0.0,0.0,0.0,0.0,0.0,0.0,0.0,0.0,0.0,0.0,0.0,0.0,0.0,0.0,0.0,0.0,0.0,0.0,0.0,0.0,0.0,0.0,0.0,0.0,0.0,0.0,0.0,0.0,0.0,0.0,0.0,0.0,0.0,0.0,0.0,0.0,0.0,0.0,0.0,0.0,0.0,0.0,0.0,0.0,0.0,0.0,0.0,0.0,0.0,0.0,0.0,0.0,0.0,0.0,0.0,0.0,0.0,0.0,0.0,0.0,0.0,0.0,0.0,0.0,0.0,0.0,0.0,0.0,0.0,0.0,0.0,0.0,0.0,0.0,0.0,0.0,0.0,0.0,0.0,0.0,0.0,0.0,0.0,0.0,0.0,0.0,0.0,0.0,0.0,0.0,0.0,0.0,0.0,0.0,0.0,0.0,0.0,0.0,0.0,0.0,0.0,0.0,0.0,0.0,0.0,0.0,0.0,0.0,0.0,0.0,0.0,0.0,0.0,0.0,0.0,0.0,0.0,0.0,0.0,0.0,0.0,0.0,0.0,0.0,0.0,0.0,0.0,0.0,0.0,0.0,0.0,0.0,0.0,0.0,0.0,0.0,0.0,0.0,0.0,0.0,0.0,0.0,0.0,0.0,0.0,0.0,0.0,0.0,0.0,0.0,0.0,0.0,0.0,0.0,0.0,0.0,0.0,0.0,0.0,0.0,0.0,0.0,0.0,0.0,0.0,0.0,0.0,0.0,0.0,0.0,0.0,0.0,0.0,0.0,0.0,0.0,0.0,0.0,0.0,0.0,0.0,0.0,0.0,0.0,0.0,0.0,0.0,0.0,0.0,0.0,0.0,0.0,0.0,0.0,0.0,0.0,0.0,0.0,0.0,0.0,0.0,0.0,0.0,0.0,0.0,0.0,0.0,0.0,0.0,0.0,0.0,0.0,0.0,0.0,0.0,0.0,0.0,0.0,0.0,1.2382,0.0,0.0,0.0,0.0,0.0,0.0,0.0,0.0,0.0,0.0,0.0,0.0,0.0,0.0,0.0,0.0,0.0,0.0,0.0,0.0,0.0,0.0,0.0,0.0,0.0,0.0,0.0,0.0,0.0,0.0,0.0,0.0,0.0,0.0,0.0,0.0,0.0,0.0,0.0,0.0,0.0,0.0,0.0,0.0,0.0,0.0,0.0,0.0,0.0,0.0,0.0,0.0,0.0,0.0,0.0,0.0,0.0,0.0,0.0,0.0,0.0,0.0,0.0,0.0,0.0,0.0,0.0,0.0,0.0,0.0,0.0,0.0,0.0,0.0,0.0,0.0,0.0,0.0,0.0,0.0,0.0,0.0,0.0,0.0,0.0,0.0,0.0,0.0,0.0,0.0,0.0,0.0,0.0,0.0,0.0,0.0,0.0,0.0,0.0,0.0,0.0,0.0,0.0,0.0,0.0,0.0,0.0,0.0,0.0,0.0,1.2562,1.2599,1.2562,1.2531,1.2509,0.0,0.0,0.0,0.0,0.0,0.0,0.0,0.0,0.0,0.0,0.0,0.0,0.0,0.0,0.0,0.0,0.0,0.0,0.0,0.0,0.0,0.0,0.0,0.0,0.0,0.0,0.0,0.0,0.0,0.0,0.0,0.0,0.0,0.0,0.0,0.0,0.0,0.0,0.0,0.0,0.0,0.0,0.0,0.0,0.0,0.0,0.0,0.0,0.0,0.0,0.0,0.0,0.0,0.0,0.0,0.0,0.0,0.0,0.0,0.0,0.0,0.0,0.0,0.0,0.0,0.0,0.0,0.0,0.0,0.0,0.0,0.0,0.0,0.0,0.0,0.0,0.0,0.0,0.0,0.0,0.0,0.0,0.0,0.0,0.0,0.0,0.0,0.0,0.0,0.0,0.0,0.0,0.0,0.0,0.0,0.0,0.0,0.0,0.0,0.0,0.0,0.0,0.0,0.0,0.0,0.0,0.0,0.0,0.0,0.0,0.0,0.0,1.2305,1.2415,1.2666,0.0,0.0,0.0,0.0,0.0,0.0,0.0,0.0,0.0,0.0,0.0,0.0,0.0,0.0,0.0,0.0,0.0,0.0,0.0,0.0,0.0,0.0,0.0,0.0,0.0,0.0,0.0,0.0,0.0,0.0,0.0,0.0,0.0,0.0,0.0,0.0,0.0,0.0,0.0,0.0,0.0,0.0,0.0,0.0,0.0,0.0,0.0,0.0,0.0,0.0,0.0,0.0,0.0,0.0,0.0,0.0,0.0,0.0,0.0,0.0,0.0,0.0,0.0,0.0,0.0,0.0,0.0,0.0,0.0,0.0,0.0,0.0,0.0,0.0,0.0,0.0,0.0,0.0,0.0,0.0,0.0,0.0,0.0,0.0,0.0,0.0,0.0,0.0,0.0,0.0,0.0,0.0,0.0,0.0,0.0,0.0,0.0,0.0,0.0,0.0,0.0,0.0,0.0,0.0,0.0,0.0,0.0,0.0,0.0,0.0,1.2305,1.2305,1.2311,0.0,1.2856,0.0,0.0,0.0,0.0,0.0,0.0,0.0,0.0,0.0,0.0,0.0,0.0,0.0,0.0,0.0,0.0,0.0,0.0,0.0,0.0,0.0,0.0,0.0,0.0,0.0,0.0,0.0,0.0,0.0,0.0,0.0,0.0,0.0,0.0,0.0,0.0,0.0,0.0,0.0,0.0,0.0,0.0,0.0,0.0,0.0,0.0,0.0,0.0,0.0,0.0,0.0,0.0,0.0,0.0,0.0,0.0,0.0,0.0,0.0,0.0,0.0,0.0,0.0,0.0,0.0,0.0,0.0,0.0,0.0,0.0,0.0,0.0,0.0,0.0,0.0,0.0,0.0,0.0,0.0,0.0,0.0,0.0,0.0,0.0,0.0,0.0,0.0,0.0,0.0,0.0,0.0,0.0,0.0,0.0,0.0,0.0,0.0,0.0,0.0,0.0,0.0,0.0,0.0,0.0,0.0,0.0,0.0,0.0,0.0,0.0,1.2385,1.2603,1.2671,1.2814,0.0,0.0,0.0,0.0,0.0,0.0,0.0,0.0,0.0,0.0,0.0,0.0,0.0,0.0,0.0,0.0,0.0,0.0,0.0,0.0,0.0,0.0,0.0,0.0,0.0,0.0,0.0,0.0,0.0,0.0,0.0,0.0,0.0,0.0,0.0,0.0,0.0,0.0,0.0,0.0,0.0,0.0,0.0,0.0,0.0,0.0,0.0,0.0,0.0,0.0,0.0,0.0,0.0,0.0,0.0,0.0,0.0,0.0,0.0,0.0,0.0,0.0,0.0,0.0,0.0,0.0,0.0,0.0,0.0,0.0,0.0,0.0,0.0,0.0,0.0,0.0,0.0,0.0,0.0,0.0,0.0,0.0,0.0,0.0,0.0,0.0,0.0,0.0,0.0,0.0,0.0,0.0,0.0,0.0,0.0,0.0,0.0,0.0,0.0,0.0,0.0,0.0,0.0,0.0,0.0,0.0,0.0,0.0,0.0,0.0,1.2459,1.2675,1.2961,1.3127,1.3215,1.3207,0.0,0.0,0.0,0.0,0.0,0.0,0.0,0.0,0.0,0.0,0.0,0.0,0.0,0.0,0.0,0.0,0.0,0.0,0.0,0.0,0.0,0.0,0.0,0.0,0.0,0.0,0.0,0.0,0.0,0.0,0.0,0.0,0.0,0.0,0.0,0.0,0.0,0.0,0.0,0.0,0.0,0.0,0.0,0.0,0.0,0.0,0.0,0.0,0.0,0.0,0.0,0.0,0.0,0.0,0.0,0.0,0.0,0.0,0.0,0.0,0.0,0.0,0.0,0.0,0.0,0.0,0.0,0.0,0.0,0.0,0.0,0.0,0.0,0.0,0.0,0.0,0.0,0.0,0.0,0.0,0.0,0.0,0.0,0.0,0.0,0.0,0.0,0.0,0.0,0.0,0.0,0.0,0.0,0.0,0.0,0.0,0.0,0.0,0.0,0.0,0.0,0.0,0.0,0.0,0.0,0.0,0.0,0.0,1.2576,1.2924,1.3158,1.3376,1.3551,1.3522,0.0,0.0,0.0,0.0,0.0,0.0,0.0,0.0,0.0,0.0,0.0,0.0,0.0,0.0,0.0,0.0,0.0,0.0,0.0,0.0,0.0,0.0,0.0,0.0,0.0,0.0,0.0,0.0,0.0,0.0,0.0,0.0,0.0,0.0,0.0,0.0,0.0,0.0,0.0,0.0,0.0,0.0,0.0,0.0,0.0,0.0,0.0,0.0,0.0,0.0,0.0,0.0,0.0,0.0,0.0,0.0,0.0,0.0,0.0,0.0,0.0,0.0,0.0,0.0,0.0,0.0,0.0,0.0,0.0,0.0,0.0,0.0,0.0,0.0,0.0,0.0,0.0,0.0,0.0,0.0,0.0,0.0,0.0,0.0,0.0,0.0,0.0,0.0,0.0,0.0,0.0,0.0,0.0,0.0,0.0,0.0,0.0,0.0,0.0,0.0,0.0,0.0,0.0,0.0,0.0,0.0,0.0,0.0,0.0,1.3133,1.3613,1.3898,1.391,1.3934,1.3861,0.0,0.0,0.0,0.0,0.0,0.0,0.0,0.0,0.0,0.0,0.0,0.0,0.0,0.0,0.0,0.0,0.0,0.0,0.0,0.0,0.0,0.0,0.0,0.0,0.0,0.0,0.0,0.0,0.0,0.0,0.0,0.0,0.0,0.0,0.0,0.0,0.0,0.0,0.0,0.0,0.0,0.0,0.0,0.0,0.0,0.0,0.0,0.0,0.0,0.0,0.0,0.0,0.0,0.0,0.0,0.0,0.0,0.0,0.0,0.0,0.0,0.0,0.0,0.0,0.0,0.0,0.0,0.0,0.0,0.0,0.0,0.0,0.0,0.0,0.0,0.0,0.0,0.0,0.0,0.0,0.0,0.0,0.0,0.0,0.0,0.0,0.0,0.0,0.0,0.0,0.0,0.0,0.0,0.0,0.0,0.0,0.0,0.0,0.0,0.0,0.0,0.0,0.0,0.0,0.0,0.0,0.0,0.0,0.0,1.3772,0.0,1.4477,1.4435,1.4273,1.4156,0.0,0.0,0.0,0.0,0.0,0.0,0.0,0.0,0.0,0.0,0.0,0.0,0.0,0.0,0.0,0.0,0.0,0.0,0.0,0.0,0.0,0.0,0.0,0.0,0.0,0.0,0.0,0.0,0.0,0.0,0.0,0.0,0.0,0.0,0.0,0.0,0.0,0.0,0.0,0.0,0.0,0.0,0.0,0.0,0.0,0.0,0.0,0.0,0.0,0.0,0.0,0.0,0.0,0.0,0.0,0.0,0.0,0.0,0.0,0.0,0.0,0.0,0.0,0.0,0.0,0.0,0.0,0.0,0.0,0.0,0.0,0.0,0.0,0.0,0.0,0.0,0.0,0.0,0.0,0.0,0.0,0.0,0.0,0.0,0.0,0.0,0.0,0.0,0.0,0.0,0.0,0.0,0.0,0.0,0.0,0.0,0.0,0.0,0.0,0.0,0.0,0.0,0.0,0.0,0.0,0.0,0.0,0.0,1.3786,1.4574,1.4793,1.4944,1.4907,1.467,1.4333,0.0,0.0,0.0,0.0,0.0,0.0,0.0,0.0,0.0,0.0,0.0,0.0,0.0,0.0,0.0,0.0,0.0,0.0,0.0,0.0,0.0,0.0,0.0,0.0,0.0,0.0,0.0,0.0,0.0,0.0,0.0,0.0,0.0,0.0,0.0,0.0,0.0,0.0,0.0,0.0,0.0,0.0,0.0,0.0,0.0,0.0,0.0,0.0,0.0,0.0,0.0,0.0,0.0,0.0,0.0,0.0,0.0,0.0,0.0,0.0,0.0,0.0,0.0,0.0,0.0,0.0,0.0,0.0,0.0,0.0,0.0,0.0,0.0,0.0,0.0,0.0,0.0,0.0,0.0,0.0,0.0,0.0,0.0,0.0,0.0,0.0,0.0,0.0,0.0,0.0,0.0,0.0,0.0,0.0,0.0,0.0,0.0,0.0,0.0,0.0,0.0,0.0,0.0,0.0,0.0,0.0,0.0,0.0,0.0,1.5146,1.5455,1.5571,1.5557,1.5258,1.4874,0.0,0.0,0.0,0.0,0.0,0.0,0.0,0.0,0.0,0.0,0.0,0.0,0.0,0.0,0.0,0.0,0.0,0.0,0.0,0.0,0.0,0.0,0.0,0.0,0.0,0.0,0.0,0.0,0.0,0.0,0.0,0.0,0.0,0.0,0.0,0.0,0.0,0.0,0.0,0.0,0.0,0.0,0.0,0.0,0.0,0.0,0.0,0.0,0.0,0.0,0.0,0.0,0.0,0.0,0.0,0.0,0.0,0.0,0.0,0.0,0.0,0.0,0.0,0.0,0.0,0.0,0.0,0.0,0.0,0.0,0.0,0.0,0.0,0.0,0.0,0.0,0.0,0.0,0.0,0.0,0.0,0.0,0.0,0.0,0.0,0.0,0.0,0.0,0.0,0.0,0.0,0.0,0.0,0.0,0.0,0.0,0.0,0.0,0.0,0.0,0.0,0.0,0.0,0.0,0.0,0.0,0.0,0.0,0.0,1.6075,1.6221,1.6265,1.6265,1.584,1.5323,1.4838,0.0,0.0,0.0,0.0,0.0,0.0,0.0,0.0,0.0,0.0,0.0,0.0,0.0,0.0,0.0,0.0,0.0,0.0,0.0,0.0,0.0,0.0,0.0,0.0,0.0,0.0,0.0,0.0,0.0,0.0,0.0,0.0,0.0,0.0,0.0,0.0,0.0,0.0,0.0,0.0,0.0,0.0,0.0,0.0,0.0,0.0,0.0,0.0,0.0,0.0,0.0,0.0,0.0,0.0,0.0,0.0,0.0,0.0,0.0,0.0,0.0,0.0,0.0,0.0,0.0,0.0,0.0,0.0,0.0,0.0,0.0,0.0,0.0,0.0,0.0,0.0,0.0,0.0,0.0,0.0,0.0,0.0,0.0,0.0,0.0,0.0,0.0,0.0,0.0,0.0,0.0,0.0,0.0,0.0,0.0,0.0,0.0,0.0,0.0,0.0,0.0,0.0,0.0,0.0,0.0,0.0,0.0,0.0,1.7323,1.7128,1.7013,1.6947,1.6323,1.5826,0.0,0.0,0.0,0.0,0.0,0.0,0.0,0.0,0.0,0.0,0.0,0.0,0.0,0.0,0.0,0.0,0.0,0.0,0.0,0.0,0.0,0.0,0.0,0.0,0.0,0.0,0.0,0.0,0.0,0.0,0.0,0.0,0.0,0.0,0.0,0.0,0.0,0.0,0.0,0.0,0.0,0.0,0.0,0.0,0.0,0.0,0.0,0.0,0.0,0.0,0.0,0.0,0.0,0.0,0.0,0.0,0.0,0.0,0.0,0.0,0.0,0.0,0.0,0.0,0.0,0.0,0.0,0.0,0.0,0.0,0.0,0.0,0.0,0.0,0.0,0.0,0.0,0.0,0.0,0.0,0.0,0.0,0.0,0.0,0.0,0.0,0.0,0.0,0.0,0.0,0.0,0.0,0.0,0.0,0.0,0.0,0.0,0.0,0.0,0.0,0.0,0.0,0.0,0.0,0.0,0.0,0.0,0.0,0.0,1.8006,1.848,1.8299,1.7589,1.7172,1.6587,0.0,0.0,0.0,0.0,0.0,0.0,0.0,0.0,0.0,0.0,0.0,0.0,0.0,0.0,0.0,0.0,0.0,0.0,0.0,0.0,0.0,0.0,0.0,0.0,0.0,0.0,0.0,0.0,0.0,0.0,0.0,0.0,0.0,0.0,0.0,0.0,0.0,0.0,0.0,0.0,0.0,0.0,0.0,0.0,0.0,0.0,0.0,0.0,0.0,0.0,0.0,0.0,0.0,0.0,0.0,0.0,0.0,0.0,0.0,0.0,0.0,0.0,0.0,0.0,0.0,0.0,0.0,0.0,0.0,0.0,0.0,0.0,0.0,0.0,0.0,0.0,0.0,0.0,0.0,0.0,0.0,0.0,0.0,0.0,0.0,0.0,0.0,0.0,0.0,0.0,0.0,0.0,0.0,0.0,0.0,0.0,0.0,0.0,0.0,0.0,0.0,0.0,0.0,0.0,0.0,0.0,0.0,0.0,1.7523,1.8489,1.9016,1.9067,1.865,1.805,1.7282,0.0,0.0,0.0,0.0,0.0,0.0,0.0,0.0,0.0,0.0,0.0,0.0,0.0,0.0,0.0,0.0,0.0,0.0,0.0,0.0,0.0,0.0,0.0,0.0,0.0,0.0,0.0,0.0,0.0,0.0,0.0,0.0,0.0,0.0,0.0,0.0,0.0,0.0,0.0,0.0,0.0,0.0,0.0,0.0,0.0,0.0,0.0,0.0,0.0,0.0,0.0,0.0,0.0,0.0,0.0,0.0,0.0,0.0,0.0,0.0,0.0,0.0,0.0,0.0,0.0,0.0,0.0,0.0,0.0,0.0,0.0,0.0,0.0,0.0,0.0,0.0,0.0,0.0,0.0,0.0,0.0,0.0,0.0,0.0,0.0,0.0,0.0,0.0,0.0,0.0,0.0,0.0,0.0,0.0,0.0,0.0,0.0,0.0,0.0,0.0,0.0,0.0,0.0,0.0,0.0,0.0,0.0,0.0,1.7874,1.8862,1.9206,1.9513,1.9769,1.8869,1.7918,0.0,0.0,0.0,0.0,0.0,0.0,0.0,0.0,0.0,0.0,0.0,0.0,0.0,0.0,0.0,0.0,0.0,0.0,0.0,0.0,0.0,0.0,0.0,0.0,0.0,0.0,0.0,0.0,0.0,0.0,0.0,0.0,0.0,0.0,0.0,0.0,0.0,0.0,0.0,0.0,0.0,0.0,0.0,0.0,0.0,0.0,0.0,0.0,0.0,0.0,0.0,0.0,0.0,0.0,0.0,0.0,0.0,0.0,0.0,0.0,0.0,0.0,0.0,0.0,0.0,0.0,0.0,0.0,0.0,0.0,0.0,0.0,0.0,0.0,0.0,0.0,0.0,0.0,0.0,0.0,0.0,0.0,0.0,0.0,0.0,0.0,0.0,0.0,0.0,0.0,0.0,0.0,0.0,0.0,0.0,0.0,0.0,0.0,0.0,0.0,0.0,0.0,0.0,0.0,0.0,0.0,0.0,0.0,1.8526,1.9573,1.9864,2.0062,2.0128,1.9191,1.8456,0.0,0.0,0.0,0.0,0.0,0.0,0.0,0.0,0.0,0.0,0.0,0.0,0.0,0.0,0.0,0.0,0.0,0.0,0.0,0.0,0.0,0.0,0.0,0.0,0.0,0.0,0.0,0.0,0.0,0.0,0.0,0.0,0.0,0.0,0.0,0.0,0.0,0.0,0.0,0.0,0.0,0.0,0.0,0.0,0.0,0.0,0.0,0.0,2.3396,0.0,0.0,0.0,0.0,0.0,0.0,0.0,0.0,0.0,0.0,0.0,0.0,0.0,0.0,0.0,0.0,0.0,0.0,0.0,0.0,0.0,0.0,0.0,0.0,0.0,0.0,0.0,0.0,0.0,0.0,0.0,0.0,0.0,0.0,0.0,0.0,0.0,0.0,0.0,0.0,0.0,0.0,0.0,0.0,0.0,0.0,0.0,0.0,0.0,0.0,0.0,0.0,0.0,0.0,0.0,0.0,0.0,0.0,0.0,1.9115,2.0136,2.0494,2.0619,2.0582,1.9852,1.9037,0.0,0.0,0.0,0.0,0.0,0.0,0.0,0.0,0.0,0.0,0.0,0.0,0.0,0.0,0.0,0.0,0.0,0.0,0.0,0.0,0.0,0.0,0.0,0.0,0.0,0.0,0.0,0.0,0.0,0.0,0.0,0.0,0.0,0.0,0.0,0.0,0.0,0.0,0.0,0.0,0.0,0.0,0.0,0.0,0.0,0.0,0.0,0.0,0.0,0.0,0.0,0.0,0.0,0.0,0.0,0.0,0.0,0.0,0.0,0.0,0.0,0.0,0.0,0.0,0.0,0.0,0.0,0.0,0.0,0.0,0.0,0.0,0.0,0.0,0.0,0.0,0.0,0.0,0.0,0.0,0.0,0.0,0.0,0.0,0.0,0.0,0.0,0.0,0.0,0.0,0.0,0.0,0.0,0.0,0.0,0.0,0.0,0.0,0.0,0.0,0.0,0.0,0.0,0.0,0.0,0.0,0.0,1.8852,1.9764,2.0779,2.1064,2.1156,2.1248,2.0548,1.9691,1.8609,0.0,0.0,0.0,0.0,0.0,0.0,0.0,0.0,0.0,0.0,0.0,0.0,0.0,0.0,0.0,0.0,0.0,0.0,0.0,0.0,0.0,0.0,0.0,0.0,0.0,0.0,0.0,0.0,0.0,0.0,0.0,0.0,0.0,0.0,0.0,0.0,0.0,0.0,2.4109,2.4083,0.0,0.0,0.0,0.0,0.0,0.0,0.0,0.0,2.4035,0.0,0.0,0.0,0.0,0.0,0.0,0.0,0.0,0.0,0.0,0.0,0.0,0.0,0.0,0.0,0.0,0.0,0.0,0.0,0.0,0.0,0.0,0.0,0.0,0.0,0.0,0.0,0.0,0.0,0.0,0.0,0.0,0.0,0.0,0.0,0.0,0.0,0.0,0.0,0.0,0.0,0.0,0.0,0.0,0.0,0.0,0.0,0.0,0.0,0.0,0.0,0.0,0.0,0.0,0.0,0.0,1.8961,1.9678,2.057,2.1715,2.1488,2.1512,2.181,2.1056,2.0464,2.0151,0.0,0.0,0.0,0.0,0.0,0.0,0.0,0.0,0.0,0.0,0.0,0.0,0.0,0.0,0.0,0.0,0.0,0.0,0.0,0.0,0.0,0.0,0.0,0.0,0.0,0.0,0.0,0.0,0.0,0.0,0.0,0.0,0.0,0.0,0.0,0.0,0.0,0.0,0.0,2.5336,2.5216,0.0,0.0,0.0,0.0,0.0,0.0,0.0,0.0,2.5059,0.0,0.0,0.0,0.0,0.0,0.0,0.0,0.0,0.0,0.0,0.0,0.0,0.0,0.0,0.0,0.0,0.0,0.0,0.0,0.0,0.0,0.0,0.0,0.0,0.0,0.0,0.0,0.0,0.0,0.0,0.0,0.0,0.0,0.0,0.0,0.0,0.0,0.0,0.0,0.0,0.0,0.0,0.0,0.0,0.0,0.0,0.0,0.0,0.0,0.0,0.0,0.0,0.0,0.0,0.0,2.0048,2.0557,2.1412,2.2529,2.2369,2.2369,2.257,2.192,2.1364,0.0,0.0,0.0,0.0,0.0,0.0,0.0,0.0,0.0,0.0,0.0,0.0,0.0,0.0,0.0,0.0,0.0,0.0,0.0,0.0,0.0,0.0,0.0,0.0,0.0,0.0,0.0,0.0,0.0,0.0,0.0,0.0,0.0,0.0,0.0,0.0,0.0,0.0,0.0,0.0,2.6129,2.6201,2.6502,0.0,0.0,0.0,0.0,0.0,0.0,2.5865,2.5721,0.0,0.0,0.0,0.0,0.0,0.0,0.0,0.0,0.0,0.0,0.0,0.0,0.0,0.0,0.0,0.0,0.0,0.0,0.0,0.0,0.0,0.0,0.0,0.0,0.0,0.0,0.0,0.0,0.0,0.0,0.0,0.0,0.0,0.0,0.0,0.0,0.0,0.0,0.0,0.0,0.0,0.0,0.0,0.0,0.0,0.0,0.0,0.0,0.0,0.0,0.0,0.0,0.0,0.0,0.0,2.0989,2.1453,2.2212,2.3253,2.3305,2.3305,2.3297,2.2807,2.2217,0.0,0.0,0.0,0.0,0.0,0.0,0.0,0.0,0.0,0.0,0.0,0.0,0.0,0.0,0.0,0.0,0.0,0.0,0.0,0.0,0.0,0.0,0.0,0.0,0.0,0.0,0.0,0.0,0.0,0.0,0.0,0.0,0.0,0.0,0.0,0.0,0.0,0.0,0.0,0.0,0.0,2.6934,2.7042,2.7054,0.0,0.0,0.0,0.0,2.691,2.655,0.0,0.0,0.0,0.0,0.0,0.0,0.0,0.0,0.0,0.0,0.0,0.0,0.0,0.0,0.0,0.0,0.0,0.0,0.0,0.0,0.0,0.0,0.0,0.0,0.0,0.0,0.0,0.0,0.0,0.0,0.0,0.0,0.0,0.0,0.0,0.0,0.0,0.0,0.0,0.0,0.0,0.0,0.0,0.0,0.0,0.0,0.0,0.0,0.0,0.0,0.0,0.0,0.0,0.0,0.0,0.0,2.1348,2.2236,2.3135,2.3954,2.4008,2.3999,2.399,2.3467,2.288,0.0,0.0,0.0,0.0,0.0,0.0,0.0,0.0,0.0,0.0,0.0,0.0,0.0,0.0,0.0,0.0,0.0,0.0,0.0,0.0,0.0,0.0,0.0,0.0,0.0,0.0,0.0,0.0,0.0,0.0,0.0,0.0,0.0,0.0,0.0,0.0,0.0,0.0,0.0,0.0,0.0,2.7066,2.7534,2.7582,2.7426,0.0,0.0,2.7438,2.697,2.6837,0.0,0.0,0.0,0.0,0.0,0.0,0.0,0.0,0.0,0.0,0.0,0.0,0.0,0.0,0.0,0.0,0.0,0.0,0.0,0.0,0.0,0.0,0.0,0.0,0.0,0.0,0.0,0.0,0.0,0.0,0.0,0.0,0.0,0.0,0.0,0.0,0.0,0.0,0.0,0.0,0.0,0.0,0.0,0.0,0.0,0.0,0.0,0.0,0.0,0.0,0.0,0.0,0.0,0.0,0.0,2.16,2.2188,2.3219,2.4051,2.4582,2.4887,2.4897,2.4611,2.4314,2.3716,0.0,0.0,0.0,0.0,0.0,0.0,0.0,0.0,0.0,0.0,0.0,0.0,0.0,0.0,0.0,0.0,0.0,0.0,0.0,0.0,0.0,0.0,0.0,0.0,0.0,0.0,0.0,0.0,0.0,0.0,0.0,0.0,0.0,0.0,0.0,0.0,0.0,0.0,0.0,0.0,0.0,0.0,2.8721,2.8806,0.0,0.0,0.0,2.8534,2.8318,0.0,0.0,0.0,0.0,0.0,0.0,0.0,0.0,0.0,0.0,0.0,0.0,0.0,0.0,0.0,0.0,0.0,0.0,0.0,0.0,0.0,0.0,0.0,0.0,0.0,0.0,0.0,0.0,0.0,0.0,0.0,0.0,0.0,0.0,0.0,0.0,0.0,0.0,0.0,0.0,0.0,0.0,0.0,0.0,0.0,0.0,0.0,0.0,0.0,0.0,0.0,0.0,0.0,0.0,0.0,0.0,0.0,2.2816,2.3925,2.4694,2.5108,2.5528,2.5548,2.5268,2.5071,0.0,0.0,0.0,0.0,0.0,0.0,0.0,0.0,0.0,0.0,0.0,0.0,0.0,0.0,0.0,0.0,0.0,0.0,0.0,0.0,0.0,0.0,0.0,0.0,0.0,0.0,0.0,2.3552,0.0,0.0,0.0,0.0,0.0,0.0,0.0,0.0,0.0,0.0,0.0,0.0,0.0,0.0,2.9394,2.9735,2.9878,3.0028,0.0,0.0,2.9625,2.9492,2.8693,2.7809,0.0,0.0,0.0,0.0,0.0,0.0,0.0,0.0,0.0,0.0,0.0,0.0,0.0,0.0,0.0,0.0,0.0,0.0,0.0,0.0,0.0,0.0,0.0,0.0,0.0,0.0,0.0,0.0,0.0,0.0,0.0,0.0,0.0,0.0,0.0,0.0,0.0,0.0,0.0,0.0,0.0,0.0,0.0,0.0,0.0,0.0,0.0,0.0,0.0,0.0,0.0,0.0,0.0,0.0,0.0,2.2849,2.4087,2.5025,2.5432,2.5675,2.5822,2.5826,2.556,2.4827,0.0,0.0,0.0,0.0,0.0,0.0,0.0,0.0,0.0,0.0,0.0,0.0,0.0,0.0,0.0,0.0,0.0,0.0,0.0,0.0,0.0,0.0,0.0,0.0,0.0,0.0,0.0,0.0,0.0,0.0,0.0,0.0,0.0,0.0,0.0,0.0,0.0,0.0,0.0,0.0,0.0,2.98,3.0189,3.067,3.0951,0.0,0.0,3.0515,3.0012,2.9435,2.8648,2.7618,0.0,0.0,0.0,0.0,0.0,0.0,0.0,0.0,0.0,0.0,0.0,0.0,0.0,0.0,0.0,0.0,0.0,0.0,0.0,0.0,0.0,0.0,0.0,0.0,0.0,0.0,0.0,0.0,0.0,0.0,0.0,0.0,0.0,0.0,0.0,0.0,0.0,0.0,0.0,0.0,0.0,0.0,0.0,0.0,0.0,0.0,0.0,0.0,0.0,0.0,0.0,0.0,0.0,2.3214,2.3437,2.4775,2.5549,2.5771,2.6233,2.6343,2.6091,2.614,2.5539,0.0,0.0,0.0,0.0,0.0,0.0,0.0,0.0,0.0,0.0,0.0,0.0,0.0,0.0,0.0,0.0,0.0,0.0,0.0,0.0,0.0,0.0,0.0,0.0,0.0,0.0,0.0,0.0,2.4692,2.5084,2.5607,0.0,0.0,0.0,0.0,0.0,0.0,0.0,0.0,0.0,0.0,3.0624,3.0929,3.1369,0.0,0.0,3.1235,3.0979,3.039,2.9831,2.9135,2.8051,2.7877,0.0,0.0,0.0,0.0,0.0,0.0,0.0,0.0,0.0,0.0,0.0,0.0,0.0,0.0,0.0,0.0,0.0,0.0,0.0,0.0,0.0,0.0,0.0,0.0,0.0,0.0,0.0,0.0,0.0,0.0,0.0,0.0,0.0,0.0,0.0,0.0,0.0,0.0,0.0,0.0,0.0,0.0,0.0,0.0,0.0,0.0,0.0,0.0,0.0,0.0,0.0,0.0,2.3708,2.3897,2.5219,2.598,2.6206,2.6628,2.6748,2.6637,2.6677,2.6227,0.0,0.0,0.0,0.0,0.0,0.0,0.0,0.0,0.0,0.0,0.0,0.0,0.0,0.0,0.0,0.0,0.0,0.0,0.0,0.0,0.0,0.0,0.0,0.0,0.0,0.0,0.0,0.0,2.5849,2.6257,2.6816,0.0,0.0,0.0,0.0,0.0,0.0,0.0,0.0,0.0,0.0,3.1446,3.1731,3.1967,3.2081,3.1996,3.1733,3.1371,3.095,3.0444,2.977,2.8855,0.0,0.0,0.0,0.0,0.0,0.0,0.0,0.0,0.0,0.0,0.0,0.0,0.0,0.0,0.0,0.0,0.0,0.0,0.0,0.0,0.0,0.0,0.0,0.0,0.0,0.0,0.0,0.0,0.0,0.0,0.0,0.0,0.0,0.0,0.0,0.0,0.0,0.0,0.0,0.0,0.0,0.0,0.0,0.0,0.0,0.0,0.0,0.0,0.0,0.0,0.0,0.0,0.0,2.3887,2.4115,2.5333,2.622,2.6839,2.6705,2.6933,2.7518,2.7152,2.6746,2.6478,0.0,0.0,0.0,0.0,0.0,0.0,0.0,0.0,0.0,0.0,0.0,0.0,0.0,0.0,0.0,0.0,0.0,0.0,0.0,0.0,0.0,0.0,0.0,0.0,0.0,0.0,2.7166,2.7648,2.791,0.0,0.0,0.0,0.0,0.0,0.0,0.0,0.0,0.0,0.0,3.1346,3.2222,3.2592,3.2511,3.2495,3.2804,3.2241,3.1772,3.1746,3.1314,3.0777,0.0,0.0,0.0,0.0,0.0,0.0,0.0,0.0,0.0,0.0,0.0,0.0,0.0,0.0,0.0,0.0,0.0,0.0,0.0,0.0,0.0,0.0,0.0,0.0,0.0,0.0,0.0,2.0447,2.0488,0.0,0.0,0.0,0.0,0.0,0.0,0.0,0.0,0.0,0.0,0.0,2.4555,2.4732,0.0,0.0,0.0,0.0,0.0,0.0,0.0,0.0,0.0,0.0,0.0,0.0,2.464,2.4999,2.6006,2.6753,2.7096,2.7165,2.7318,2.752,2.7696,2.7525,2.6959,0.0,0.0,0.0,0.0,0.0,0.0,0.0,0.0,0.0,0.0,0.0,0.0,0.0,0.0,0.0,0.0,0.0,0.0,0.0,0.0,0.0,0.0,0.0,0.0,0.0,2.7426,0.0,0.0,0.0,0.0,0.0,0.0,0.0,0.0,0.0,0.0,0.0,3.1062,3.1062,3.2014,3.2751,3.2858,3.2964,3.2895,0.0,0.0,0.0,0.0,0.0,0.0,0.0,0.0,0.0,0.0,0.0,0.0,0.0,0.0,2.8858,2.8179,2.7441,2.6793,2.6335,0.0,0.0,0.0,0.0,0.0,0.0,0.0,0.0,0.0,0.0,0.0,0.0,0.0,0.0,0.0,0.0,2.2175,0.0,0.0,0.0,0.0,0.0,0.0,0.0,0.0,2.4834,2.5205,2.5569,2.5737,2.5915,0.0,2.6051,2.5494,0.0,0.0,0.0,0.0,0.0,0.0,0.0,0.0,2.5357,2.5902,2.6772,2.7319,2.7551,2.7765,2.7886,2.7955,2.8395,2.839,2.7853,2.747,2.7115,0.0,0.0,0.0,0.0,0.0,0.0,0.0,0.0,0.0,0.0,0.0,0.0,0.0,0.0,0.0,0.0,0.0,0.0,0.0,0.0,0.0,0.0,0.0,2.8604,0.0,0.0,0.0,0.0,0.0,0.0,0.0,0.0,0.0,3.0103,3.0973,3.1693,3.1905,3.272,3.3318,3.3318,0.0,0.0,0.0,0.0,0.0,0.0,0.0,3.2387,3.2073,3.2005,3.1881,3.1481,3.1426,3.1413,3.1426,0.0,0.0,2.9899,2.9069,2.845,2.8145,2.732,2.6538,2.6191,2.5762,2.5426,0.0,0.0,0.0,0.0,0.0,0.0,0.0,0.0,2.2712,2.2798,0.0,2.3185,0.0,0.0,0.0,0.0,0.0,0.0,0.0,0.0,2.5782,2.6085,2.626,2.6501,2.6708,2.6955,2.7179,2.7036,2.6478,2.5168,0.0,0.0,0.0,0.0,0.0,0.0,2.6124,2.6811,2.7512,2.7943,2.8219,2.8431,2.8618,2.8843,2.9223,2.9286,2.9001,2.8644,2.828,2.7831,2.7524,0.0,0.0,0.0,0.0,0.0,0.0,0.0,0.0,0.0,0.0,0.0,0.0,0.0,0.0,0.0,0.0,0.0,0.0,0.0,0.0,3.0052,0.0,0.0,0.0,0.0,0.0,0.0,0.0,0.0,0.0,0.0,3.1031,3.1615,3.2244,3.2825,0.0,0.0,0.0,0.0,3.3605,3.3605,3.3452,3.3318,3.3318,3.3304,3.3318,3.329,0.0,0.0,3.329,3.329,3.3262,3.329,3.3248,3.2716,3.089,3.0521,3.033,3.0006,2.9421,2.8924,2.8457,2.7608,2.6994,2.6428,0.0,0.0,0.0,0.0,2.4769,2.4808,2.503,2.538,2.5313,2.5008,2.5413,0.0,0.0,0.0,0.0,0.0,0.0,2.6349,2.6453,2.7092,2.7432,2.7474,2.808,2.8291,2.8121,2.8345,2.8302,2.7913,2.7135,2.6359,2.5639,0.0,0.0,0.0,0.0,2.7084,2.746,2.8158,2.8593,2.8855,2.8895,2.9104,2.9507,2.9908,2.9935,2.9609,2.9736,2.9382,2.8486,2.8481,0.0,0.0,0.0,0.0,0.0,0.0,0.0,0.0,0.0,0.0,0.0,0.0,0.0,0.0,0.0,0.0,0.0,0.0,0.0,3.0052,3.0221,3.0357,0.0,0.0,0.0,0.0,0.0,0.0,0.0,0.0,0.0,3.2009,3.2222,3.2583,0.0,0.0,3.404,3.404,3.3917,3.3827,3.3813,0.0,0.0,0.0,3.373,3.373,3.3744,3.373,3.373,3.373,3.3744,3.3744,3.373,3.3744,3.3533,3.3035,3.2296,3.1743,3.1392,3.0849,3.0139,2.9363,2.8751,2.821,2.8286,2.7044,2.6331,2.6061,2.6031,2.6111,2.6246,2.6436,2.7005,2.7063,2.6791,2.7058,2.6847,2.6289,2.6221,0.0,0.0,0.0,2.7219,2.7313,2.8057,2.8402,2.8425,2.9011,2.9207,2.8993,2.9023,2.8931,2.8736,2.8397,2.7915,2.7305,0.0,0.0,2.7045,2.751,2.7917,2.8266,2.879,2.9106,2.9248,2.9404,2.9728,3.0241,3.0495,3.0629,3.0611,3.0642,3.0264,2.9502,2.9369,2.9131,0.0,0.0,0.0,0.0,0.0,0.0,0.0,0.0,0.0,0.0,0.0,2.9035,0.0,0.0,0.0,0.0,2.9682,2.9991,3.0266,3.0387,0.0,0.0,0.0,0.0,0.0,0.0,0.0,3.0612,3.0946,3.1496,3.2382,3.2481,3.2846,3.3717,3.4066,3.4196,3.423,0.0,3.4088,3.4103,3.4088,3.4074,3.4088,3.4088,3.4088,3.4088,3.4122,3.4103,3.4088,3.4088,3.4088,3.4088,3.4088,3.4016,3.3792,3.3235,3.2809,3.2576,3.1878,3.1032,3.0311,2.9602,2.8843,2.9852,2.9191,2.8064,2.7294,2.6899,2.7124,2.7202,2.7291,2.7977,2.8261,2.8226,2.8145,2.808,2.7965,2.7515,0.0,2.7603,2.7603,2.7736,2.7985,2.8726,2.9075,2.9116,2.9479,2.9671,2.9622,2.9346,2.9167,2.9131,2.917,2.9182,2.9145,2.8071,2.7725,2.8151,2.8329,2.8639,2.9118,2.9353,2.9457,2.9496,2.9947,3.0457,3.1024,3.1061,3.136,3.1886,3.1447,3.098,3.0665,3.0204,2.9729,2.9352,0.0,0.0,0.0,0.0,0.0,0.0,0.0,0.0,0.0,0.0,0.0,0.0,0.0,0.0,0.0,3.016,0.0,3.0357,3.0538,0.0,0.0,0.0,3.0702,3.0821,3.0687,3.0642,3.0628,0.0,0.0,3.228,0.0,3.3021,3.4182,3.437,3.438,3.438,3.438,3.438,3.438,3.438,3.438,3.4346,3.438,3.438,3.4346,3.438,3.438,3.4366,3.4293,3.4308,3.4264,3.4264,3.4032,3.3532,3.3354,3.344,3.3403,3.252,3.1627,3.1114,3.0132,2.9109,3.1015,3.0974,3.0186,2.9309,2.8567,2.8831,2.9013,2.9251,2.977,2.9775,2.9383,2.9133,2.8733,2.8143,2.8186,2.8219,2.8259,2.8447,2.8514,2.8642,2.9363,2.9687,2.9711,3.0196,3.0282,3.0038,2.9995,2.9841,2.9636,2.9624,2.9624,2.9624,2.9515,2.9236,2.8856,2.9038,2.9217,2.9341,2.9754,3.0075,3.0381,3.0647,3.1011,3.1458,3.1767,3.2082,3.2489,3.253,3.2139,3.1266,3.1104,3.0615,2.971,2.9685,0.0,0.0,0.0,0.0,0.0,0.0,0.0,0.0,0.0,3.0357,3.0357,0.0,3.0463,0.0,3.0568,3.0732,3.0895,3.0955,0.0,0.0,3.1014,3.0984,3.1028,3.0984,3.0984,3.0984,3.1276,3.1639,3.1915,3.2725,3.3387,3.3707,3.4109,3.438,3.438,3.438,3.438,3.438,3.438,3.438,3.438,3.438,3.438,3.438,3.4366,3.438,3.438,3.4008,3.3736,3.3692,3.3282,3.2916,3.2774,3.2745,3.2756,3.2739,3.2378,3.1858,3.1176,3.0552,2.9959,3.2056,3.1857,3.1453,3.08,3.0068,3.0034,3.0136,3.0375,3.0847,3.0995,3.0751,3.024,2.9629,2.902,2.8806,2.8776,2.8788,2.8895,2.8922,2.8986,2.9724,3.0063,3.0075,3.0452,3.0562,3.0371,3.0134,2.995,2.9804,2.9895,2.9946,2.9946,3.0152,3.0113,2.9831,2.9857,2.9845,2.9845,3.019,3.0508,3.0811,3.1123,3.1482,3.1946,3.225,3.2522,3.2654,3.2758,3.2368,3.1413,3.1361,3.1002,3.0278,3.0251,3.0372,0.0,0.0,0.0,0.0,0.0,0.0,0.0,0.0,0.0,0.0,0.0,3.1087,0.0,3.1102,3.1279,3.1693,3.1723,3.1753,3.1841,3.1768,3.1634,3.1395,3.1322,3.1263,3.122,3.1412,3.1632,3.188,3.2416,3.2922,3.3106,3.3423,3.3827,3.4298,3.438,3.438,3.438,3.438,3.438,3.438,3.438,3.4312,3.4051,3.3993,3.392,3.363,3.3282,3.3035,3.3021,3.2759,3.2379,3.215,3.2063,3.1973,3.1683,3.1563,3.1409,3.1194,3.0748,3.0219,3.2931,3.2346,3.2253,3.1912,3.1434,3.1017,3.0892,3.1071,3.1572,3.1833,3.1918,3.1239,3.0639,3.0022,2.9502,2.9283,2.917,2.9182,2.917,2.9246,2.9901,3.0256,3.0244,3.0428,3.0507,3.0482,3.0057,2.983,2.983,3.0037,3.0152,3.019,3.0368,3.0558,3.0773,3.0647,3.0558,3.052,3.0723,3.0924,3.1136,3.1519,3.1996,3.2489,3.2704,3.2779,3.267,3.2695,3.2292,3.1423,3.1414,3.1219,3.0895,3.0881,3.0969,0.0,3.1292,0.0,0.0,0.0,0.0,0.0,0.0,0.0,0.0,3.1935,3.2038,3.2066,3.1951,3.2104,3.269,3.2765,3.2825,3.2988,3.2854,3.2569,3.2113,3.1951,3.1807,3.1676,3.1647,3.1783,3.2196,3.2253,3.2456,3.2771,3.2959,3.332,3.3925,3.4095,3.408,3.4167,3.4167,3.3989,3.4051,3.4109,3.392,3.3489,3.3373,3.3184,3.264,3.2452,3.2382,3.2382,3.2234,3.2019,3.1496,3.1395,3.1221,3.0771,3.0714,3.0813,3.1022,3.0727,3.0203,3.3588,3.3577,3.2913,3.2638,3.2511,3.222,3.1969,3.1825,3.2125,3.2055,3.1681,3.1672,3.1166,3.0248,3.0296,3.0088,2.9675,2.9663,2.9663,2.9675,2.9814,2.9903,2.9903,2.9942,2.9955,2.9942,3.0023,3.0037,3.0049,3.0267,3.0419,3.0584,3.0798,3.0986,3.1198,0.0,0.0,0.0,3.1347,3.1606,3.1963,3.2322,3.2704,3.31,3.3347,0.0,3.3102,3.3211,3.2767,3.1782,3.1801,0.0,0.0,0.0,0.0,0.0,0.0,0.0,0.0,0.0,0.0,0.0,3.3689,3.3578,3.319,3.365,3.3986,3.3957,3.3957,3.4003,3.4126,3.4097,3.4141,3.4157,3.4157,3.408,3.3957,3.3811,3.3664,3.3664,3.3441,3.3367,3.3412,3.3645,3.3622,3.3249,3.3524,3.3527,3.3054,3.2984,3.2904,3.2843,3.2977,3.2904,3.2861,3.2901,3.2948,3.2701,3.2701,3.2629,3.2454,3.1988,3.1683,3.1669,3.1279,3.099,3.0785,3.0756,3.0786,3.0627,3.0612,3.0641,3.0697,3.0504,3.0282,3.3964,0.0,3.3149,3.2906,0.0,3.2586,3.255,3.2537,3.255,3.25,3.2288,3.1855,3.1347,3.0826,3.0405,3.0055,2.9792,2.9779,2.9779,2.9779,2.9779,2.9779,2.9779,2.9779,2.9856,2.9934,3.0049,3.0203,3.0394,3.0596,3.0861,3.1161,3.136,3.1582,3.185,3.2141,3.2105,3.1703,3.1873,3.2128,3.2431,3.2789,3.3157,3.3542,0.0,0.0,0.0,0.0,0.0,0.0,0.0,0.0,0.0,0.0,0.0,3.1938,3.2231,3.2425,3.252,3.29,3.3324,3.3783,3.434,3.4609,3.4448,3.4748,3.4951,3.4935,3.4935,3.5091,3.5404,3.5435,3.5422,3.5451,3.5393,3.5225,3.4914,3.4663,3.4517,3.4445,3.4342,3.4224,3.4164,3.4137,3.4044,3.3682,3.3484,3.3224,3.2651,3.2593,3.2594,3.2513,3.2481,3.2527,3.2481,3.2513,3.2353,3.2135,3.2019,3.1874,3.1613,3.1293,3.1047,3.1032,3.0801,3.0612,3.0612,3.0612,3.0612,3.0612,3.0612,3.0612,3.0612,3.0507,3.0417,3.4089,3.3321,3.3234,3.3014,3.2766,3.2766,3.2834,3.2918,0.0,0.0,0.0,3.1851,3.1336,3.1198,3.0331,2.988,2.9792,2.9779,2.9779,2.9779,2.9779,2.9779,2.9792,2.983,2.9934,3.0113,3.019,3.0419,3.0811,3.1024,3.136,3.174,3.1936,3.2228,3.2596,3.2775,3.2704,3.2453,3.2538,3.2682,3.2846,3.3227,3.3577,3.3908,3.3628,3.322,3.2752,3.2323,3.1841,3.138,3.1508,3.171,3.1898,3.2163,3.233,3.2358,3.2711,3.2911,3.2938,3.334,3.3732,3.4024,3.4881,3.5358,3.5363,3.5435,3.5562,3.5673,3.5677,3.5934,3.6587,3.665,3.665,3.665,3.6579,3.6285,3.578,3.5527,3.5417,3.521,3.5229,3.5109,3.5008,3.4846,3.4559,3.4271,3.3833,3.293,3.2467,3.2326,3.2253,3.2111,3.2053,3.2138,3.215,3.2106,3.1946,3.1438,3.1351,3.1163,3.0772,3.0612,3.0612,3.067,3.0612,3.0612,3.0612,3.0612,3.0612,3.0612,3.0612,3.0612,3.0612,3.0612,3.0538,3.3737,3.3771,3.3308,3.3101,3.3038,3.3025,3.2749,3.234,3.2286,3.2286,3.229,3.1662,3.1148,3.0681,3.0557,3.0244,2.9792,2.9779,2.9779,0.0,2.9779,2.9779,2.9792,2.9972,3.0088,3.0113,3.0609,3.0973,3.1235,3.1582,3.1936,3.2273,3.2489,3.286,3.3396,3.3466,3.3536,3.364,3.3312,3.3276,3.3452,3.3819,3.4108,3.4283,3.3893,3.3428,3.2956,3.2614,3.2139,3.1524,3.1866,3.2163,3.2315,3.2574,3.2792,3.2989,3.3224,3.3398,3.3408,3.3797,3.4401,3.5272,3.6009,3.6033,3.5249,3.5616,3.6172,3.6761,3.6682,3.6965,3.7575,3.7639,3.7607,3.7671,3.7642,3.761,3.7451,3.729,3.7128,3.6949,3.6925,3.6775,3.6562,3.6412,3.6028,3.5549,3.494,3.4273,3.2871,3.1797,3.1278,3.1099,3.1039,3.0979,3.1049,3.0903,3.0932,3.0772,3.0786,3.0786,3.0641,3.0612,3.0612,3.0612,3.0612,3.0612,3.0612,3.0612,3.0612,3.0612,3.0612,3.0612,3.0598,3.0583,3.0539,3.3633,3.3445,3.3224,3.3124,3.3056,3.2742,3.2453,3.2152,3.1587,3.1524,3.17,3.121,3.0834,3.0595,3.0306,3.0043,2.9779,2.9779,2.9779,2.9792,2.9908,2.9972,3.0011,3.0279,3.0508,3.0609,3.1086,3.1508,3.1803,3.2046,3.2395,3.286,3.3192,3.3486,3.3744,3.3758,3.3833,3.4005,3.373,3.3695,3.3868,3.4142,3.4346,3.4549,3.3959,3.3487,3.3284,3.2601,3.2113,3.1896,3.2231,3.2465,3.2614,3.298,3.3235,3.3424,3.3684,3.3832,3.3924,3.425,3.4603,3.5087,3.5457,3.5498,3.5029,3.5824,3.6431,3.6691,3.6659,3.6895,3.7504,3.7585,3.7729,3.8132,3.8107,3.8094,3.8049,3.7905,3.7788,3.7685,3.761,3.7567,3.7494,3.727,3.701,3.6588,3.5949,3.4896,3.374,3.2748,3.1841,3.1161,3.0955,3.0895,3.0732,3.0702,3.0672,3.0642,3.0612,3.0612,3.0612,3.0612,3.0612,3.0612,3.0612,3.0612,3.0612,3.0612,3.0612,3.0612,3.0612,3.0612,3.0583,3.0321,3.0074,3.3514,3.3124,3.3124,3.3061,3.283,3.2277,3.1964,3.1763,3.0834,3.0658,3.0947,3.0608,3.0432,3.0382,2.998,2.9792,2.9792,2.983,2.9869,2.9869,3.0075,3.019,3.0279,3.0609,3.0874,3.1147,3.1386,3.1734,3.2131,3.216,3.2493,3.3057,3.3494,3.377,3.3819,3.3948,3.4074,3.4162,3.4122,3.4122,3.423,3.438,3.4597,3.4824,3.3968,3.3546,3.3577,3.2666,3.2178,3.2342,3.2617,3.2819,3.2964,3.3408,3.3668,3.3797,3.405,3.425,3.4374,3.457,3.4715,3.4756,3.4851,3.4899,3.4998,3.5696,3.6259,3.6251,3.6179,3.6419,3.6961,3.7069,3.7388,3.8023,3.808,3.8044,3.8189,3.8107,3.7992,3.7992,3.7963,3.7963,3.786,3.7639,3.7401,3.7174,3.65,3.5625,3.4872,3.4052,3.3151,3.2138,3.1486,3.1132,3.094,3.0881,3.0821,3.0702,3.0672,3.0642,3.0612,3.0612,3.0612,3.0612,3.0612,3.0612,3.0612,3.0612,3.0612,3.0612,3.0612,3.0612,3.0583,3.0089,2.9552,3.3174,3.3124,3.3124,3.2767,3.2265,3.1712,3.121,3.0758,3.0131,2.988,2.998,2.9892,2.988,2.9867,2.9817,2.9792,2.983,3.0011,3.0075,3.0126,3.0292,3.0444,3.0647,3.0874,3.1198,3.1476,3.1335,3.1539,3.1965,3.1684,3.1806,3.2323,3.2957,3.3359,3.3583,3.4042,3.4317,3.4366,3.453,3.4631,3.4631,3.4664,3.4898,3.5392,3.4171,3.3698,3.4043,3.3008,3.2492,3.2749,3.3065,3.3277,3.3477,3.3806,3.405,3.4075,3.4325,3.4521,3.4659,3.4707,3.4739,3.4875,3.4899,3.4899,3.4899,3.5008,3.5299,3.5663,3.5626,3.5798,3.6381,3.6421,3.6675,3.7307,3.7392,3.7635,3.8185,3.8379,3.8323,3.818,3.818,3.8107,3.7963,3.7817,3.7583,3.7344,3.7114,3.6637,3.5865,3.5421,3.4963,3.3859,3.2641,3.1615,3.1367,3.1161,3.1043,3.0851,3.0762,3.0732,3.0672,3.0612,3.0612,3.0612,3.0612,3.0612,3.0612,3.0612,3.0612,3.0612,3.0598,3.0598,3.0539,3.006,2.9508,3.3124,3.3124,3.3124,3.2742,3.2139,3.1311,3.0809,3.053,3.0043,2.9779,2.9779,2.9779,2.9779,2.9779,2.9779,2.9869,2.9972,3.0049,3.0241,3.0457,3.0685,3.0936,3.1209,3.1123,3.1253,3.1522,3.1385,3.1437,3.1632,3.1801,3.1982,3.2206,3.2594,3.2854,3.2933,3.3166,3.3329,3.3427,3.3875,3.402,3.3932,3.4599,3.4937,3.4782,3.4241,3.3847,3.3698,3.3116,3.2904,3.3102,3.3461,3.3736,3.3848,3.4176,3.4374,3.4448,3.4643,3.4756,3.4811,3.4811,3.4851,3.4899,3.4899,3.4899,3.4899,3.4899,3.5008,3.5167,3.5087,3.5234,3.5803,3.5831,3.6046,3.6594,3.6734,3.6999,3.7635,3.7748,3.7878,3.8226,3.8323,3.8278,3.8193,3.8078,3.7905,3.7655,3.7522,3.7261,3.6904,3.6454,3.5931,3.5383,3.4328,3.3232,3.2403,3.1676,3.1352,3.1117,3.094,3.0762,3.0732,3.0642,3.0612,3.0612,3.0612,3.0612,3.0612,3.0612,3.0612,3.0612,3.0569,3.051,3.0103,2.9813,2.9377,3.3124,3.3056,3.2918,3.2428,3.1712,3.0959,3.052,3.0357,2.9967,2.9779,2.9792,2.9869,2.9908,2.9869,2.9895,3.0011,3.019,3.0305,3.0418,3.0566,3.0813,3.1066,3.1217,3.1126,3.1176,3.1378,3.1252,3.1139,3.116,3.1518,3.174,3.1815,3.2055,3.2205,3.2234,3.2365,3.2576,3.2764,3.327,3.3478,3.3462,3.4379,3.4728,3.4375,3.4091,3.3865,3.3658,3.3306,3.3282,3.3529,3.3813,3.4025,3.4201,3.4423,3.4635,3.4756,3.4851,3.4899,3.4899,3.4899,3.4899,3.4899,3.4899,3.4899,3.4899,3.4899,3.4899,3.4916,3.4811,3.4987,3.5243,3.5249,3.5459,3.6017,3.6101,3.6372,3.7177,3.7295,3.7614,3.8246,3.8379,3.8379,3.8351,3.8237,3.8094,3.7905,3.7801,3.7759,3.7727,3.7197,3.6777,3.66,3.5888,3.4854,3.3583,3.2836,3.2223,3.1735,3.1545,3.1279,3.0984,3.0791,3.0702,3.0732,3.0672,3.0642,3.0612,3.0612,3.0612,3.0612,3.0583,3.0481,3.0147,2.9914,2.9624,3.3124,3.298,3.2478,3.1662,3.0656,3.062,3.0306,2.988,2.9804,2.9792,2.983,3.0011,3.0075,3.0113,3.0126,3.0228,3.0444,3.0785,3.0675,3.0328,3.0698,3.072,3.039,3.0542,3.0916,3.1296,3.082,3.0545,3.0422,3.0622,3.0685,3.0727,3.1263,3.1569,3.1642,3.2121,3.2533,3.2606,3.2991,3.3285,3.3485,3.394,3.4241,3.4118,3.37,3.3733,3.4077,3.3645,3.3529,3.405,3.4101,3.4209,3.4448,3.4618,3.4739,3.4875,3.4899,3.4899,3.4899,3.4899,3.4899,3.4899,3.4899,3.4899,3.4899,3.4899,3.4899,3.4899,3.4899,3.4877,3.4806,3.4767,3.4857,3.5361,3.5466,3.5991,3.7128,3.7209,3.7647,3.8213,3.8391,3.8363,3.8237,3.8209,3.8135,3.7992,3.7905,3.7905,3.7918,3.7825,3.7719,3.7446,3.684,3.5962,3.4876,3.4019,3.3481,3.3033,3.2526,3.2214,3.1531,3.1058,3.1013,3.0924,3.0953,3.0893,3.0716,3.0612,3.0642,3.0642,3.0612,3.0467,3.0351,3.0496,3.0263,3.2201,3.1951,3.1411,3.0959,3.0595,3.0256,2.9967,2.9792,2.9779,2.9869,2.9972,3.0088,3.0305,3.0672,3.0685,3.0723,3.0823,3.1198,3.1176,3.0873,3.114,3.1178,3.1009,3.0688,3.0755,3.1013,3.0646,3.042,3.0491,3.0582,3.0612,3.0627,3.0816,3.0916,3.099,3.1225,3.1493,3.1749,3.2361,3.2691,3.2671,3.3381,3.3728,3.355,3.3675,3.3772,3.3794,3.3812,3.3899,3.4075,3.4349,3.4521,3.4618,3.4756,3.4851,3.4899,3.4899,3.4899,3.4899,3.4899,3.4899,3.4899,3.4899,3.4899,3.4899,3.4899,3.4899,3.4899,3.4899,3.4875,3.4811,3.4691,3.4709,3.4898,3.4898,3.5437,3.6502,3.6847,3.7189,3.8196,3.8464,3.8363,3.8335,3.8323,3.8294,3.825,3.8221,3.8209,3.8221,3.8221,3.8164,3.8017,3.7738,3.7368,3.6901,3.5332,3.4337,3.3993,3.3634,3.3366,3.2871,3.2512,3.2436,3.196,3.1737,3.1456,3.1322,3.0967,3.0908,3.0762,3.0732,3.0672,3.0598,3.0642,3.051,3.1443,3.1135,3.0771,3.0507,3.0306,2.9955,2.983,2.9908,2.9908,2.9998,3.019,3.0343,3.0506,3.0738,3.0958,3.095,3.0867,3.1242,3.1209,3.0828,3.1041,3.111,3.0853,3.0513,3.052,3.0714,3.0557,3.0477,3.0582,3.0612,3.0612,3.0612,3.0612,3.0612,3.0672,3.0762,3.091,3.1308,3.1973,3.2278,3.2298,3.3027,3.3416,3.3398,3.3789,3.3937,3.3726,3.3975,3.4176,3.4325,3.4546,3.4715,3.4763,3.4851,3.4899,3.4899,3.4899,3.4899,3.4899,3.4899,3.4899,3.4899,3.4899,3.4899,3.4899,3.4899,3.4899,3.4899,3.4899,3.4899,3.4899,3.4811,3.4756,3.474,3.4832,3.5382,3.6537,3.6783,3.7432,3.8378,3.86,3.8516,3.8476,3.8492,3.8464,3.8408,3.8391,3.8391,3.8391,3.8391,3.8379,3.8294,3.8193,3.8042,3.7726,3.664,3.5636,3.5245,3.4886,3.4604,3.4227,3.3925,3.3577,3.3051,3.2617,3.2244,3.1857,3.1471,3.1235,3.1043,3.091,3.0866,3.0762,3.0702,3.0599,3.0895,3.0593,3.0568,3.0294,2.988,2.978,2.9896,2.9973,3.0012,3.0037,3.02,3.0681,3.0542,3.0385,3.0869,3.0878,3.056,3.0934,3.0767,3.0171,3.0429,3.0351,2.9992,3.0116,3.0258,3.0413,3.0522,3.0598,3.0612,3.0612,3.0612,3.0612,3.0598,3.0672,3.0806,3.0866,3.1073,3.1496,3.1915,3.2237,3.2617,3.3128,3.3488,3.3684,3.3988,3.4115,3.4101,3.4126,3.43,3.4618,3.4707,3.478,3.4875,3.4899,3.4899,3.4899,3.4899,3.4899,3.4899,3.4899,3.4899,3.4899,3.4899,3.4899,3.4899,3.4899,3.4899,3.4899,3.4899,3.4899,3.4899,3.4982,3.4943,3.4814,3.5317,3.5959,3.6737,3.7406,3.8051,3.863,3.875,3.8722,3.8628,3.8616,3.856,3.8476,3.8448,3.8448,3.8476,3.8476,3.842,3.8408,3.8379,3.8335,3.8193,3.794,3.7192,3.6537,3.6178,3.5833,3.5301,3.4938,3.4682,3.4225,3.3681,3.329,3.284,3.2436,3.1975,3.1723,3.1442,3.1102,3.0984,3.0881,3.0791,3.0241,2.9835,2.9965,2.9955,2.978,2.9505,2.9454,2.9428,2.9197,2.9275,2.959,2.9869,3.0051,3.0306,3.0635,3.065,3.046,3.0632,3.0559,3.0382,3.058,3.0495,3.023,3.0205,3.0326,3.0477,3.0582,3.0612,3.0612,3.0612,3.0612,3.0612,3.0702,3.0762,3.0821,3.1087,3.1393,3.1667,3.2132,3.259,3.2958,3.3435,3.3797,3.3975,3.425,3.4423,3.4497,3.4538,3.457,3.4691,3.4804,3.4875,3.4899,3.4899,3.4899,3.4899,3.4899,3.4899,3.4899,3.4899,3.4899,3.4899,3.4899,3.4899,3.4899,3.4899,3.4899,3.4899,3.4899,3.4899,3.4982,3.5379,3.5587,3.5612,3.5827,3.6497,3.7543,3.8249,3.8619,3.8739,3.8805,3.8777,3.8766,3.8738,3.8711,3.8683,3.8639,3.8655,3.8639,3.8639,3.8667,3.8683,3.8628,3.8572,3.8488,3.8387,3.8036,3.7498,3.7205,3.688,3.6391,3.6013,3.5772,3.5437,3.4903,3.4401,3.3903,3.3451,3.3031,3.2387,3.203,3.1647,3.1293,3.1146,3.1117,2.9636,2.9419,2.9573,2.9564,2.9491,2.9277,2.9123,2.903,2.889,2.9045,2.9438,2.9684,2.9885,3.0133,3.0396,3.0396,3.0189,3.0288,3.0369,3.0432,3.0512,3.0502,3.0416,3.0403,3.0463,3.0568,3.0612,3.0612,3.0612,3.0612,3.0612,3.0702,3.0762,3.091,3.1073,3.1408,3.168,3.2048,3.252,3.2958,3.333,3.3761,3.4025,3.4201,3.4423,3.4611,3.4691,3.4739,3.4763,3.4804,3.4875,3.4899,3.4899,3.4899,3.4899,3.4899,3.4899,3.4899,3.4899,3.4899,3.4899,3.4899,3.4899,3.4899,3.4899,3.4899,3.4899,3.4899,3.4899,3.4899,3.4998,3.5545,3.6075,3.6423,3.6721,3.7334,3.8401,3.8894,3.9044,3.904,3.9013,3.8942,3.8887,3.8887,3.886,3.8805,3.8805,3.8805,3.8805,3.8777,3.8805,3.8805,3.875,3.8722,3.8777,3.875,3.875,3.8407,3.8121,3.7799,3.738,3.7157,3.6918,3.6658,3.6213,3.5765,3.5321,3.4776,3.4277,3.3519,3.2764,3.229,3.1966,3.1656,3.1539,2.8991,2.9291,2.9293,2.9111,2.885,2.8949,2.889,2.8749,2.895,2.9236,2.9659,2.9922,2.9977,2.986,3.0248,3.021,2.9794,3.0029,3.0258,3.0321,3.0398,3.0446,3.0552,3.0582,3.0582,3.0612,3.0612,3.0612,3.0612,3.0642,3.0672,3.0762,3.0866,3.1073,3.1437,3.1682,3.2092,3.2574,3.2947,3.3319,3.371,3.4,3.4201,3.4325,3.457,3.4715,3.4756,3.4828,3.4899,3.4899,3.4899,3.4899,3.4899,3.4899,3.4899,3.4899,3.4899,3.4899,3.4899,3.4899,3.4899,3.4899,3.4899,3.4899,3.4899,3.4899,3.4899,3.4899,3.4899,3.4932,3.5114,3.5711,3.6439,3.7185,3.7798,3.8477,3.9149,3.9282,3.9245,3.9272,3.9272,3.9245,3.9023,3.9023,3.8969,3.8914,3.8887,3.8887,3.8887,3.8914,3.886,3.886,3.8914,3.8942,3.8985,3.8985,3.8958,3.8876,3.8628,3.8387,3.8144,3.7972,3.7828,3.7616,3.7343,3.6983,3.6582,3.6001,3.5386,3.4691,3.3932,3.3185,3.2678,3.2366,3.2042,2.8285,2.8352,2.8275,2.8176,2.81,2.8172,2.8203,2.8269,2.8347,2.8645,2.899,2.9379,2.9624,2.968,3.0026,3.0161,3.0156,3.0205,3.0357,3.0507,3.0493,3.0538,3.0612,3.0612,3.0612,3.0612,3.0612,3.0612,3.0612,3.0702,3.0762,3.0836,3.1161,3.1423,3.1682,3.212,3.2563,3.2973,3.3346,3.3684,3.3975,3.425,3.4448,3.4594,3.4739,3.4851,3.4835,3.4875,3.4899,3.4899,3.4899,3.4899,3.4899,3.4899,3.4899,3.4899,3.4899,3.4899,3.4899,3.4899,3.4899,3.4899,3.4899,3.4899,3.4899,3.4899,3.4899,3.4899,3.4899,3.5148,3.5678,3.6357,3.7301,3.846,3.8834,3.905,3.9232,3.9315,3.9315,3.9315,3.9315,3.9288,3.9245,3.9218,3.9175,3.9148,3.9148,3.9164,3.9094,3.9121,3.911,3.9164,3.9191,3.9191,3.9191,3.9191,3.9191,3.9164,3.8985,3.8805,3.8611,3.8427,3.8331,3.8201,3.795,3.7623,3.7393,3.6995,3.6368,3.5804,3.4979,3.4178,3.3562,3.3144,3.2758,2.7803,2.7674,2.7668,2.7581,2.7503,2.77,2.7807,2.7837,2.8093,2.8425,2.8844,2.9243,2.9557,2.9834,3.0066,3.0219,3.0296,3.0387,3.0477,3.0568,3.0612,3.0612,3.0612,3.0612,3.0612,3.0612,3.0612,3.0642,3.0702,3.0762,3.0866,3.1131,3.1408,3.1752,3.2104,3.2535,3.3038,3.3424,3.372,3.4,3.4275,3.4472,3.4594,3.4715,3.4828,3.4899,3.4899,3.4899,3.4899,3.4899,3.4899,3.4899,3.4899,3.4899,3.4899,3.4899,3.4899,3.4899,3.4899,3.4899,3.4899,3.4899,3.4899,3.4899,3.4899,3.4899,3.4899,3.4899,3.5164,3.5562,3.6042,3.692,3.8013,3.8984,3.9315,3.9315,3.9315,3.9315,3.9315,3.9315,3.9315,3.9315,3.9315,3.9315,3.9315,3.9315,3.9272,3.9272,3.9272,3.9315,3.9315,3.9315,3.9315,3.9272,3.9245,3.9245,3.9245,3.9245,3.9218,3.904,3.8887,3.8777,3.8694,3.8572,3.8455,3.8322,3.806,3.7814,3.7464,3.6789,3.5966,3.5327,3.477,3.4195,3.376,2.7386,2.7113,2.7225,2.7138,2.6957,2.7424,2.7537,2.7501,2.8052,2.8624,2.9117,2.9509,2.982,3.0111,3.0266,3.0342,3.0357,3.0507,3.0582,3.0612,3.0612,3.0612,3.0612,3.0612,3.0612,3.0612,3.0612,3.0687,3.0791,3.0851,3.1102,3.1437,3.1695,3.212,3.259,3.2985,3.3424,3.3822,3.405,3.425,3.4472,3.4618,3.4707,3.4756,3.4851,3.4899,3.4899,3.4899,3.4899,3.4899,3.4899,3.4899,3.4899,3.4899,3.4899,3.4899,3.4899,3.4899,3.4899,3.4899,3.4899,3.4899,3.4899,3.4899,3.4899,3.4899,3.4899,3.4899,3.5562,3.6009,3.6572,3.7566,3.8477,3.9183,3.9315,3.9315,3.9315,3.9315,3.9315,3.9315,3.9315,3.9315,3.9315,3.9315,3.9315,3.9315,3.9315,3.9315,3.9315,3.9315,3.9315,3.9315,3.9315,3.9315,3.9315,3.9315,3.9315,3.9288,3.9288,3.9191,3.904,3.8914,3.8887,3.8832,3.875,3.8706,3.8673,3.8438,3.8204,3.7801,3.7036,3.6566,3.6167,3.5577,3.5074,2.6382,2.6311,2.6081,2.6075,2.6223,2.6684,2.7148,2.7503,2.8216,2.8785,2.9293,2.9758,3.0066,3.0266,3.0433,3.0538,3.0507,3.0582,3.0612,3.0612,3.0612,3.0612,3.0612,3.0612,3.0612,3.0642,3.0702,3.0762,3.0851,3.1161,3.1437,3.1695,3.216,3.259,3.3,3.3435,3.3797,3.4075,3.43,3.4472,3.4635,3.4691,3.4756,3.4851,3.4899,3.4899,3.4899,3.4899,3.4899,3.4899,3.4899,3.4899,3.4899,3.4899,3.4899,3.4899,3.4899,3.4899,3.4899,3.4899,3.4899,3.4899,3.4899,3.4899,3.4899,3.4899,3.4899,3.5032,3.5578,3.6489,3.7566,3.8493,3.9017,3.9265,3.9315,3.9315,3.9315,3.9315,3.9315,3.9315,3.9315,3.9315,3.9315,3.9315,3.9315,3.9315,3.9315,3.9315,3.9315,3.9315,3.9315,3.9315,3.9315,3.9315,3.9315,3.9315,3.9315,3.9315,3.9315,3.9315,3.9164,3.9094,3.9094,3.9067,3.904,3.904,3.8969,3.8887,3.8597,3.8341,3.8101,3.7639,3.7162,3.6729,3.6502,2.5949,2.5709,2.5645,2.5711,2.598,2.6474,2.6985,2.7603,2.8295,2.8926,2.9463,2.9927,3.0219,3.0447,3.0538,3.0612,3.0612,3.0612,3.0612,3.0612,3.0612,3.0612,3.0612,3.0612,3.0612,3.0628,3.0732,3.0851,3.1102,3.1408,3.1766,3.2148,3.259,3.3011,3.3372,3.3797,3.4075,3.43,3.4497,3.4659,3.478,3.4804,3.4811,3.4899,3.4899,3.4899,3.4899,3.4899,3.4899,3.4899,3.4899,3.4899,3.4899,3.4899,3.4899,3.4899,3.4899,3.4899,3.4899,3.4899,3.4899,3.4899,3.4899,3.4899,3.4899,3.4899,3.5114,3.5462,3.6158,3.7119,3.851,3.8984,3.9282,3.9315,3.9315,3.9315,3.9315,3.9315,3.9315,3.9315,3.9315,3.9315,3.9315,3.9315,3.9315,3.9315,3.9315,3.9315,3.9315,3.9315,3.9315,3.9315,3.9315,3.9315,3.9315,3.9315,3.9315,3.9315,3.9315,3.9315,3.9245,3.9245,3.9272,3.9245,3.9175,3.9175,3.9148,3.904,3.9013,3.8864,3.864,3.8411,3.8182,3.7845,3.7726,2.5709,2.5312,2.55,2.5688,2.5955,2.6352,2.6832,2.7399,2.8053,2.8532,2.9277,2.9673,2.9878,3.0319,3.0379,3.0481,3.0598,3.0612,3.0612,3.0612,3.0612,3.0612,3.0612,3.0612,3.0642,3.0642,3.0851,3.1058,3.1365,3.171,3.2132,3.2645,3.3,3.3346,3.372,3.4025,3.4275,3.4497,3.4643,3.4763,3.4875,3.4899,3.4899,3.4899,3.4899,3.4899,3.4899,3.4899,3.4899,3.4899,3.4899,3.4899,3.4899,3.4899,3.4899,3.4899,3.4899,3.4899,3.4899,3.4899,3.4899,3.4899,3.4899,3.4899,3.4899,3.4949,3.5263,3.5976,3.6738,3.7781,3.91,3.9282,3.9299,3.9315,3.9315,3.9315,3.9315,3.9315,3.9315,3.9315,3.9315,3.9315,3.9315,3.9315,3.9315,3.9315,3.9315,3.9315,3.9315,3.9315,3.9315,3.9315,3.9315,3.9315,3.9315,3.9315,3.9315,3.9315,3.9315,3.9315,3.9315,3.9315,3.9315,3.9315,3.9272,3.9272,3.9272,3.9218,3.9191,3.9245,3.9152,3.8879,3.8848,3.8925,3.8799,2.5384,2.5312,2.5347,2.5571,2.5859,2.5806,2.6149,2.6732,2.7059,2.7446,2.807,2.8408,2.9087,2.9609,2.9784,3.0045,3.0351,3.0394,3.0467,3.0525,3.0525,3.0525,3.0598,3.0642,3.0672,3.0821,3.1058,3.1365,3.1667,3.2048,3.2508,3.2973,3.3293,3.3617,3.3975,3.43,3.4472,3.4618,3.4763,3.4859,3.4899,3.4899,3.4899,3.4899,3.4899,3.4899,3.4899,3.4899,3.4899,3.4899,3.4899,3.4899,3.4899,3.4899,3.4899,3.4899,3.4899,3.4899,3.4899,3.4899,3.4899,3.4899,3.4899,3.4899,3.4899,3.4998,3.5462,3.6274,3.7317,3.8394,3.9199,3.9315,3.9315,3.9315,3.9315,3.9315,3.9315,3.9315,3.9315,3.9315,3.9315,3.9315,3.9315,3.9315,3.9315,3.9315,3.9315,3.9315,3.9315,3.9315,3.9315,3.9315,3.9315,3.9315,3.9315,3.9315,3.9315,3.9315,3.9315,3.9315,3.9315,3.9315,3.9315,3.9315,3.9315,3.9299,3.9315,3.9315,3.9315,3.9272,3.9272,3.9245,3.9191,3.9121,3.9164,2.4518,2.4518,2.4518,2.4723,2.5047,2.5157,2.5575,2.6196,2.6616,2.7129,2.7675,2.8067,2.8527,2.9015,2.9131,2.9334,2.9566,2.9624,2.9798,2.9987,3.0089,3.0292,3.051,3.0628,3.0836,3.1073,3.1365,3.1595,3.1881,3.2355,3.2834,3.3266,3.3581,3.3873,3.4176,3.4399,3.457,3.4691,3.4828,3.4899,3.4899,3.4899,3.4899,3.4899,3.4899,3.4899,3.4899,3.4899,3.4899,3.4899,3.4899,3.4899,3.4899,3.4899,3.4899,3.4899,3.4899,3.4899,3.4899,3.4899,3.4899,3.4899,3.4923,3.4899,3.5015,3.5297,3.595,3.7036,3.7963,3.8891,3.9282,3.9299,3.9315,3.9315,3.9315,3.9315,3.9315,3.9315,3.9315,3.9315,3.9315,3.9315,3.9315,3.9315,3.9315,3.9315,3.9315,3.9315,3.9315,3.9315,3.9315,3.9315,3.9315,3.9315,3.9315,3.9315,3.9315,3.9315,3.9315,3.9315,3.9315,3.9315,3.9315,3.9315,3.9315,3.9315,3.9315,3.9315,3.9315,3.9315,3.9288,3.9288,3.9315,3.9315,3.9315,2.3806,2.3806,2.3806,2.3992,2.4308,2.4528,2.5001,2.5633,2.6173,2.6703,2.7326,2.7655,2.8024,2.8436,2.8651,2.8738,2.8694,2.8752,2.9044,2.9348,2.945,2.9726,3.0133,3.0367,3.0455,3.0667,3.1011,3.1596,3.2176,3.2617,3.3076,3.3487,3.3797,3.4075,3.4325,3.4497,3.4611,3.4732,3.4851,3.4899,3.4899,3.4899,3.4899,3.4899,3.4899,3.4899,3.4899,3.4899,3.4899,3.4899,3.4899,3.4899,3.4899,3.4899,3.4899,3.4899,3.4899,3.4899,3.4923,3.4947,3.497,3.4987,3.497,3.4994,3.526,3.5865,3.6837,3.8074,3.8913,3.9312,3.9379,3.9335,3.9325,3.9315,3.9315,3.9315,3.9315,3.9315,3.9315,3.9315,3.9315,3.9315,3.9315,3.9315,3.9315,3.9315,3.9315,3.9315,3.9315,3.9315,3.9315,3.9315,3.9315,3.9315,3.9315,3.9315,3.9315,3.9315,3.9315,3.9315,3.9315,3.9315,3.9315,3.9315,3.9315,3.9315,3.9315,3.9315,3.9315,3.9315,3.9315,3.9315,3.9315,3.9315,3.9315,2.3806,2.3794,2.3782,2.3992,2.421,2.4097,2.4384,2.5005,2.5217,2.5548,2.63,2.6477,2.7091,2.777,2.8376,2.8607,2.8607,2.8534,2.8579,2.8768,2.8825,2.8969,2.9156,2.9096,2.961,3.0016,3.0211,3.1094,3.2087,3.2732,3.3251,3.3642,3.394,3.4201,3.4448,3.457,3.4739,3.4851,3.4899,3.4899,3.4899,3.4899,3.4899,3.4899,3.4899,3.4899,3.4899,3.4899,3.4899,3.4899,3.4899,3.4899,3.4899,3.4899,3.4899,3.4899,3.4899,3.4923,3.4923,3.4994,3.5081,3.5105,3.5158,3.5245,3.573,3.6532,3.7569,3.8421,3.9224,3.9582,3.9511,3.9475,3.9405,3.9379,3.9352,3.9352,3.9325,3.9352,3.9352,3.9315,3.9315,3.9315,3.9315,3.9315,3.9315,3.9315,3.9315,3.9315,3.9315,3.9315,3.9315,3.9315,3.9315,3.9315,3.9315,3.9315,3.9315,3.9315,3.9315,3.9315,3.9315,3.9315,3.9315,3.9315,3.9315,3.9315,3.9315,3.9315,3.9315,3.9315,3.9315,3.9315,3.9315,3.9315,3.9315,2.2903,2.2915,2.2883,2.3094,2.3385,2.3405,2.3811,2.4446,2.4828,2.5342,2.5893,2.6206,2.6646,2.7219,2.7561,2.7592,2.7607,2.7665,2.7839,2.8113,2.8241,2.8469,2.8904,2.914,2.9411,2.9618,3.0099,3.0721,3.1748,3.2457,3.3042,3.3662,3.4009,3.43,3.4497,3.4643,3.4763,3.4851,3.4899,3.4899,3.4899,3.4899,3.4899,3.4899,3.4899,3.4899,3.4899,3.4899,3.4899,3.4899,3.4899,3.4899,3.4899,3.4923,3.4923,3.5018,3.5018,3.5018,3.5018,3.5065,3.5135,3.5245,3.5404,3.5742,3.6512,3.7266,3.8226,3.9354,3.9631,3.9781,3.972,3.9685,3.959,3.9537,3.952,3.9458,3.9432,3.9405,3.9405,3.9352,3.9315,3.9315,3.9315,3.9315,3.9315,3.9315,3.9315,3.9315,3.9315,3.9315,3.9315,3.9315,3.9315,3.9315,3.9315,3.9315,3.9315,3.9315,3.9315,3.9315,3.9315,3.9315,3.9315,3.9315,3.9315,3.9315,3.9315,3.9315,3.9315,3.9315,3.9315,3.9315,3.9315,3.9315,3.9315,2.1801,2.1813,2.1945,2.2177,2.2487,2.265,2.3051,2.3686,2.4253,2.4943,2.5697,2.6201,2.6594,2.6767,2.6852,2.6939,2.6837,2.6794,2.7055,2.7414,2.7669,2.7981,2.8334,2.8806,2.9109,2.957,2.9587,3.0229,3.0957,3.1665,3.2435,3.3441,3.3778,3.4178,3.4488,3.4683,3.4828,3.4899,3.4899,3.4899,3.4899,3.4899,3.4899,3.4899,3.4899,3.4899,3.4899,3.4899,3.4899,3.4899,3.4899,3.4923,3.497,3.497,3.5048,3.5135,3.5205,3.5251,3.5274,3.5297,3.5297,3.5367,3.5638,3.6186,3.7513,3.7943,3.8543,3.9951,4.0087,4.0062,4.0003,3.9926,3.9858,3.9807,3.9755,3.9677,3.9616,3.9563,3.9484,3.9422,3.9369,3.9315,3.9315,3.9315,3.9315,3.9315,3.9315,3.9315,3.9315,3.9315,3.9315,3.9315,3.9315,3.9315,3.9315,3.9315,3.9315,3.9315,3.9315,3.9315,3.9315,3.9315,3.9315,3.9315,3.9315,3.9315,3.9315,3.9315,3.9315,3.9315,3.9315,3.9315,3.9315,3.9315,3.9315,2.0689,2.0737,2.1247,2.1577,2.1866,2.1677,2.1995,2.2718,2.3165,2.4062,2.5158,2.6115,2.6553,2.6663,2.6562,2.6591,2.6707,2.6779,2.6806,2.6861,2.7024,2.738,2.7736,2.8019,2.8218,2.863,2.9014,2.9569,3.0133,3.0672,3.1662,3.2707,3.3201,3.3819,3.4192,3.4336,3.4488,3.4551,3.4551,3.47,3.475,3.48,3.4857,3.4923,3.4899,3.4899,3.4899,3.4899,3.4923,3.4923,3.4947,3.4994,3.5065,3.5111,3.5188,3.5327,3.5418,3.5509,3.5622,3.5577,3.556,3.5627,3.5987,3.671,3.8054,3.823,3.8975,4.0236,4.0451,4.0429,4.0355,4.0255,4.0188,4.0138,4.0062,3.9935,3.9849,3.9668,3.959,3.9501,3.9422,3.9352,3.9342,3.9342,3.9315,3.9315,3.9315,3.9315,3.9315,3.9315,3.9315,3.9315,3.9315,3.9315,3.9315,3.9315,3.9315,3.9315,3.9315,3.9315,3.9315,3.9315,3.9315,3.9315,3.9315,3.9315,3.9315,3.9315,3.9315,3.9315,3.9315,3.9315,3.9315,3.9315,3.9315,2.0581,2.0581,2.0478,2.0758,2.1326,2.144,2.1841,2.2415,2.2963,2.3753,2.4728,2.5275,2.5528,2.5593,2.5564,2.5604,2.5676,2.6079,2.6177,2.655,2.688,2.7306,2.759,2.7885,2.8299,2.8573,2.8826,2.9177,2.9847,3.0067,3.0693,3.1605,3.2383,3.2819,3.3231,3.3575,3.3617,3.363,3.3663,3.3746,3.4187,3.4253,3.4435,3.4883,3.4899,3.4899,3.4899,3.4899,3.4947,3.4994,3.5018,3.5111,3.5222,3.5258,3.5396,3.5538,3.5672,3.5827,3.5954,3.5888,3.5783,3.6165,3.6659,3.7456,3.853,3.9024,3.979,4.0562,4.0888,4.0793,4.081,4.0648,4.0527,4.0436,4.0362,4.0263,4.0113,3.9961,3.9798,3.972,3.9563,3.9432,3.9379,3.9369,3.9342,3.9315,3.9315,3.9315,3.9315,3.9315,3.9315,3.9315,3.9315,3.9315,3.9315,3.9315,3.9315,3.9315,3.9315,3.9315,3.9315,3.9315,3.9315,3.9315,3.9315,3.9315,3.9315,3.9315,3.9315,3.9315,3.9315,3.9315,3.9315,3.9315,3.9315,2.0129,2.0081,1.9763,2.0046,2.0748,2.0917,2.1331,2.1891,2.2399,2.3278,2.4197,2.4542,2.4741,2.4785,2.4839,2.4882,2.5081,2.5353,2.5558,2.5985,2.6539,2.7156,2.7574,2.8039,2.8501,2.8795,2.9006,2.933,2.9717,2.9697,3.017,3.0819,3.1422,3.1849,3.2531,3.2584,3.2685,3.2685,3.2752,3.2901,3.3442,3.3491,3.3822,3.4386,3.4502,3.4748,3.4871,3.4994,3.5058,3.5111,3.5182,3.5258,3.535,3.5464,3.5622,3.5783,3.5958,3.6148,3.6229,3.6187,3.6127,3.6446,3.714,3.7992,3.8912,3.9682,4.0271,4.1007,4.1129,4.114,4.1123,4.0942,4.0871,4.0806,4.0745,4.0648,4.0485,4.0313,4.0113,3.9961,3.9781,3.9616,3.9511,3.9475,3.9395,3.9342,3.9315,3.9315,3.9315,3.9315,3.9315,3.9315,3.9315,3.9315,3.9315,3.9315,3.9315,3.9315,3.9315,3.9315,3.9315,3.9332,3.9332,3.9315,3.9315,3.9315,3.9315,3.9332,3.9332,3.9315,3.9315,3.9315,3.9315,3.9315,3.9315,1.911,1.9049,1.9192,1.9617,2.017,1.9956,2.022,2.0882,2.1417,2.2335,2.3531,2.4201,2.4543,2.4612,2.4505,2.4491,2.4549,2.4747,2.4936,2.5292,2.6046,2.6606,2.7276,2.7902,2.8529,2.899,2.9183,2.9366,2.972,2.9726,2.9917,3.0131,3.0609,3.1112,3.2335,3.2585,3.2652,3.2636,3.2536,3.2531,3.268,3.2729,3.3127,3.3647,3.3846,3.4124,3.4692,3.4878,3.4998,3.5281,3.5396,3.5509,3.5622,3.5773,3.5954,3.6212,3.628,3.6423,3.664,3.6523,3.6544,3.6783,3.7467,3.8349,3.899,3.9739,4.051,4.1265,4.1249,4.1209,4.1209,4.1186,4.1163,4.1134,4.1053,4.0959,4.0799,4.0631,4.0412,4.0263,4.0037,3.9849,3.972,3.9606,3.9458,3.9379,3.9342,3.9315,3.9299,3.9315,3.9315,3.9315,3.9315,3.9315,3.9315,3.9315,3.9315,3.9315,3.9315,3.9315,3.9398,3.9497,3.9464,3.9398,3.968,3.9995,3.9696,3.9381,3.9514,3.9674,3.9365,3.9315,3.9315,3.9315,3.9315,1.9013,1.9025,1.9131,1.9373,1.968,1.9859,2.0207,2.0684,2.1375,2.2132,2.2822,2.3263,2.3423,2.3516,2.3621,2.3627,2.3664,2.4218,2.44,2.4707,2.5544,2.6484,2.7155,2.7697,2.8396,2.905,2.9344,2.9502,2.983,2.983,2.9946,3.0119,3.0307,3.0669,3.1042,3.1217,3.1239,3.1222,3.1272,3.1437,3.1879,3.2017,3.2315,3.3033,3.3167,3.36,3.4318,3.4498,3.4818,3.5324,3.5548,3.5776,3.5958,3.6122,3.6314,3.6482,3.6527,3.671,3.6849,3.6831,3.6809,3.7158,3.7947,3.8793,3.9269,4.0442,4.109,4.1366,4.1413,4.1431,4.1475,4.1363,4.1318,4.1295,4.1244,4.1157,4.1041,4.0871,4.0721,4.0607,4.0412,4.0087,3.9901,3.9824,3.9694,3.9563,3.9484,3.9379,3.9352,3.9325,3.9315,3.9315,3.9315,3.9315,3.9315,3.9315,3.9315,3.9315,3.9315,3.9315,3.9431,3.9696,3.9945,4.0061,4.0382,4.0696,4.047,4.0248,4.0132,4.0093,3.9954,3.9561,3.9352,3.9325,3.9315,1.9013,1.9025,1.9184,1.9342,1.9512,1.9862,2.0309,2.0921,2.1554,2.21,2.2523,2.2629,2.2772,2.2886,2.2888,2.2888,2.2968,2.3454,2.3878,2.4193,2.5025,2.5834,2.6587,2.7425,2.8173,2.8917,2.9361,2.963,2.9874,2.9896,3.0011,3.0189,3.0401,3.0513,3.0605,3.0621,3.0621,3.0654,3.0737,3.082,3.1139,3.1359,3.1646,3.2225,3.2612,3.3004,3.3594,3.4044,3.4438,3.5154,3.5617,3.5946,3.6215,3.6478,3.6585,3.6647,3.6768,3.6908,3.695,3.697,3.6911,3.6941,3.8421,3.9178,3.9585,4.0652,4.1266,4.1565,4.1604,4.1604,4.1582,4.1471,4.1471,4.1426,4.1408,4.134,4.1249,4.1082,4.1006,4.0871,4.0745,4.0387,4.0113,4.0011,3.9952,3.9807,3.9651,3.9547,3.9441,3.9405,3.9395,3.9352,3.9325,3.9325,3.9325,3.9315,3.9315,3.9315,3.9365,3.9458,3.9763,4.005,4.0382,4.0696,4.0989,4.1216,4.1322,4.1217,4.1121,4.1003,4.0879,4.0358,3.9624,3.9531,3.9658,1.9013,1.9052,1.9302,1.946,1.9642,1.9952,2.0586,2.1399,2.1698,2.2114,2.2578,2.2615,2.2706,2.2865,2.2888,2.291,2.2955,2.3155,2.3415,2.3776,2.4535,2.516,2.5973,2.6891,2.7671,2.8411,2.8922,2.9209,2.9761,2.9962,3.0076,3.0227,3.0417,3.0485,3.0489,3.0489,3.0489,3.0489,3.0506,3.0609,3.0796,3.0796,3.1187,3.1671,3.2014,3.2551,3.3098,3.3515,3.414,3.4751,3.5225,3.5776,3.6263,3.6643,3.6745,3.6829,3.693,3.697,3.6989,3.6989,3.6989,3.7126,3.8424,3.9076,3.9726,4.0639,4.1394,4.1604,4.1604,4.1604,4.1582,4.1582,4.1582,4.156,4.156,4.1515,4.1426,4.1335,4.1244,4.1105,4.0982,4.0745,4.0461,4.0355,4.0263,4.0163,4.0062,3.9961,3.9807,3.9563,3.9511,3.9484,3.9458,3.9379,3.9352,3.9405,3.9405,3.9458,3.9634,3.9767,4.0121,4.0575,4.1089,4.1448,4.1548,4.1787,4.2272,4.2295,4.2064,4.1933,4.1883,4.1321,4.0654,4.0366,4.0333,1.9013,1.904,1.9289,1.9486,1.9708,2.0397,2.1033,2.1544,2.1831,2.2194,2.2615,2.2615,2.2706,2.2902,2.2888,2.297,2.3105,2.329,2.3509,2.3868,2.4262,2.4924,2.5596,2.6308,2.7026,2.7562,2.8084,2.8571,2.9151,2.9621,3.0005,3.0231,3.0269,3.0385,3.0423,3.0489,3.051,3.051,3.051,3.0568,3.063,3.0695,3.1011,3.1288,3.1513,3.2063,3.263,3.298,3.3722,3.4858,3.5352,3.5941,3.6641,3.6829,3.6928,3.6948,3.6987,3.6989,3.6989,3.6989,3.6989,3.7288,3.8427,3.9111,3.9705,4.0533,4.1499,4.1626,4.1626,4.1648,4.1648,4.167,4.167,4.167,4.167,4.1626,4.1577,4.1533,4.1443,4.1335,4.1215,4.1053,4.0817,4.0704,4.0614,4.0558,4.0461,4.0362,4.0188,3.9926,3.9746,3.972,3.9651,3.9599,3.9573,3.9599,3.9599,3.9606,3.9877,4.023,4.0762,4.1266,4.187,4.2325,4.2662,4.3109,4.358,4.3429,4.3135,4.3049,4.2908,4.2317,4.1788,4.1534,4.1339,1.9025,1.9105,1.9394,1.9682,2.0169,2.0847,2.1375,2.1674,2.1902,2.2217,2.2592,2.2615,2.2692,2.2902,2.297,2.3037,2.3119,2.3385,2.3646,2.3882,2.4198,2.4735,2.5294,2.5857,2.6438,2.6922,2.7382,2.7899,2.8459,2.8885,2.9288,2.9292,2.9725,3.0063,3.017,3.0393,3.0613,3.063,3.0651,3.0692,3.0773,3.0855,3.1015,3.1193,3.1329,3.179,3.2235,3.2527,3.3332,3.4451,3.4903,3.5607,3.6344,3.6702,3.697,3.6987,3.6989,3.6989,3.6989,3.6989,3.6989,3.7376,3.8415,3.9156,3.9874,4.0664,4.1319,4.167,4.1692,4.1692,4.1714,4.1754,4.1754,4.1776,4.1776,4.1776,4.1732,4.1688,4.1622,4.1538,4.1426,4.1307,4.1192,4.1082,4.0995,4.0901,4.0847,4.0769,4.0576,4.028,4.0104,3.9986,3.9935,3.9858,3.9858,3.9909,4.0017,4.0134,4.0344,4.0758,4.1349,4.2,4.2645,4.3317,4.3979,4.426,4.4416,4.4456,4.428,4.4198,4.426,4.407,4.352,4.2894,4.2723,1.909,1.9223,1.9512,2.008,2.0809,2.1215,2.1544,2.1807,2.1973,2.2231,2.2569,2.2615,2.2706,2.2902,2.3015,2.3127,2.3282,2.3538,2.3818,2.4024,2.4302,2.4719,2.5134,2.5643,2.5994,2.6507,2.6917,2.7183,2.7579,2.8082,2.8387,2.8059,2.8887,2.9394,2.9536,3.0182,3.0476,3.059,3.0758,3.0915,3.1015,3.1134,3.1327,3.1521,3.1654,3.1871,3.1963,3.2193,3.2527,3.335,3.4086,3.4858,3.5808,3.6601,3.6902,3.6989,3.6989,3.6989,3.6989,3.6989,3.6989,3.7501,3.8496,3.9203,3.9922,4.0908,4.1599,4.178,4.1819,4.1841,4.188,4.188,4.188,4.188,4.188,4.188,4.188,4.1837,4.1797,4.1754,4.1688,4.1577,4.1533,4.1426,4.138,4.1272,4.1226,4.1192,4.1006,4.0704,4.0534,4.0387,4.0313,4.0288,4.0246,4.0315,4.051,4.0678,4.0978,4.157,4.2337,4.2925,4.3463,4.4096,4.4688,4.4875,4.5037,4.5095,4.5252,4.5465,4.5563,4.5855,4.5379,4.4481,4.421,1.9078,1.9249,1.9836,2.0346,2.082,2.1337,2.1664,2.1831,2.2067,2.2324,2.2569,2.2638,2.2729,2.291,2.3045,2.3194,2.3444,2.3711,2.4024,2.4276,2.4503,2.4746,2.4989,2.5381,2.5614,2.5683,2.5986,2.6464,2.6935,2.7483,2.7945,2.8017,2.8513,2.8741,2.8848,2.9632,3.0154,3.0439,3.0893,3.1092,3.1213,3.1368,3.1521,3.169,3.1856,3.1966,3.2055,3.2196,3.2721,3.3405,3.3581,3.4475,3.5722,3.655,3.6937,3.6989,3.6989,3.7009,3.7009,3.7009,3.7046,3.7506,3.8337,3.9083,3.9985,4.1174,4.1831,4.1909,4.1945,4.1984,4.2005,4.2026,4.2009,4.2009,4.2009,4.2009,4.2009,4.1987,4.1987,4.1966,4.1923,4.188,4.1819,4.1776,4.1754,4.1714,4.167,4.1604,4.151,4.129,4.1059,4.0918,4.0776,4.0728,4.0686,4.0888,4.1192,4.1639,4.2023,4.2658,4.3383,4.3916,4.4433,4.4847,4.5249,4.545,4.5632,4.5827,4.601,4.6259,4.6405,4.6453,4.6596,4.5965,4.5804,1.9184,1.9447,2.0093,2.061,2.1006,2.141,2.1712,2.1926,2.2184,2.2394,2.2592,2.2638,2.2737,2.2978,2.3112,2.3312,2.3581,2.3903,2.4156,2.4421,2.4686,2.4922,2.51,2.524,2.542,2.5502,2.5575,2.5959,2.6373,2.6637,2.7014,2.7325,2.7719,2.8137,2.8295,2.9052,2.9792,3.0313,3.0891,3.1235,3.138,3.1617,3.1784,3.1947,3.2037,3.2126,3.2214,3.2301,3.2564,3.3231,3.3652,3.4582,3.5723,3.6549,3.6937,3.6989,3.7029,3.7048,3.7068,3.7087,3.7124,3.7584,3.8227,3.8996,3.9797,4.0881,4.1682,4.181,4.2002,4.2055,4.2139,4.216,4.216,4.216,4.216,4.216,4.216,4.216,4.216,4.2139,4.2097,4.1995,4.1952,4.1923,4.1902,4.188,4.1884,4.1884,4.1819,4.1797,4.1604,4.1471,4.1335,4.1261,4.1198,4.1545,4.2029,4.2496,4.3019,4.3761,4.4456,4.4939,4.5398,4.5606,4.5786,4.5963,4.6161,4.6332,4.6477,4.6661,4.6819,4.6911,4.7048,4.712,4.6832,1.9236,1.9685,2.0358,2.0871,2.1253,2.1544,2.1793,2.2044,2.2287,2.2486,2.2629,2.2652,2.2834,2.306,2.3268,2.3451,2.3696,2.4051,2.4317,2.4544,2.4782,2.5041,2.5217,2.5317,2.5448,2.5543,2.5635,2.5659,2.5828,2.6143,2.6374,2.6403,2.6883,2.7496,2.7909,2.8558,2.9313,2.9952,3.0541,3.1148,3.153,3.1913,3.2037,3.2144,3.2214,3.2284,3.2371,3.2406,3.2406,3.302,3.3829,3.4779,3.5676,3.6487,3.6907,3.7068,3.7126,3.7127,3.7147,3.722,3.7259,3.7509,3.8209,3.8887,3.967,4.0491,4.1294,4.1721,4.1893,4.2145,4.2246,4.2287,4.2287,4.2287,4.2287,4.2287,4.2287,4.2287,4.2267,4.2267,4.2225,4.2124,4.21,4.2072,4.2051,4.203,4.203,4.203,4.2051,4.2094,4.2012,4.1952,4.1892,4.1823,4.1688,4.2196,4.2695,4.3295,4.3837,4.4744,4.5474,4.5732,4.5963,4.613,4.6301,4.6471,4.6572,4.6713,4.6893,4.7025,4.7116,4.7205,4.7316,4.7381,4.7381,1.8719,1.9677,2.0537,2.1082,2.1385,2.1769,2.202,2.2184,2.231,2.2523,2.2712,2.2772,2.2909,2.3119,2.3371,2.3581,2.3824,2.4193,2.4518,2.4762,2.4926,2.5162,2.5336,2.5394,2.5486,2.5581,2.564,2.5682,2.5775,2.599,2.6187,2.6345,2.6606,2.703,2.7317,2.8014,2.8732,2.9367,3.023,3.0958,3.1324,3.1708,3.2126,3.2232,3.2301,3.2354,3.2406,3.2406,3.2457,3.2949,3.3882,3.4747,3.5524,3.6354,3.6919,3.7201,3.7222,3.7241,3.726,3.7316,3.7353,3.7407,3.8032,3.855,3.9389,4.0283,4.0945,4.1431,4.1714,4.2177,4.2308,4.2328,4.2328,4.2328,4.2346,4.2308,4.2308,4.2308,4.2287,4.2287,4.2287,4.2246,4.2246,4.2243,4.2264,4.2243,4.2243,4.2264,4.2323,4.2382,4.2402,4.2366,4.2348,4.2202,4.2026,4.2762,4.3345,4.3973,4.4659,4.5479,4.6048,4.631,4.6495,4.659,4.6754,4.6957,4.707,4.703,4.7165,4.7276,4.7363,4.7468,4.7554,4.7593,4.7533]}]]